[[{"header":{"parameterUnit":"m.s-1","parameterCategory":1,"la1":30.6,"la2":29.2853,"lo1":-89.7004,"lo2":-87.6739,"dy":0.0162,"dx":0.0183,"nx":112,"ny":82,"refTime":"2024-09-19T12:00:00:Z","depth":0,"parameterNumber":2,"parameterNumberName":"U-component_of_WINDS"},"data":[0.0,0.0,0.0,0.0,0.0,0.0,0.0,0.0,0.0,0.0,0.0,0.0,0.0,0.0,0.0,0.0,0.0,0.0,0.0,0.0,0.0,0.0,0.0,0.0,0.0,0.0,0.0,0.0,0.0,0.0,0.0,0.0,0.0,0.0,0.0,0.0,0.0,0.0,0.0,0.0,0.0,0.0,0.0,0.0,0.0,0.0,0.0,0.0,0.0,0.0,0.0,0.0,0.0,0.0,0.0,0.0,0.0,0.0,0.0,0.0,0.0,0.0,0.0,0.0,0.0,0.0,0.0,0.0,0.0,0.0,0.0,0.0,0.0,0.0,0.0,0.0,0.0,0.0,0.0,0.0,0.0,0.0,0.0,0.0,0.0,0.0,0.0,0.0,0.0,0.0,-1.0502,-1.189,-1.4076,-1.5446,-1.5446,-1.4873,-1.3466,-1.0942,0.0,0.0,0.0,0.0,0.0,0.0,0.0,0.0,0.0,0.0,0.0,0.0,0.0,0.0,0.0,0.0,0.0,0.0,0.0,0.0,0.0,0.0,0.0,0.0,0.0,0.0,0.0,0.0,0.0,0.0,0.0,0.0,0.0,0.0,0.0,0.0,0.0,0.0,0.0,0.0,0.0,0.0,0.0,0.0,0.0,0.0,0.0,0.0,0.0,0.0,0.0,0.0,0.0,0.0,0.0,0.0,0.0,0.0,0.0,0.0,0.0,0.0,0.0,0.0,0.0,0.0,0.0,0.0,0.0,0.0,0.0,0.0,0.0,0.0,0.0,0.0,0.0,0.0,0.0,0.0,0.0,0.0,0.0,0.0,0.0,0.0,0.0,0.0,0.0,0.0,0.0,0.0,0.0,0.0,0.0,0.0,0.0,0.0,0.0,0.0,0.0,0.0,0.0,0.0,-1.096,-1.3679,-1.4681,-1.5153,-1.5153,-1.429,-1.2889,-1.0835,0.0,0.0,0.0,0.0,0.0,0.0,0.0,0.0,0.0,0.0,0.0,0.0,0.0,0.0,0.0,0.0,0.0,0.0,0.0,0.0,0.0,0.0,0.0,0.0,0.0,0.0,0.0,0.0,0.0,0.0,0.0,0.0,0.0,0.0,0.0,0.0,0.0,0.0,0.0,0.0,0.0,0.0,0.0,0.0,0.0,0.0,0.0,0.0,0.0,0.0,0.0,0.0,0.0,0.0,0.0,0.0,0.0,0.0,0.0,0.0,0.0,0.0,0.0,0.0,0.0,0.0,0.0,0.0,0.0,0.0,0.0,0.0,0.0,0.0,0.0,0.0,0.0,0.0,0.0,0.0,0.0,0.0,0.0,0.0,0.0,0.0,0.0,0.0,0.0,0.0,0.0,0.0,0.0,0.0,0.0,0.0,0.0,0.0,0.0,0.0,0.0,0.0,0.0,-1.0547,-1.1727,-1.4476,-1.4982,-1.5108,-1.5108,-1.4178,-1.2751,-1.0771,-0.9935,0.0,0.0,0.0,0.0,0.0,0.0,0.0,0.0,0.0,0.0,0.0,0.0,0.0,0.0,0.0,0.0,0.0,0.0,0.0,0.0,0.0,0.0,0.0,0.0,0.0,0.0,0.0,0.0,0.0,0.0,0.0,0.0,0.0,0.0,0.0,0.0,0.0,0.0,0.0,0.0,0.0,0.0,0.0,0.0,0.0,0.0,0.0,0.0,0.0,0.0,0.0,0.0,0.0,0.0,0.0,0.0,0.0,0.0,0.0,0.0,0.0,0.0,0.0,0.0,0.0,0.0,0.0,0.0,0.0,0.0,0.0,0.0,0.0,0.0,0.0,0.0,0.0,0.0,0.0,0.0,0.0,0.0,0.0,0.0,0.0,0.0,0.0,0.0,0.0,0.0,0.0,0.0,0.0,0.0,0.0,0.0,0.0,0.0,0.0,0.0,0.0,0.0,-1.1802,-1.2678,-1.4878,-1.5108,-1.5108,-1.5108,-1.396,-1.2498,-1.0711,-0.9425,0.0,0.0,0.0,0.0,0.0,0.0,0.0,0.0,0.0,0.0,0.0,0.0,0.0,0.0,0.0,0.0,0.0,0.0,0.0,0.0,0.0,0.0,0.0,0.0,0.0,0.0,0.0,0.0,0.0,0.0,0.0,0.0,0.0,0.0,0.0,0.0,0.0,0.0,0.0,0.0,0.0,0.0,0.0,0.0,0.0,0.0,0.0,0.0,0.0,0.0,0.0,0.0,0.0,0.0,0.0,0.0,0.0,0.0,0.0,0.0,0.0,0.0,0.0,0.0,0.0,0.0,0.0,0.0,0.0,0.0,0.0,0.0,0.0,0.0,0.0,0.0,0.0,0.0,0.0,0.0,0.0,0.0,0.0,0.0,0.0,0.0,0.0,0.0,0.0,0.0,0.0,0.0,0.0,0.0,0.0,0.0,0.0,0.0,0.0,0.0,0.0,0.0,-1.2307,-1.3868,-1.4982,-1.5108,-1.5108,-1.5108,-1.3325,-1.175,-1.0677,-0.8773,0.0,0.0,0.0,0.0,0.0,0.0,0.0,0.0,0.0,0.0,0.0,0.0,0.0,0.0,0.0,0.0,0.0,0.0,0.0,0.0,0.0,0.0,0.0,0.0,0.0,0.0,0.0,0.0,0.0,0.0,0.0,0.0,0.0,0.0,0.0,0.0,0.0,0.0,0.0,0.0,0.0,0.0,0.0,0.0,0.0,0.0,0.0,0.0,0.0,0.0,0.0,0.0,0.0,0.0,0.0,0.0,0.0,0.0,0.0,0.0,0.0,0.0,0.0,0.0,0.0,0.0,0.0,0.0,0.0,0.0,0.0,0.0,0.0,0.0,0.0,0.0,0.0,0.0,0.0,0.0,0.0,0.0,0.0,0.0,0.0,0.0,0.0,0.0,0.0,0.0,0.0,0.0,0.0,0.0,0.0,0.0,0.0,0.0,0.0,0.0,0.0,0.0,-1.1819,-1.3302,-1.4936,-1.5108,-1.5108,-1.5108,-1.3822,-1.2348,-1.0711,0.0,0.0,0.0,0.0,0.0,0.0,0.0,0.0,0.0,0.0,0.0,0.0,0.0,0.0,0.0,0.0,0.0,0.0,0.0,0.0,0.0,0.0,0.0,0.0,0.0,0.0,0.0,0.0,0.0,0.0,0.0,0.0,0.0,0.0,0.0,0.0,0.0,0.0,0.0,0.0,0.0,0.0,0.0,0.0,0.0,0.0,0.0,0.0,0.0,0.0,0.0,0.0,0.0,0.0,0.0,0.0,0.0,0.0,0.0,0.0,0.0,0.0,0.0,0.0,0.0,0.0,0.0,0.0,0.0,0.0,0.0,0.0,0.0,0.0,0.0,0.0,0.0,0.0,0.0,0.0,0.0,0.0,0.0,0.0,0.0,0.0,0.0,0.0,0.0,0.0,0.0,0.0,0.0,0.0,0.0,0.0,0.0,0.0,0.0,0.0,0.0,0.0,-1.039,-1.1762,-1.3222,-1.4924,-1.5108,-1.5108,-1.5108,-1.388,-1.2387,-1.0711,0.0,0.0,0.0,0.0,0.0,0.0,0.0,0.0,0.0,0.0,0.0,0.0,0.0,0.0,0.0,0.0,0.0,0.0,0.0,0.0,0.0,0.0,0.0,0.0,0.0,0.0,0.0,0.0,0.0,0.0,0.0,0.0,0.0,0.0,0.0,0.0,0.0,0.0,0.0,0.0,0.0,0.0,0.0,0.0,0.0,0.0,0.0,0.0,0.0,0.0,0.0,0.0,0.0,0.0,0.0,0.0,0.0,0.0,0.0,0.0,0.0,0.0,0.0,0.0,0.0,0.0,0.0,0.0,0.0,0.0,0.0,0.0,0.0,0.0,0.0,0.0,0.0,0.0,0.0,0.0,0.0,0.0,0.0,0.0,0.0,0.0,0.0,0.0,0.0,0.0,0.0,0.0,0.0,0.0,0.0,0.0,0.0,0.0,0.0,0.0,0.0,0.0,-1.047,-1.2353,-1.3983,-1.4993,-1.5108,-1.5108,-1.5108,-1.3248,-1.1681,0.0,0.0,0.0,0.0,0.0,0.0,0.0,0.0,0.0,0.0,0.0,0.0,0.0,0.0,0.0,0.0,0.0,0.0,0.0,0.0,0.0,0.0,0.0,0.0,0.0,0.0,0.0,0.0,0.0,0.0,0.0,0.0,0.0,0.0,0.0,0.0,0.0,0.0,0.0,0.0,0.0,0.0,0.0,0.0,0.0,0.0,0.0,0.0,0.0,0.0,0.0,0.0,0.0,0.0,0.0,0.0,0.0,0.0,0.0,0.0,0.0,0.0,0.0,0.0,0.0,0.0,0.0,0.0,0.0,0.0,0.0,0.0,0.0,0.0,0.0,0.0,0.0,0.0,0.0,0.0,0.0,0.0,0.0,0.0,0.0,0.0,0.0,0.0,0.0,0.0,0.0,0.0,0.0,0.0,0.0,0.0,0.0,0.0,0.0,0.0,0.0,0.0,0.0,-1.047,-1.2353,-1.3983,-1.4993,-1.5108,-1.5108,-1.5108,-1.3777,-1.2261,-1.0695,0.0,0.0,0.0,0.0,0.0,0.0,0.0,0.0,0.0,0.0,0.0,0.0,0.0,0.0,0.0,0.0,0.0,0.0,0.0,0.0,0.0,0.0,0.0,0.0,0.0,0.0,0.0,0.0,0.0,0.0,0.0,0.0,0.0,0.0,0.0,0.0,0.0,0.0,0.0,0.0,0.0,0.0,0.0,0.0,0.0,0.0,0.0,0.0,0.0,0.0,0.0,0.0,0.0,0.0,0.0,0.0,0.0,0.0,0.0,0.0,0.0,0.0,0.0,0.0,0.0,0.0,0.0,0.0,0.0,0.0,0.0,0.0,0.0,0.0,0.0,0.0,0.0,0.0,0.0,0.0,0.0,0.0,0.0,0.0,0.0,0.0,0.0,0.0,0.0,0.0,0.0,0.0,0.0,0.0,0.0,0.0,0.0,0.0,0.0,0.0,0.0,0.0,-1.0918,-1.2916,-1.454,-1.5374,-1.5367,-1.5255,-1.5187,-1.4017,-1.2541,-1.0749,0.0,0.0,0.0,0.0,0.0,0.0,0.0,0.0,0.0,0.0,0.0,0.0,0.0,0.0,0.0,0.0,0.0,0.0,0.0,0.0,0.0,0.0,0.0,0.0,0.0,0.0,0.0,0.0,0.0,0.0,0.0,0.0,0.0,0.0,0.0,0.0,0.0,0.0,0.0,0.0,0.0,0.0,0.0,0.0,0.0,0.0,0.0,0.0,0.0,0.0,0.0,0.0,0.0,0.0,0.0,0.0,0.0,0.0,0.0,0.0,0.0,0.0,0.0,0.0,0.0,0.0,0.0,0.0,0.0,0.0,0.0,0.0,0.0,0.0,0.0,0.0,0.0,0.0,0.0,0.0,0.0,0.0,0.0,0.0,0.0,0.0,0.0,0.0,0.0,0.0,0.0,0.0,0.0,0.0,0.0,0.0,0.0,0.0,0.0,0.0,0.0,0.0,-1.1609,-1.3758,-1.5384,-1.5874,-1.5746,-1.5501,-1.5243,-1.4073,-1.2633,-1.0886,0.0,0.0,0.0,0.0,0.0,0.0,0.0,0.0,0.0,0.0,0.0,0.0,0.0,0.0,0.0,0.0,0.0,0.0,0.0,0.0,0.0,0.0,0.0,0.0,0.0,0.0,0.0,0.0,0.0,0.0,0.0,0.0,0.0,0.0,0.0,0.0,0.0,0.0,0.0,0.0,0.0,0.0,0.0,0.0,0.0,0.0,0.0,0.0,0.0,0.0,0.0,0.0,0.0,0.0,0.0,0.0,0.0,0.0,0.0,0.0,-0.8808,-0.8419,0.0,0.0,0.0,0.0,0.0,0.0,0.0,0.0,0.0,0.0,0.0,0.0,0.0,0.0,0.0,0.0,0.0,0.0,0.0,0.0,0.0,0.0,0.0,0.0,0.0,0.0,0.0,0.0,0.0,0.0,0.0,0.0,0.0,0.0,0.0,0.0,0.0,0.0,0.0,0.0,-1.172,-1.377,-1.5171,-1.5276,-1.558,-1.5446,-1.4663,-1.4149,-1.3103,-1.1369,-1.0135,0.0,0.0,0.0,0.0,0.0,0.0,0.0,0.0,0.0,0.0,0.0,0.0,0.0,0.0,0.0,0.0,0.0,0.0,0.0,0.0,0.0,0.0,0.0,0.0,0.0,0.0,0.0,0.0,0.0,0.0,0.0,0.0,0.0,0.0,0.0,0.0,0.0,0.0,0.0,0.0,0.0,0.0,0.0,0.0,0.0,0.0,0.0,0.0,0.0,0.0,0.0,0.0,0.0,0.0,0.0,0.0,0.0,0.0,0.0,-1.0488,-0.977,0.0,0.0,0.0,0.0,0.0,0.0,0.0,0.0,0.0,0.0,0.0,0.0,0.0,0.0,0.0,0.0,0.0,0.0,0.0,0.0,0.0,0.0,0.0,0.0,0.0,0.0,0.0,0.0,0.0,0.0,0.0,0.0,0.0,0.0,0.0,0.0,0.0,0.0,0.0,0.0,-1.2648,-1.4597,-1.588,-1.5866,-1.5979,-1.5724,-1.4915,-1.4316,-1.3385,-1.1925,-1.0641,0.0,0.0,0.0,0.0,0.0,0.0,0.0,0.0,0.0,0.0,0.0,0.0,0.0,0.0,0.0,0.0,0.0,0.0,0.0,0.0,0.0,0.0,0.0,0.0,0.0,0.0,0.0,0.0,0.0,0.0,0.0,0.0,0.0,0.0,0.0,0.0,0.0,0.0,0.0,0.0,0.0,0.0,0.0,0.0,0.0,0.0,0.0,0.0,0.0,0.0,0.0,0.0,0.0,-1.4799,-1.5106,-1.5121,-1.5488,-1.5608,-1.5382,-1.2767,-1.1803,-1.1975,-1.0642,0.0,0.0,0.0,0.0,0.0,0.0,0.0,0.0,0.0,0.0,0.0,0.0,0.0,0.0,0.0,0.0,0.0,0.0,0.0,0.0,0.0,0.0,-1.2659,-1.2276,-1.2741,-1.275,-1.086,0.0,0.0,0.0,0.0,0.0,0.0,0.0,0.0,0.0,0.0,0.0,-1.3809,-1.5567,-1.6633,-1.6556,-1.6423,-1.603,-1.5333,-1.4606,-1.3718,-1.2615,-1.129,-1.0363,0.0,0.0,0.0,0.0,0.0,0.0,0.0,0.0,0.0,0.0,0.0,0.0,0.0,0.0,0.0,0.0,0.0,0.0,0.0,0.0,0.0,0.0,0.0,0.0,0.0,0.0,0.0,0.0,0.0,0.0,0.0,0.0,-0.7785,-0.9523,0.0,0.0,0.0,0.0,0.0,0.0,0.0,0.0,0.0,0.0,0.0,0.0,0.0,-1.5262,-1.579,-1.6948,-1.7569,-1.7641,-1.7806,-1.7873,-1.7873,-1.7943,-1.7961,-1.7929,-1.7514,0.0,-1.3869,-1.2863,0.0,0.0,0.0,0.0,0.0,0.0,0.0,0.0,0.0,0.0,0.0,0.0,0.0,0.0,0.0,0.0,0.0,0.0,0.0,0.0,0.0,0.0,-1.4624,-1.4562,-1.4635,-1.4645,-1.4345,-1.2078,-1.0077,-0.9953,-0.9435,-0.9101,0.0,0.0,0.0,0.0,0.0,0.0,-1.4594,-1.5793,-1.6358,-1.5954,-1.625,-1.612,-1.5187,-1.5016,-1.4541,-1.3587,-1.2584,-1.1809,-1.1343,-0.9981,0.0,0.0,0.0,0.0,0.0,0.0,0.0,0.0,0.0,0.0,0.0,0.0,0.0,0.0,0.0,0.0,0.0,0.0,0.0,0.0,0.0,0.0,0.0,0.0,0.0,0.0,0.0,0.0,0.0,-0.7377,-0.8632,-1.0185,-0.9921,-0.9646,0.0,0.0,0.0,0.0,0.0,0.0,0.0,0.0,0.0,-1.5098,-1.6694,-1.7837,-1.8412,-1.9227,-1.9798,-2.0108,-2.0113,-2.0141,-2.0141,-2.0141,-1.9963,-1.9646,-1.9646,-1.8786,-1.7306,-1.6104,-1.5162,-1.4387,0.0,0.0,0.0,0.0,-1.2141,-1.2223,-1.3031,-1.3134,-1.2884,-1.2822,0.0,0.0,0.0,0.0,0.0,0.0,0.0,-1.3082,-1.3375,-1.4637,-1.5839,-1.5839,-1.6092,-1.6275,-1.5918,-1.4553,-1.3162,-1.2336,-1.2087,-1.1653,-1.0553,-1.0492,0.0,0.0,0.0,-1.4104,-1.5211,-1.6019,-1.6423,-1.6216,-1.638,-1.6228,-1.5557,-1.549,-1.5217,-1.4541,-1.3598,-1.2979,-1.2797,-1.1428,-1.035,0.0,0.0,0.0,0.0,0.0,0.0,0.0,0.0,0.0,0.0,0.0,0.0,0.0,0.0,0.0,0.0,0.0,0.0,0.0,0.0,0.0,0.0,0.0,0.0,0.0,0.0,0.0,0.0,-0.881,-0.9796,-1.1269,-1.1399,-1.1423,0.0,0.0,0.0,0.0,0.0,0.0,-1.4663,-1.6513,-1.7602,-1.7653,-1.9207,-2.0277,-2.0709,-2.1412,-2.1961,-2.2334,-2.2334,-2.2334,-2.2334,-2.2334,-2.2089,-2.167,-2.167,-2.1445,-2.0926,-1.8885,-1.7702,-1.6999,-1.5929,-1.5035,-1.4384,-1.4459,-1.4414,-1.4469,-1.5504,-1.5639,-1.5308,-1.508,-1.4444,-1.3683,-1.3022,0.0,0.0,0.0,0.0,-1.4547,-1.4888,-1.5885,-1.6804,-1.6804,-1.718,-1.7393,-1.6956,-1.678,-1.6213,-1.4577,-1.4369,-1.3982,-1.2526,-1.2516,0.0,-1.3389,-1.4319,-1.5273,-1.622,-1.6572,-1.6735,-1.6735,-1.6588,-1.6358,-1.602,-1.5876,-1.5601,-1.5131,-1.4328,-1.3815,-1.3681,-1.2552,-1.1551,-1.0745,0.0,0.0,0.0,0.0,0.0,0.0,0.0,0.0,0.0,0.0,0.0,0.0,0.0,0.0,0.0,0.0,0.0,0.0,0.0,0.0,0.0,0.0,0.0,0.0,0.0,0.0,0.0,0.0,0.0,-1.3799,-1.4002,0.0,0.0,0.0,0.0,-1.5367,-1.6522,-1.7626,-1.8657,-1.9823,-2.0503,-2.0501,-2.2042,-2.292,-2.2952,-2.4048,-2.46,-2.4625,-2.4625,-2.4625,-2.4625,-2.4625,-2.4625,-2.4593,-2.4593,-2.458,-2.424,-2.0563,-1.9274,-1.9509,-1.8367,-1.7882,-1.7767,-1.7159,-1.6648,-1.6278,-1.635,-1.6361,-1.6374,-1.6748,-1.6552,-1.6226,-1.6184,-1.5853,0.0,0.0,-1.6177,-1.6841,-1.6872,-1.7234,-1.7626,-1.7626,-1.7773,-1.7857,-1.7828,-1.8352,-1.8239,-1.6184,-1.5436,-1.5397,-1.618,0.0,-1.6092,-1.7005,-1.7197,-1.7448,-1.8003,-1.7639,-1.736,-1.736,-1.6848,-1.65,-1.6466,-1.6064,-1.5601,-1.5131,-1.4628,-1.4131,-1.3627,-1.3113,-1.2637,-1.2214,-1.0394,0.0,0.0,0.0,0.0,0.0,0.0,0.0,0.0,0.0,0.0,0.0,0.0,0.0,0.0,0.0,0.0,0.0,0.0,0.0,0.0,0.0,0.0,0.0,0.0,0.0,0.0,0.0,0.0,-1.4971,-1.5852,0.0,-1.6224,-1.6857,-1.7413,-1.7792,-1.8869,-1.9849,-2.0577,-2.1656,-2.2422,-2.2799,-2.3697,-2.4186,-2.4186,-2.4587,-2.4788,-2.4788,-2.4788,-2.4788,-2.4788,-2.4788,-2.4788,-2.4788,-2.4788,-2.4788,-2.468,-2.3337,-2.2659,-2.2416,-2.1614,-2.1117,-2.0624,-1.9231,-1.8788,-1.8728,-1.7946,-1.7698,-1.7647,-1.7492,-1.7347,-1.7253,-1.7253,-1.714,-1.7005,-1.7005,-1.7203,-1.7461,-1.7461,-1.7871,-1.8282,-1.8282,-1.8952,-1.946,-1.907,-1.9527,-1.9713,-1.8603,-1.7667,-1.707,-1.711,-1.6959,-1.6961,-1.7332,-1.7689,-1.7978,-1.8179,-1.8028,-1.7777,-1.7448,-1.72,-1.6923,-1.6525,-1.6358,-1.6185,-1.601,-1.5557,-1.5209,-1.5017,-1.4279,-1.3517,-1.2774,-1.1422,-0.9897,0.0,0.0,0.0,0.0,0.0,0.0,0.0,0.0,0.0,0.0,0.0,0.0,0.0,0.0,0.0,0.0,0.0,0.0,0.0,0.0,0.0,0.0,0.0,0.0,0.0,-1.3247,-1.4826,-1.5884,-1.7347,-1.8265,-1.8205,-1.9045,-1.9811,-2.0337,-2.1091,-2.182,-2.2573,-2.3271,-2.3847,-2.4268,-2.4808,-2.5084,-2.5084,-2.5272,-2.5372,-2.5372,-2.5372,-2.5372,-2.5372,-2.5372,-2.5372,-2.5372,-2.5372,-2.5372,-2.5372,-2.5372,-2.5159,-2.475,-2.3729,-2.2935,-2.2226,-2.0801,-2.0282,-2.0166,-1.9335,-1.9065,-1.9023,-1.8701,-1.8608,-1.8577,-1.8464,-1.8423,-1.8414,-1.847,-1.8522,-1.8522,-1.8522,-1.8815,-1.9115,-1.9115,-1.9788,-2.0388,-2.0217,-2.0572,-2.0811,-2.044,-1.9458,-1.8562,-1.8246,-1.8166,-1.8167,-1.8207,-1.8505,-1.8744,-1.8744,-1.8593,-1.8318,-1.7978,-1.7765,-1.7426,-1.6861,-1.681,-1.6657,-1.6284,-1.5932,-1.5623,-1.5344,-1.4665,-1.3883,-1.2979,-1.1788,-1.036,-0.8746,0.0,0.0,0.0,0.0,0.0,0.0,0.0,0.0,0.0,0.0,0.0,0.0,0.0,0.0,0.0,0.0,0.0,0.0,0.0,0.0,0.0,0.0,0.0,-1.284,-1.497,-1.6634,-1.6713,-1.8578,-1.9886,-1.9899,-2.0453,-2.1471,-2.3032,-2.3158,-2.3647,-2.4763,-2.4813,-2.4825,-2.4838,-2.5372,-2.5649,-2.5649,-2.626,-2.6549,-2.6549,-2.6549,-2.6549,-2.6549,-2.6549,-2.6549,-2.6549,-2.6549,-2.6537,-2.6512,-2.6512,-2.6512,-2.6317,-2.4551,-2.3382,-2.2616,-2.1872,-2.1104,-2.0385,-2.0385,-2.0385,-2.0385,-2.0385,-2.042,-2.0373,-1.9983,-1.9882,-1.9926,-2.0084,-2.0172,-2.0172,-2.0129,-2.015,-2.015,-2.0107,-2.0223,-2.0511,-2.1164,-2.1395,-2.1531,-2.1518,-2.0625,-1.9867,-1.982,-1.9798,-1.9798,-1.9811,-1.9798,0.0,-1.9798,-1.9334,-1.902,-1.9008,-1.8531,-1.8003,-1.7461,-1.7375,-1.6923,-1.5869,-1.5668,-1.5232,-1.4443,-1.4205,-1.3718,-1.2905,-1.146,-1.0429,-0.984,0.0,0.0,0.0,0.0,0.0,0.0,0.0,0.0,0.0,0.0,0.0,0.0,0.0,0.0,0.0,0.0,0.0,0.0,0.0,0.0,0.0,-1.435,-1.5891,-1.5246,-1.7343,-1.9109,-1.9519,-2.0777,-2.1782,-2.2142,-2.2749,-2.3439,-2.4261,-2.4324,-2.4625,-2.5347,-2.5385,-2.5573,-2.6034,-2.654,-2.6816,-2.6816,-2.7381,-2.7657,-2.7657,-2.7657,-2.7657,-2.7657,-2.7657,-2.7657,-2.7657,-2.7657,-2.7419,-2.709,-2.709,-2.6851,-2.6393,-2.5312,-2.4763,-2.4354,-2.2728,-2.1382,-2.0385,-2.0385,-2.0385,-2.0385,-2.0385,-2.0776,-2.1237,-2.1153,-2.1502,-2.1879,-2.1348,-2.161,-2.1822,-2.0852,-2.0996,-2.1191,-2.0303,-2.0512,-2.0917,-2.1105,-2.1575,-2.1962,-2.2072,-2.1815,-2.1375,-2.0602,-2.0106,-1.9797,-1.9809,-1.9798,-1.9798,-1.9798,-1.9673,-1.9447,-1.9045,-1.887,-1.8417,-1.7486,-1.7043,-1.6525,-1.5846,-1.5457,-1.5096,-1.4777,-1.4369,-1.3649,-1.2564,-1.1612,-1.1006,0.0,0.0,0.0,0.0,0.0,0.0,0.0,0.0,0.0,0.0,0.0,0.0,0.0,0.0,0.0,0.0,0.0,0.0,0.0,0.0,0.0,0.0,-1.6488,-1.8457,-1.8305,-1.9587,-2.073,-2.1288,-2.2326,-2.3238,-2.376,-2.4111,-2.4569,-2.5109,-2.5146,-2.5385,-2.5971,-2.6176,-2.6452,-2.6826,-2.7379,-2.7632,-2.7632,-2.7946,-2.8109,-2.8109,-2.8109,-2.8109,-2.8109,-2.8109,-2.8109,-2.8109,-2.8109,-2.7921,-2.7632,-2.7632,-2.7444,-2.707,0.0,0.0,0.0,0.0,-2.2584,-2.1937,-2.1937,-2.1743,-2.1511,-2.1511,-2.1583,-2.1649,-2.1446,-2.1938,-2.2454,-2.1743,-2.2115,-2.2479,-2.137,-2.1587,-2.1854,-2.0951,-2.1187,-2.1675,-2.1749,-2.2075,-2.239,-2.2546,-2.2543,0.0,-2.1506,-2.0878,-2.0434,-2.0224,-2.0189,-2.0075,-1.9836,-1.9798,-1.9685,-1.9359,-1.9334,-1.897,-1.8058,-1.7488,0.0,0.0,0.0,-1.534,-1.5052,-1.4238,0.0,0.0,0.0,0.0,0.0,-1.2173,0.0,0.0,-1.204,-1.2104,0.0,0.0,0.0,0.0,0.0,0.0,0.0,0.0,0.0,0.0,0.0,0.0,0.0,0.0,0.0,0.0,-1.8635,-2.1074,-2.1517,-2.1713,-2.1977,-2.2505,-2.3455,-2.4305,-2.4825,-2.4876,-2.5121,-2.5649,-2.5749,-2.6013,-2.6562,-2.7115,0.0,0.0,0.0,-2.8197,-2.8197,-2.826,-2.8298,-2.8298,-2.8298,-2.8298,-2.8298,-2.8298,-2.8298,-2.8298,-2.8298,-2.826,-2.8197,-2.8197,-2.816,-2.7996,-2.6884,-2.5972,-2.5171,-2.4396,-2.4108,-2.4108,-2.4108,0.0,0.0,-2.3001,-2.2515,-2.1838,-2.1422,-2.1801,-2.233,-2.1762,-2.2214,-2.2662,-2.1845,-2.2112,-2.2468,-2.1911,-2.2138,-2.2506,-2.2658,-2.2672,-2.2708,-2.286,-2.2909,-2.2777,-2.2439,-2.1945,-2.1393,-2.0867,-2.0779,-2.0578,-1.9948,-1.9873,-1.9848,-1.9759,-1.9759,0.0,-1.8821,-1.8301,-1.7698,-1.7053,-1.6303,-1.5732,-1.5307,-1.4194,-1.3701,-1.3938,-1.3595,-1.3826,-1.4665,-1.5016,-1.5521,-1.6098,-1.391,-1.3841,0.0,0.0,0.0,0.0,0.0,0.0,0.0,0.0,0.0,0.0,0.0,0.0,0.0,0.0,0.0,-1.8422,-2.04,-2.2073,-2.317,-2.3793,-2.4209,-2.4309,-2.4498,-2.487,-2.5398,-2.5448,-2.5686,-2.6285,-2.6738,-2.7005,-2.7153,-2.7645,-2.7946,-2.7946,-2.8486,-2.8737,-2.8737,-2.9227,-2.9465,-2.9465,-2.9465,0.0,-2.9465,-2.9465,-2.9465,-2.9465,-2.9465,-2.9202,-2.8737,-2.8737,-2.8511,-2.7961,-2.6675,-2.5719,-2.4964,-2.4342,-2.4108,-2.4108,-2.4108,-2.3632,-2.3001,-2.3001,-2.2793,-2.2499,-2.2403,-2.2805,0.0,-2.2412,-2.322,-2.4025,-2.2799,-2.3514,-2.4275,-2.3144,-2.2981,-2.294,-2.255,-2.2443,-2.2547,-2.2831,-2.2909,-2.2871,-2.2802,-2.2435,-2.197,-2.1446,-2.1358,-2.1102,-2.0443,-2.0353,-2.0152,-1.9536,-1.9486,-1.9251,-1.8683,-1.8198,-1.7659,-1.7038,-1.5966,-1.554,-1.592,-1.5527,-1.5367,-1.548,-1.5813,-1.6063,-1.6264,-1.633,-1.6857,-1.7735,-1.6465,-1.6089,0.0,0.0,0.0,0.0,0.0,0.0,0.0,0.0,0.0,0.0,0.0,-1.4328,-1.5737,0.0,-1.8546,-2.0443,-2.1472,-2.2564,-2.4001,-2.4469,-2.4781,-2.5144,-2.5209,-2.5423,-2.6009,-2.6059,-2.6298,-2.6864,-2.7165,-2.7406,-2.7682,-2.8222,-2.8511,-2.8511,-2.9063,-2.9365,-2.9365,-2.9641,-2.9792,-2.9792,-2.9792,-2.9792,-2.9792,-2.9792,-2.9792,-2.9792,-2.9792,-2.9628,-2.9365,-2.9365,-2.9202,-2.885,-2.7866,-2.7102,-2.6528,-2.6214,-2.6106,-2.607,-2.5805,-2.5216,-2.4524,-2.4235,-2.3804,-2.339,-2.3327,-2.3829,-2.4204,-2.3265,-2.3888,-2.4589,-2.3437,-2.3668,-2.4085,-2.3559,-2.3385,-2.3244,-2.3119,-2.3111,-2.3086,-2.3076,-2.304,-2.288,-2.234,-2.2389,-2.2342,-2.1881,-2.1695,-2.1468,-2.0921,-2.0804,-2.0511,-1.9875,-1.9799,-1.9564,-1.8947,-1.8106,-1.7359,-1.6786,-1.6177,-1.5985,-1.63,-1.6275,-1.6275,-1.6289,-1.6537,-1.6925,-1.75,-1.769,-1.835,-1.9384,-1.8878,-1.851,0.0,0.0,0.0,0.0,0.0,0.0,0.0,0.0,-1.3063,-1.4545,-1.5769,-1.7019,-1.8436,-1.9444,-2.0522,-2.2121,-2.249,-2.3098,-2.4544,-2.4812,-2.5052,-2.548,-2.5695,-2.5984,-2.6449,-2.6587,-2.6839,-2.7291,-2.7482,-2.7795,-2.8247,-2.88,-2.9051,-2.9051,-2.9553,-2.9792,-2.9792,-2.9792,-2.9792,-2.9792,-2.9792,-2.9792,-2.9792,-2.9792,-2.9792,-2.9792,-2.9792,-2.9792,-2.9792,-2.9792,-2.9792,-2.9741,-2.9239,-2.8825,-2.8411,-2.8185,-2.8109,-2.8047,-2.7595,-2.6796,-2.5872,-2.5492,-2.4638,-2.3769,-2.3616,-2.4171,-2.4632,-2.3615,-2.4082,-2.4683,-2.39,-2.3582,-2.3517,-2.372,-2.3534,-2.3338,-2.3461,-2.3502,-2.337,-2.2968,-2.2919,-2.2703,-2.1839,-2.2221,-2.25,-2.2075,-2.2002,-2.1805,-2.1338,-2.119,-2.0896,-2.033,-2.0269,-2.0034,-1.9364,-1.8378,-1.7557,-1.7023,-1.6887,-1.685,-1.6989,-1.6965,-1.6997,-1.7099,-1.7133,-1.7609,-1.8525,-1.9002,-1.9717,-2.0603,-2.0706,-2.0478,-1.1399,-1.0967,-1.1202,-1.2093,-1.2706,-1.3859,0.0,0.0,-1.7095,-1.9555,-2.0061,-2.0291,-2.1038,-2.1598,-2.2366,-2.381,-2.4031,-2.436,-2.5096,-2.5822,-2.6042,-2.5391,-2.5961,-2.6424,-2.6487,-2.6939,-2.7253,-2.7316,-2.8185,-2.8737,-2.88,-2.9377,-2.9691,-2.9691,-2.9754,-2.9792,-2.9792,-2.9792,-2.9792,-2.9792,-2.9792,-2.9792,-2.9792,-2.9792,-2.9792,-2.9792,-2.9792,-2.9792,-2.9792,-2.9792,-2.9792,-2.9779,-2.9729,-2.9654,-2.9478,-2.8473,-2.8109,-2.8097,-2.8034,-2.6854,-2.5417,-2.5524,-2.4264,-2.2655,-2.2453,-2.2805,-2.3111,-2.2471,-2.3338,-2.4409,-2.412,-2.4011,-2.4036,-2.4051,-2.3531,-2.2923,-2.2485,-2.2375,-2.2267,-2.1862,-2.1957,-2.212,-2.1985,-2.223,-2.2261,-2.1732,-2.2188,-2.2365,-2.1665,-2.1533,-2.1285,-2.0624,-2.0564,-2.0318,-1.9787,-1.9609,-1.929,-1.8737,-1.8227,-1.8147,-1.8701,-1.8108,-1.8007,-1.8553,-1.8959,-1.9256,-1.9371,-2.0063,-2.0493,-2.0622,-2.1103,-2.1031,-1.4438,-1.4485,-1.4862,-1.5687,-1.6157,-1.6928,-1.8865,-1.8606,-1.854,-2.0696,-2.1192,-2.1625,-2.2947,-2.304,-2.3546,-2.5274,-2.4331,-2.3975,-2.5744,-2.5476,-2.5203,-2.5431,-2.608,-2.6612,-2.6939,-2.719,-2.7544,-2.8197,-2.8662,-2.9038,-2.9415,-2.9666,-2.9792,-2.9792,-2.9792,-2.9792,-2.9792,-2.9792,-2.9792,-2.9792,-2.9792,-2.9792,-2.9792,-2.9792,-2.9792,-2.9792,-2.9792,-2.9792,-2.9792,-2.9792,-2.9792,-2.9792,-2.9792,-2.9792,-2.9729,-2.9264,-2.9089,-2.9038,-2.8699,-2.7988,-2.7196,-2.6946,-2.5827,-2.4569,-2.4393,-2.4199,-2.3896,-2.3182,-2.3523,-2.4007,-2.3567,-2.3132,-2.2861,-2.3353,-2.2872,-2.2494,-2.3159,-2.3307,-2.3293,-2.3294,-2.3382,-2.3236,-2.2531,-2.2613,-2.2535,-2.1882,-2.2135,-2.2317,-2.2086,-2.2001,-2.1705,-2.1145,-2.0779,-2.0502,-2.0286,-1.9937,-1.9643,-1.942,-1.917,-1.9142,-1.9409,-1.9453,-1.9598,-1.9823,-2.0046,-2.0294,-2.06,-2.092,-2.1235,-2.1536,-2.1765,-2.1909,-1.6617,-1.7072,-1.7534,-1.8409,-1.9049,-1.9744,-2.0771,-2.0424,-2.0388,-2.2263,-2.2576,-2.2999,-2.448,-2.4449,-2.4707,-2.6176,-2.498,-2.4438,-2.5933,-2.5456,-2.5052,-2.5481,-2.6099,-2.6713,-2.7266,-2.7419,-2.7846,-2.8599,-2.895,-2.9352,-2.9767,-2.9792,-2.9792,-2.9792,-2.9792,-2.9792,-2.9792,-2.9792,-2.9792,-2.9792,-2.9792,-2.9792,-2.9792,-2.9792,-2.9792,-2.9792,-2.9792,-2.9753,-2.9702,-2.9702,-2.9534,-2.926,-2.926,-2.9091,-2.8882,-2.8882,-2.9131,-2.9355,-2.8651,-2.8067,-2.7594,-2.7287,-2.636,-2.5334,-2.5223,-2.493,-2.4544,-2.4056,-2.4045,-2.4186,-2.3913,-2.3156,-2.2574,-2.3169,-2.2686,-2.2435,-2.3573,-2.3793,-2.3861,-2.405,-2.4153,-2.3906,-2.304,-2.2879,-2.2716,-2.2154,-2.2224,-2.2321,-2.2333,-2.2247,-2.2041,-2.1668,-2.1272,-2.0995,-2.0839,-2.0435,-2.0099,-1.996,-1.9948,-1.9948,-1.9948,-2.0299,-2.0528,-2.0523,-2.0665,-2.0926,-2.1336,-2.153,-2.1825,-2.2197,-2.2342,-2.2618,-1.7062,-1.7486,-1.8008,-1.9327,-2.0786,-2.219,-2.3323,-2.3292,-2.3641,-2.5622,-2.5299,-2.4874,-2.5699,-2.6002,-2.6131,-2.6213,-2.6578,-2.6513,-2.549,-2.6246,-2.6524,-2.5419,-2.6013,-2.6713,-2.7266,-2.777,-2.8097,-2.8134,-2.9151,-2.9779,-2.9792,-2.9792,-2.9792,-2.9792,-2.9792,-2.9792,-2.9792,-2.9792,-2.9792,-2.9792,-2.9792,-2.9792,-2.9792,-2.9792,-2.9792,-2.9792,-2.9792,-2.965,-2.9419,-2.9419,-2.8806,-2.7851,-2.7851,-2.7354,-2.6607,-2.6607,-2.7424,-2.8422,-2.7493,-2.6284,-2.5262,-2.5483,-2.466,-2.3547,-2.334,-2.3753,-2.4358,-2.4598,-2.4849,-2.5224,-2.585,-2.5011,-2.4036,-2.4047,-2.35,-2.2995,-2.3021,-2.3032,-2.3021,-2.3047,-2.3253,-2.342,-2.3374,-2.296,-2.2582,-2.2582,-2.257,-2.2493,-2.2224,-2.2197,-2.2185,-2.2173,-2.2149,-2.1945,-2.1416,-2.135,-2.1134,-2.0617,-2.0553,-2.0553,-2.0553,-2.0414,-2.0324,-2.0324,-2.0805,-2.1089,-2.1112,-2.1839,-2.2173,-2.2209,-2.2714,-2.2999,-1.8638,-1.983,-2.1129,-2.2702,-2.3357,-2.3917,-2.4935,-2.4378,-2.3963,-2.505,-2.4506,-2.3943,-2.4263,-2.4431,-2.462,-2.4892,-2.5336,-2.5742,-2.59,-2.6516,-2.6589,-2.5617,-2.6402,-2.6813,-2.6226,-2.7005,-2.7858,-2.8562,-2.9001,-2.939,-2.9779,-2.9792,-2.9792,-2.9792,-2.9792,-2.9792,-2.9792,-2.9792,-2.9792,-2.9792,-2.9792,-2.9792,-2.9792,-2.9792,-2.9495,-2.8922,-2.8922,-2.8462,-2.7706,-2.8291,-2.7919,-2.6976,-2.7557,-2.7261,-2.6431,-2.5797,-2.6254,-2.7139,-2.6812,-2.6295,-2.5786,-2.587,-2.5515,-2.501,-2.4945,-2.5091,-2.5274,-2.5092,-2.509,-2.5155,-2.5052,-2.4067,-2.3106,-2.3106,-2.2251,-2.1538,-2.2096,-2.2209,-2.236,-2.292,-2.3084,-2.312,-2.312,-2.2684,-2.2391,-2.256,-2.1868,-2.1676,-2.2623,-2.2001,-2.1663,-2.2154,-2.2197,-2.2125,-2.1945,-2.1921,-2.1849,-2.1668,-2.1668,-2.1668,-2.1668,-2.1611,-2.1571,-2.1571,-2.1737,-2.1831,-2.1831,-2.244,-2.2746,-2.2727,-2.3288,-2.3722,-2.0217,-2.17,-2.319,-2.47,-2.5132,-2.5387,-2.5998,-2.5238,-2.4483,-2.4655,-2.3874,-2.3172,-2.3255,-2.3146,-2.3381,-2.4303,-2.4969,-2.5584,-2.6357,-2.7066,-2.7226,-2.6479,-2.7107,-2.7293,-2.6565,-2.7155,-2.7871,-2.8549,-2.8976,-2.9402,-2.9779,-2.9792,-2.9792,-2.9792,-2.9792,-2.974,-2.965,-2.965,-2.9456,-2.9091,-2.9091,-2.8922,-2.8633,-2.8633,-2.8343,-2.7799,-2.8131,-2.7799,-2.7139,-2.7971,-2.773,-2.6823,-2.7366,-2.7028,-2.6152,-2.5221,-2.5473,-2.6235,-2.608,-2.6069,-2.6141,-2.6141,-2.5986,-2.5735,-2.5411,-2.5326,-2.5262,-2.5015,-2.48,-2.4689,-2.4698,-2.3917,-2.3182,-2.3182,-2.2783,-2.2405,-2.2429,-2.2907,-2.3266,-2.3027,-2.3206,-2.3316,-2.3069,-2.2475,-2.2135,-2.2298,-2.1239,-2.1116,-2.304,-2.2577,-2.2069,-2.2096,-2.2104,-2.1926,-2.1486,-2.1663,-2.18,-2.18,-2.2061,-2.2092,-2.1819,-2.2061,-2.2176,-2.2092,-2.2336,-2.257,-2.2763,-2.3132,-2.33,-2.3312,-2.3797,-2.4206,-2.1732,-2.3037,-2.4179,-2.5339,-2.6084,-2.6487,-2.6461,-2.5818,-2.5078,-2.4471,-2.3399,-2.2573,-2.265,-2.2194,-2.2434,-2.4335,-2.5292,-2.6093,-2.6863,-2.7879,-2.8362,0.0,0.0,-2.8098,-2.8073,-2.8098,-2.811,-2.811,-2.9139,-2.9767,-2.9792,-2.9792,-2.9792,-2.9753,-2.9753,-2.965,-2.938,-2.9341,-2.8767,-2.7718,-2.7758,-2.7395,-2.6565,-2.6565,-2.6565,-2.6595,-2.7383,-2.7637,-2.7504,-2.8383,-2.8063,-2.7062,-2.7103,-2.6547,-2.5568,-2.4744,-2.4988,-2.5663,-2.5316,-2.5569,-2.6102,-2.6102,-2.5924,-2.5568,-2.4744,-2.4541,-2.4584,-2.4584,-2.4188,-2.4013,-2.4908,-2.4632,-2.4194,-2.4313,-2.4893,-2.507,-2.3831,-2.4762,-2.5269,-2.3301,-2.3438,-2.3708,-2.2984,-2.2285,-2.1794,-2.1794,-2.084,-2.0985,-2.3421,-2.3673,-2.316,-2.2006,-2.1883,-2.1426,-2.0314,-2.0788,-2.114,-2.1172,-2.1777,-2.184,-2.114,-2.1777,-2.2076,-2.1883,-2.2571,-2.3203,-2.3727,-2.3763,-2.3809,-2.3854,-2.4326,-2.452,-2.3153,-2.4324,-2.5314,-2.6097,-2.6386,-2.6352,-2.5722,-2.5045,-2.4181,-2.2825,-2.1562,-2.0474,-1.9748,-2.0086,-2.0885,-2.2086,-2.3645,0.0,-2.66,-2.7509,0.0,-2.7829,0.0,-2.8076,-2.7706,-2.8027,-2.8236,-2.8236,-2.8799,-2.9251,-2.9496,-2.9509,-2.9443,-2.93,-2.93,-2.926,-2.9157,-2.8542,-2.7747,-2.6853,-2.7476,-2.7678,-2.7476,-2.7476,-2.7476,-2.7435,-2.7017,-2.6741,-2.6599,-2.7458,-2.6794,-2.5253,-2.5913,-2.52,-2.3767,-2.356,-2.4026,-2.4829,-2.4712,-2.4797,-2.4914,-2.4914,-2.4872,-2.4787,-2.4584,-2.4956,-2.5453,-2.5453,-2.5367,-2.5478,-2.6397,-2.5295,-2.4234,-2.5576,-2.4352,-2.292,-2.3238,-2.2856,-2.23,-2.1777,-2.158,-2.1423,-2.1242,-2.1538,-2.1794,-2.1794,-2.2504,-2.295,-2.265,-2.178,-2.1298,-2.149,-2.1513,-2.164,-2.1924,-2.1575,-2.1575,-2.2193,-2.1812,-2.1507,-2.1337,-2.1507,-2.1563,-2.1548,-2.173,-2.2162,-2.2899,-2.3305,-2.3767,-2.4338,-2.4867,-2.5107,-2.4362,-2.5322,-2.6084,-2.6411,-2.6298,-2.5875,-2.4953,-2.3995,-2.2812,-2.0946,-1.9724,-1.869,-1.7701,-1.8457,-1.9664,0.0,0.0,0.0,-2.67,-2.7775,-2.8325,0.0,-2.8491,0.0,-2.822,-2.8465,-2.8637,-2.8637,-2.8869,-2.9082,-2.9263,-2.8897,-2.8661,-2.8554,-2.8171,-2.7879,-2.7787,-2.7221,-2.6689,-2.6193,-2.6689,-2.6935,-2.6935,-2.6935,-2.6935,-2.6894,-2.64,-2.6121,-2.6049,-2.6547,-2.6091,-2.5115,-2.561,-2.5189,-2.4274,-2.4274,-2.4616,-2.5084,-2.5084,-2.4829,-2.4584,-2.4956,-2.5084,-2.4988,-2.4627,-2.4829,-2.5158,-2.4734,-2.4606,-2.4734,-2.5242,-2.4461,-2.3735,-2.4764,-2.4002,-2.2994,-2.2917,-2.288,-2.2686,-2.2141,-2.155,-2.1124,-2.0889,-2.1242,-2.1474,-2.131,-2.201,-2.2328,-2.1601,-2.1769,-2.1801,-2.1321,-2.1264,-2.1225,-2.1164,-2.1002,-2.1096,-2.1551,-2.1457,-2.1247,-2.0931,-2.1247,-2.152,-2.1797,-2.2114,-2.2797,-2.3792,-2.4085,-2.4436,-2.4879,-2.5168,-2.5312,-2.5402,-2.6076,-2.6499,-2.643,-2.5941,-2.5209,-2.4067,-2.2767,-2.116,-1.907,0.0,-1.7092,-1.6283,-1.7156,-1.867,-2.0688,0.0,-2.509,-2.6918,-2.8112,-2.877,-2.8791,-2.8922,-2.8973,-2.8855,-2.8855,-2.8803,-2.8673,-2.8673,-2.8724,-2.8882,-2.8051,-2.7637,-2.773,-2.6976,-2.6472,-2.6243,-2.5933,-2.5777,-2.5777,-2.5913,-2.5997,-2.5986,-2.5861,-2.5872,-2.5955,-2.5746,-2.5694,-2.5777,-2.5777,-2.5746,-2.5621,-2.5621,-2.5526,-2.5442,-2.5442,-2.5442,-2.5442,-2.5442,-2.4946,-2.4456,-2.5326,-2.5526,-2.5284,-2.4531,-2.4327,-2.4155,-2.3353,-2.3091,-2.3135,-2.3266,-2.3178,-2.3178,-2.3387,-2.3897,-2.401,-2.3008,-2.3773,-2.4328,-2.3165,-2.2359,-2.1768,-2.1346,-2.1229,-2.1064,-2.0752,-2.0722,-2.0712,-2.0605,-2.2376,-2.2956,-2.1207,-2.1018,-2.0642,-1.9703,-2.0054,-2.0396,-2.0504,-2.1005,-2.1005,-2.037,-2.0934,-2.1553,-2.206,-2.2695,-2.3624,-2.4826,-2.4826,-2.4898,-2.4981,-2.4981,-2.5016,-2.5946,-2.6286,-2.643,-2.6084,-2.5464,-2.4573,-2.3226,-2.1391,0.0,0.0,-1.6306,-1.5425,-1.5266,-1.6125,-1.77,-2.0262,-2.1514,-2.335,-2.6735,-2.7005,-2.7352,0.0,-2.8697,-2.8339,-2.7592,-2.7551,-2.7203,-2.6442,-2.6359,-2.6771,-2.7718,-2.6912,-2.6678,-2.7296,-2.7174,-2.7051,-2.6999,-2.6205,-2.5777,-2.5819,-2.6588,-2.6969,-2.6928,-2.6163,-2.6205,-2.6887,-2.5379,-2.5115,-2.5777,-2.5777,-2.5368,-2.4744,-2.4744,-2.4241,-2.356,-2.356,-2.356,-2.356,-2.356,-2.3474,-2.3517,-2.4402,-2.4198,-2.356,-2.3387,-2.3343,-2.3309,-2.3135,-2.3091,-2.3266,-2.4079,-2.3691,-2.3474,-2.4988,-2.4317,-2.3497,-2.4021,-2.3503,-2.2752,-2.2211,-2.2009,-2.1865,-2.1787,-2.1475,-2.1171,-2.1093,-2.1367,-2.1346,-2.0683,-2.0982,-2.1058,-2.0719,-2.0681,-2.0871,-2.1312,-2.0857,-2.0819,-2.149,-2.1047,-2.0677,-2.0562,-2.0677,-2.0783,-2.0901,-2.1016,-2.1532,-2.2424,-2.2424,-2.2761,-2.339,-2.339,-2.3586,-2.5936,-2.6188,-2.6258,-2.598,-2.5012,-2.3703,-2.2167,0.0,0.0,0.0,-1.5099,-1.455,-1.4273,-1.5514,0.0,-1.8674,-2.0145,-2.2185,-2.5358,-2.5813,-2.6543,-2.8409,-2.8538,-2.8339,-2.7926,-2.7886,-2.7672,-2.7244,-2.6794,-2.6794,-2.7325,-2.6905,-2.6607,-2.6505,-2.6464,-2.6464,-2.6464,-2.5579,-2.5368,-2.5777,-2.5788,-2.6038,-2.6464,-2.5997,-2.6038,-2.6423,-2.5084,-2.4744,-2.5073,-2.4616,-2.4155,-2.3777,-2.3777,-2.3484,-2.3178,-2.3647,-2.3517,-2.3178,-2.3647,-2.3517,-2.3178,-2.3647,-2.3474,-2.3091,-2.3091,-2.3091,-2.3091,-2.3091,-2.3091,-2.3222,-2.3647,-2.343,-2.3299,-2.4188,-2.3724,-2.3222,-2.3691,-2.3282,-2.2783,-2.2578,-2.2539,-2.2471,-2.2246,-2.2041,-2.1826,-2.1611,-2.1739,-2.163,-2.0977,-2.0908,-2.082,-2.0625,-2.0605,-2.076,-2.1126,-2.0828,-2.075,-2.1165,-2.0828,-2.0605,-2.0605,-2.0605,-2.0789,-2.1203,-2.1242,-2.1614,-2.2424,-2.2643,-2.3178,-2.3992,-2.3732,-2.4215,-2.5603,-2.5894,-2.6097,-2.584,-2.4529,-2.2911,-2.1272,-1.9005,0.0,0.0,-1.4017,-1.3763,-1.3584,0.0,-1.6438,0.0,-1.9068,-2.1164,-2.373,-2.4799,-2.5912,0.0,-2.8187,0.0,-2.7966,-2.8087,-2.8139,-2.7926,-2.747,-2.7103,-2.6928,-2.7092,-2.6846,-2.6121,-2.5902,-2.5913,-2.608,-2.5041,-2.4956,-2.5788,-2.5115,-2.5115,-2.5777,-2.561,-2.5537,-2.5453,-2.4573,-2.4198,-2.4155,-2.3387,-2.3091,-2.3091,-2.3091,-2.3091,-2.3178,-2.395,-2.3734,-2.3222,-2.394,-2.3734,-2.3091,-2.3091,-2.3091,-2.3091,-2.3091,-2.3091,-2.3091,-2.3091,-2.3091,-2.3091,-2.3091,-2.3091,-2.3091,-2.3091,-2.3091,-2.3091,-2.3091,-2.3091,-2.3091,-2.3091,-2.3091,-2.2994,-2.2662,-2.2568,-2.2402,-2.207,-2.1943,-2.1768,-2.1416,-2.1337,-2.124,-2.0928,-2.0723,-2.0605,-2.0605,-2.0605,-2.0605,-2.0605,-2.0605,-2.0644,-2.0703,-2.0752,-2.1055,-2.1796,-2.1979,-2.2325,-2.2783,-2.3465,-2.3947,-2.4242,-2.4057,-2.4769,-2.4944,-2.5391,-2.5828,-2.5453,-2.4037,-2.2408,-2.095,0.0,-1.5325,-1.4038,-1.2981,-1.2572,-1.3511,-1.4141,-1.5293,0.0,0.0,-1.9999,-2.2428,-2.4247,-2.5355,-2.5494,0.0,0.0,-2.6205,-2.6835,-2.6969,-2.611,-2.6753,-2.6846,-2.5955,-2.6753,-2.7144,-2.7051,-2.6246,-2.6205,-2.7051,-2.5379,-2.4956,-2.5777,-2.5704,-2.5735,-2.5777,-2.4999,-2.4627,-2.4584,-2.3647,-2.3222,-2.3222,-2.3144,-2.3091,-2.3091,-2.3091,-2.3091,-2.3091,-2.3178,-2.3178,-2.3091,-2.3178,-2.3178,-2.3091,-2.3091,-2.3091,-2.3091,-2.3091,-2.3091,-2.3091,-2.3091,-2.3091,-2.3091,-2.3091,-2.3091,-2.3091,-2.3091,-2.3091,-2.3091,-2.3091,-2.3091,-2.3091,-2.3091,-2.3091,-2.3081,-2.3042,-2.2721,-2.25,-2.2461,-2.2129,-2.1875,-2.1836,-2.1826,-2.1807,-2.1768,-2.1085,-2.0605,-2.0605,-2.0605,-2.0605,-2.0605,-2.0605,-2.0752,-2.1112,-2.1132,-2.1398,-2.1871,-2.2666,-2.2706,-2.2004,-2.361,-2.3631,-2.2176,-2.293,-2.3563,-2.4413,-2.517,-2.5568,-2.4985,-2.3594,-2.2007,-2.0458,0.0,-1.5075,-1.4231,-1.3007,-1.2498,-1.3828,-1.4177,-1.474,0.0,0.0,0.0,-1.9691,-2.1152,-2.2606,-2.4292,-2.6285,-2.7321,-2.6696,-2.747,-2.7592,-2.6712,-2.6969,-2.6794,-2.5872,-2.667,-2.6928,-2.6381,-2.5986,-2.5986,-2.6329,-2.5126,-2.4659,-2.4999,-2.4445,-2.4188,-2.4145,-2.381,-2.3647,-2.3647,-2.3266,-2.3091,-2.3091,-2.3091,-2.3091,-2.3091,-2.3091,-2.3091,-2.3091,-2.3091,-2.3091,-2.3091,-2.3091,-2.3091,-2.3091,-2.3091,-2.3091,-2.3091,-2.3091,-2.3091,-2.3091,-2.3091,-2.3091,-2.3091,-2.3091,-2.3091,-2.3091,-2.3091,-2.3091,-2.3091,-2.3091,-2.3091,-2.3091,-2.3091,-2.3091,-2.3091,-2.3091,-2.2955,-2.2847,-2.2847,-2.2701,-2.2549,-2.2295,-2.2266,-2.2168,-2.1914,-2.1572,-2.1398,-2.1398,-2.1398,-2.1398,-2.1398,-2.1398,-2.1435,-2.1621,-2.1621,-2.1709,-2.1885,-2.2236,-2.2246,-2.1885,-2.2857,-2.3227,-2.3071,-2.3125,-2.3791,-2.3292,-2.4319,-2.4943,-2.4432,-2.2991,-2.1398,0.0,-1.7196,-1.467,-1.4227,-1.2949,-1.232,-1.3638,-1.4118,-1.4422,-1.4801,-1.5131,-1.6014,-1.7911,-1.9252,-2.0805,-2.2855,-2.5191,-2.6602,-2.6405,-2.7457,-2.7765,-2.6835,-2.6805,-2.6381,-2.5453,-2.6038,-2.6216,-2.5819,-2.5526,-2.5411,-2.5411,-2.4531,-2.4079,-2.4069,-2.344,-2.3091,-2.3091,-2.3091,-2.3091,-2.3091,-2.3091,-2.3091,-2.3091,-2.3091,-2.3091,-2.3091,-2.3091,-2.3091,-2.3091,-2.3091,-2.3091,-2.3091,-2.3091,-2.3091,-2.3091,-2.3091,-2.3091,-2.3091,-2.3091,-2.3091,-2.3091,-2.3091,-2.3091,-2.3091,-2.3091,-2.3091,-2.3091,-2.3091,-2.3091,-2.3091,-2.3091,-2.3091,-2.3091,-2.3091,-2.3091,-2.3091,-2.3091,-2.3091,-2.3091,-2.3091,-2.3091,-2.2984,-2.2691,-2.2705,-2.2588,-2.2295,-2.2256,-2.2158,-2.1904,-2.1885,-2.1885,-2.1885,-2.1885,-2.1943,-2.207,-2.207,-2.2129,-2.2256,-2.255,-2.254,-2.2256,-2.308,-2.3517,-2.3601,-2.3541,-2.4198,-2.144,-2.2582,-2.3818,-2.3806,-2.2204,-2.047,-1.9929,-1.6766,-1.388,-1.3725,-1.2535,-1.1782,-1.2733,-1.3671,-1.4299,-1.4302,-1.5205,0.0,-1.7707,-1.9455,-2.0698,0.0,-2.405,-2.5706,-2.4641,-2.6136,-2.6835,-2.5872,-2.5819,-2.5453,-2.4584,-2.4531,-2.4914,-2.5777,-2.4956,-2.4498,-2.4498,-2.356,-2.3091,-2.3091,-2.3091,-2.3091,-2.3091,-2.3091,-2.3091,-2.3091,-2.3091,-2.3091,-2.3091,-2.3091,-2.3091,-2.3091,-2.3091,-2.3091,-2.3091,-2.3091,-2.3091,-2.3091,-2.3091,-2.3091,-2.3091,-2.3091,-2.3091,-2.3091,-2.3091,-2.3091,-2.3091,-2.3091,-2.3091,-2.3091,-2.3091,-2.3091,-2.3091,-2.3091,-2.3091,-2.3091,-2.3091,-2.3091,-2.3091,-2.3091,-2.3091,-2.3091,-2.3091,-2.3091,-2.3091,-2.3091,-2.3091,-2.3091,-2.3091,-2.3091,-2.3091,-2.3081,-2.3081,-2.275,-2.1953,-2.1885,-2.1885,-2.1885,-2.1885,-2.207,-2.249,-2.251,-2.2705,-2.3071,-2.4016,-2.4016,-2.3081,-2.4893,-2.4851,-2.3135,-2.4069,-2.4498,-1.9552,-2.0687,-2.1446,-2.0711,-1.9761,-1.8779,-1.783,-1.5404,-1.339,-1.3525,-1.2461,-1.1788,-1.2732,-1.367,-1.4397,-1.468,-1.5992,-1.7021,0.0,0.0,0.0,-2.1225,-2.4566,-2.6718,-2.6399,-2.6868,-2.6547,-2.5041,-2.4914,-2.4488,-2.3604,-2.3517,-2.3691,-2.394,-2.3691,-2.371,-2.4018,-2.3717,-2.373,-2.4014,-2.4014,-2.4014,-2.4014,-2.4014,-2.3857,-2.3584,-2.3584,-2.3418,-2.3091,-2.3091,-2.3091,-2.3091,-2.3091,-2.3091,-2.3091,-2.3091,-2.3091,-2.3091,-2.3091,-2.3091,-2.3091,-2.3091,-2.3091,-2.3091,-2.3091,-2.3091,-2.3091,-2.3091,-2.3091,-2.3091,-2.3091,-2.3091,-2.3091,-2.3091,-2.3091,-2.3091,-2.3091,-2.3091,-2.3091,-2.3091,-2.3091,-2.3091,-2.3091,-2.3091,-2.3091,-2.3091,-2.3091,-2.3091,-2.3091,-2.3091,-2.3091,-2.3091,-2.3091,-2.2984,-2.2721,-2.2744,-2.2744,-2.2744,-2.2744,-2.276,-2.2886,-2.2896,-2.2955,-2.3091,-2.3387,-2.3396,-2.3091,-2.3691,-2.3647,-2.3101,-2.3387,-2.3517,-1.7351,-1.871,-1.9489,-1.8643,-1.805,-1.7381,-1.636,-1.4384,-1.2889,-1.3213,-1.2215,-1.1656,-1.2895,-1.3483,-1.3918,-1.4334,-1.5651,-1.668,-1.6896,0.0,-2.075,-2.2027,-2.4559,-2.6105,-2.5886,-2.6063,-2.5589,-2.4069,-2.3983,-2.3734,-2.3135,-2.3091,-2.3091,-2.3091,-2.3091,-2.3227,-2.3545,-2.3711,-2.3926,-2.418,-2.4346,-2.4414,-2.4414,-2.4414,-2.4277,-2.4033,-2.4033,-2.3779,0.0,-2.3344,-2.3247,-2.3091,-2.3091,-2.3091,-2.3091,-2.3091,-2.3091,-2.3091,-2.3091,-2.3091,-2.3091,-2.3091,-2.3091,-2.3091,-2.3091,-2.3091,-2.3091,-2.3091,-2.3091,-2.3091,-2.3091,-2.3091,-2.3091,-2.3091,-2.3091,-2.3091,-2.3091,-2.3091,-2.3091,-2.3091,-2.3091,-2.3091,-2.3091,-2.3091,-2.3091,-2.3091,-2.3091,-2.3091,-2.3091,-2.3091,-2.3091,-2.3091,-2.3091,-2.3091,-2.3091,-2.3091,-2.3091,-2.3091,-2.3091,-2.3091,-2.3091,-2.3091,-2.3091,-2.3091,-2.3091,-2.3091,-2.3091,-2.3091,-2.3091,-2.3091,-2.3091,-2.3091,0.0,-1.6691,-1.7804,-1.7303,-1.6761,-1.6161,-1.5282,-1.3608,0.0,-1.2758,-1.1804,-1.1448,-1.3238,-1.32,-1.3119,-1.3744,-1.4738,-1.5838,-1.704,-1.8562,-2.0551,-2.334,-2.4224,-2.4392,-2.3909,-2.425,-2.4112,-2.3178,-2.3091,-2.3091,-2.3091,-2.3091,-2.3091,-2.3091,-2.3091,-2.312,-2.3188,-2.3633,-2.3867,-2.3935,-2.4326,-2.4512,-2.4512,-2.4512,-2.4492,-2.4463,-2.4463,-2.4228,-2.3828,-2.3799,-2.3555,-2.314,-2.311,-2.3091,-2.3091,-2.3091,-2.3091,-2.3091,-2.3091,-2.3091,-2.3091,-2.3091,-2.3091,-2.3091,-2.3091,-2.3091,-2.3091,-2.3091,-2.3091,-2.3091,-2.3091,-2.3091,-2.3091,-2.3091,-2.3091,-2.3091,-2.3091,-2.3091,-2.3091,-2.3091,-2.3091,-2.3091,-2.3091,-2.3091,-2.3091,-2.3091,-2.3091,-2.3091,-2.3091,-2.3091,-2.3091,-2.3091,-2.3091,-2.3091,-2.3091,-2.3091,-2.3091,-2.3091,-2.3091,-2.3091,-2.3091,-2.3091,-2.3091,-2.3091,-2.3091,-2.3091,-2.3091,-2.3091,-2.3091,-2.3091,-2.3101,-2.3091,-1.2502,0.0,-1.5016,-1.4204,-1.4111,-1.4015,0.0,-1.2323,-1.1805,-1.2218,0.0,-1.1574,-1.3766,-1.3488,-1.3648,-1.5917,-1.7627,-1.8585,-1.8282,-2.0314,-2.2666,-2.4987,-2.5415,-2.5452,-2.5311,-2.4808,-2.4112,-2.3178,-2.3091,-2.3091,-2.3091,-2.3091,-2.3091,-2.3091,-2.3091,-2.3413,-2.4111,-2.4219,-2.4609,-2.5235,-2.5333,-2.5382,-2.5382,-2.5382,-2.5234,-2.4959,-2.4959,-2.4668,-2.4248,-2.3926,-2.373,-2.3603,-2.3227,-2.3091,-2.3091,-2.3091,-2.3091,-2.3091,-2.3091,-2.3091,-2.3091,-2.3091,-2.3091,-2.3091,-2.3091,-2.3091,-2.3091,-2.3091,-2.3091,-2.3091,-2.3091,-2.3091,-2.3091,-2.3091,-2.3091,-2.3091,-2.3091,-2.3091,-2.3091,-2.3091,-2.3091,-2.3091,-2.3091,-2.3091,-2.3091,-2.3091,-2.3091,-2.3091,-2.3091,-2.3091,-2.3091,-2.3091,-2.3091,-2.3091,-2.3091,-2.3091,-2.3091,-2.3091,-2.3091,-2.3091,-2.3091,-2.3091,-2.3091,-2.3091,-2.3091,-2.3091,-2.3091,-2.3091,-2.3091,-2.3091,-2.2925,-2.2882,-1.1183,-1.2662,-1.3826,-1.3264,-1.3345,-1.3331,-1.2457,0.0,0.0,0.0,0.0,-1.1478,-1.3359,-1.342,-1.399,-1.6511,-1.7955,-1.9051,-1.9817,-2.2143,-2.3962,-2.4502,-2.5274,-2.5484,-2.4648,-2.4145,-2.3647,-2.3144,-2.3091,-2.3091,-2.3091,-2.3091,-2.3091,-2.3091,-2.3286,-2.3662,-2.4121,-2.4316,-2.4756,-2.543,-2.5586,-2.5693,-2.5693,-2.5693,-2.5605,-2.5371,-2.5371,-2.5127,-2.4697,-2.4473,-2.4258,-2.4033,-2.3603,-2.3437,-2.3408,-2.3169,-2.3091,-2.3091,-2.3091,-2.3091,-2.3091,-2.3091,-2.3091,-2.3091,-2.3091,-2.3091,-2.3091,-2.3091,-2.3091,-2.3091,-2.3091,-2.3091,-2.3091,-2.3091,-2.3091,-2.3091,-2.3091,-2.3091,-2.3091,-2.3091,-2.3091,-2.3091,-2.3091,-2.3091,-2.3091,-2.3091,-2.3091,-2.3057,-2.2969,-2.2969,-2.2925,-2.2794,-2.2784,-2.2784,-2.2784,-2.2784,-2.2872,-2.3101,-2.3013,-2.2969,-2.2969,-2.2828,-2.2784,-2.2784,-2.2784,-2.2784,-2.2784,-2.2784,-2.2784,-2.2794,-2.2662,-2.2618,-1.0606,-1.2167,-1.3428,-1.3171,-1.3345,-1.3308,-1.2322,0.0,0.0,0.0,0.0,0.0,-1.3119,-1.3617,0.0,-1.6792,-1.7782,-1.9099,-2.1497,-2.3631,-2.4554,-2.3467,-2.452,-2.4861,-2.343,-2.3178,-2.3091,-2.3091,-2.3091,-2.3091,-2.3091,-2.3091,-2.3091,-2.3091,-2.3496,-2.375,-2.3887,-2.4307,-2.4736,-2.5223,-2.5557,-2.5693,-2.5693,-2.5693,-2.5693,-2.5693,-2.5693,-2.5518,-2.5213,-2.5145,-2.4853,-2.4463,-2.3984,-2.3789,-2.374,-2.3257,-2.3091,-2.3091,-2.3091,-2.3091,-2.3091,-2.3091,-2.3091,-2.3091,-2.3091,-2.3091,-2.3091,-2.3091,-2.3091,-2.3091,-2.3091,-2.3091,-2.3091,-2.3091,-2.3091,-2.3091,-2.3091,-2.3091,-2.3091,-2.3091,-2.3091,-2.3091,-2.3091,-2.3057,-2.3047,-2.3047,-2.3013,-2.2925,-2.2759,-2.2759,-2.2662,-2.2441,-2.2397,-2.2397,-2.2397,-2.2397,-2.2564,-2.2969,-2.2838,-2.2759,-2.2759,-2.253,-2.2397,-2.2397,-2.2397,-2.2397,-2.2397,-2.2397,-2.2397,-2.2397,-2.2353,-2.2353,-1.0741,-1.2099,-1.2806,-1.1994,-1.2626,-1.3124,-1.1959,0.0,0.0,0.0,0.0,0.0,0.0,-1.5397,-1.5949,-1.877,-2.034,-2.1759,-2.3155,-2.3763,-2.4096,-2.4276,-2.382,-2.3734,-2.4241,-2.356,-2.3091,-2.3091,-2.3091,-2.3091,-2.3091,-2.3091,-2.3091,-2.3091,-2.3159,-2.3539,-2.4316,-2.4746,-2.5195,-2.5586,-2.5654,-2.5693,-2.5693,-2.5693,-2.5693,-2.5693,-2.5693,-2.5645,-2.5605,-2.5225,-2.5077,-2.4893,-2.4102,-2.3789,-2.374,-2.3257,-2.3091,-2.3091,-2.3091,-2.3091,-2.3091,-2.3091,-2.3091,-2.3091,-2.3091,-2.3091,-2.3091,-2.3091,-2.3091,-2.3091,-2.3091,-2.3091,-2.3091,-2.3091,-2.3091,-2.3091,-2.3091,-2.3091,-2.3091,-2.3091,-2.3091,-2.3091,-2.3091,-2.2969,-2.2847,-2.2847,-2.2662,-2.2485,-2.2485,-2.2441,-2.2441,-2.2397,-2.2397,-2.2397,-2.2397,-2.2397,-2.2432,-2.2476,-2.2485,-2.2441,-2.2441,-2.2441,-2.2397,-2.2397,-2.2397,-2.2397,-2.2397,-2.2397,-2.2397,-2.2397,-2.223,-2.2141,-0.9759,-1.1105,-1.2207,-1.225,-1.3373,-1.4286,-1.35,-1.3288,0.0,0.0,0.0,0.0,0.0,0.0,-1.7274,-1.9801,-2.1714,-2.2889,-2.3034,-2.3696,-2.4091,-2.379,-2.382,-2.382,-2.3734,-2.3353,-2.3091,-2.3091,-2.3091,-2.3091,-2.3091,-2.3091,-2.3091,-2.3091,-2.3369,-2.3789,-2.4414,-2.4853,-2.5293,-2.5693,-2.5693,-2.5693,-2.5693,-2.5693,-2.5693,-2.5693,-2.5693,-2.5693,-2.5674,-2.5518,-2.543,-2.5342,-2.4463,-2.4121,-2.4053,-2.3335,-2.3091,-2.3091,-2.3091,-2.3091,-2.3091,-2.3091,-2.3091,-2.3091,-2.3091,-2.3091,-2.3091,-2.3091,-2.3091,-2.3091,-2.3091,-2.3091,-2.3091,-2.3091,-2.3091,-2.3091,-2.3091,-2.3013,-2.2925,-2.2925,-2.2838,-2.2706,-2.2706,-2.2662,-2.2574,-2.2574,-2.2485,-2.2353,-2.2264,-2.223,-2.2176,-2.2043,-2.1998,-2.1998,-2.1998,-2.1998,-2.2087,-2.222,-2.223,-2.2176,-2.2043,-2.1998,-2.1998,-2.1998,-2.1998,-2.1998,-2.1998,-2.1998,-2.1998,-2.1998,-2.1919,-2.1874,-0.9258,-1.0508,-1.1841,-1.2807,-1.4083,-1.5122,-1.5125,-1.483,0.0,0.0,0.0,0.0,0.0,-1.755,-1.9122,-2.0886,-2.2717,-2.3613,-2.2742,-2.3685,-2.4155,-2.3222,-2.3734,-2.3897,-2.3178,-2.3091,-2.3091,-2.3091,-2.3091,-2.3091,-2.3091,-2.3091,-2.3091,-2.3091,-2.3467,-2.3848,-2.4268,-2.46,-2.5098,-2.5693,-2.5693,-2.5693,-2.5693,-2.5693,-2.5693,-2.5684,-2.5577,-2.5586,-2.5528,-2.5421,-2.544,-2.5498,-2.4609,-2.4209,-2.3988,-2.3335,-2.3091,-2.3091,-2.3091,-2.3091,-2.3091,-2.3091,-2.3091,-2.3091,-2.3091,-2.3091,-2.3091,-2.3091,-2.3091,-2.3091,-2.3091,-2.3057,-2.3013,-2.3013,-2.296,-2.2916,-2.2916,-2.2838,-2.2715,-2.2715,-2.253,-2.2397,-2.2397,-2.2353,-2.2309,-2.2309,-2.2264,-2.2176,-2.2052,-2.2008,-2.1919,-2.1741,-2.1696,-2.1696,-2.1696,-2.1696,-2.1785,-2.2008,-2.2008,-2.1919,-2.1696,-2.1696,-2.1696,-2.1696,-2.1696,-2.1696,-2.1696,-2.1696,-2.1696,-2.1696,-2.1696,-2.1696,-1.0332,-1.1183,-1.191,-1.3145,-1.3866,-1.4576,-1.5723,-1.6036,0.0,-1.8051,0.0,0.0,0.0,-2.1437,-2.222,-2.2806,-2.3794,-2.4114,-2.3183,-2.3887,-2.4155,-2.3222,-2.3178,-2.3178,-2.3101,-2.3091,-2.3091,-2.3091,-2.3091,-2.3091,-2.3091,-2.3091,-2.3091,-2.3091,-2.312,-2.3344,-2.3828,-2.3867,-2.4502,-2.5693,-2.5693,-2.5693,-2.5693,-2.5693,-2.5693,-2.5664,-2.5293,-2.5117,-2.5135,-2.4678,-2.4746,-2.5077,-2.417,-2.3584,-2.3179,-2.312,-2.3091,-2.3091,-2.3091,-2.3091,-2.3091,-2.3091,-2.3091,-2.3091,-2.3091,-2.3091,-2.3091,-2.3091,-2.3091,-2.3091,-2.3091,-2.2969,-2.2803,-2.2803,-2.2618,-2.2441,-2.2441,-2.2441,-2.2441,-2.2441,-2.2388,-2.2397,-2.2397,-2.2264,-2.2097,-2.2097,-2.1919,-2.1731,-2.1731,-2.1741,-2.1741,-2.1696,-2.1696,-2.1696,-2.1696,-2.1696,-2.1696,-2.1741,-2.1741,-2.1741,-2.1696,-2.1696,-2.1696,-2.1696,-2.1696,-2.1696,-2.1696,-2.1696,-2.1696,-2.1696,-2.1696,-2.1696,-0.9708,-1.082,-1.192,-1.3184,-1.4489,0.0,0.0,-1.7123,-1.8038,-1.9214,-1.9413,0.0,-2.0645,-2.1282,-2.181,-2.2289,-2.3088,-2.3517,-2.3135,-2.3396,-2.3517,-2.3135,-2.3091,-2.3091,-2.3091,-2.3091,-2.3091,-2.3091,-2.3091,-2.3091,-2.3091,-2.3091,-2.3091,-2.3091,-2.3091,-2.335,-2.3789,-2.3789,-2.417,-2.4865,-2.4865,-2.4865,-2.4865,-2.4865,-2.4865,-2.4855,-2.4736,-2.4668,-2.4648,-2.4482,-2.4512,-2.46,-2.4023,-2.3525,-2.3091,-2.3091,-2.3091,-2.3091,-2.3091,-2.3091,-2.3091,-2.3091,-2.3091,-2.3091,-2.3091,-2.3013,-2.2925,-2.2925,-2.2794,-2.2706,-2.2882,-2.2838,-2.2759,-2.2574,-2.2485,-2.2397,-2.2397,-2.2309,-2.222,-2.222,-2.2087,-2.1954,-2.1954,-2.1909,-2.1874,-2.1874,-2.1785,-2.1696,-2.1696,-2.1696,-2.1696,-2.1696,-2.1696,-2.1696,-2.1696,-2.1696,-2.1696,-2.1696,-2.1696,-2.1696,-2.1696,-2.1696,-2.1696,-2.1696,-2.1696,-2.1696,-2.1696,-2.1696,-2.1696,-2.1696,-2.1696,-2.1696,-0.9542,-1.0704,-1.192,-1.3184,0.0,0.0,-1.7105,-1.8208,-1.9403,-2.0665,-2.1415,-2.1626,-2.1095,-2.1431,-2.1857,-2.2053,-2.2676,-2.3091,-2.3091,-2.3091,-2.3091,-2.3091,-2.3091,-2.3091,-2.3091,-2.3091,-2.3091,-2.3091,-2.3091,-2.3091,-2.3091,-2.3091,-2.3091,-2.3091,-2.3091,-2.3237,-2.3584,-2.3584,-2.373,-2.3968,-2.3968,-2.4105,-2.4414,-2.4414,-2.4414,-2.4414,-2.4277,-2.4219,-2.4209,-2.4072,-2.3968,-2.4004,-2.3848,-2.3525,-2.3091,-2.3091,-2.3091,-2.3091,-2.3091,-2.3091,-2.3091,-2.3091,-2.3091,-2.3091,-2.3091,-2.2969,-2.2803,-2.2803,-2.2618,-2.2441,-2.2539,-2.2583,-2.2539,-2.2353,-2.222,-2.2176,-2.2176,-2.2087,-2.1963,-2.1963,-2.183,-2.1696,-2.1696,-2.1696,-2.1696,-2.1696,-2.1696,-2.1696,-2.1696,-2.1696,-2.1696,-2.1696,-2.1696,-2.1696,-2.1696,-2.1696,-2.1696,-2.1696,-2.1696,-2.1696,-2.1696,-2.1696,-2.1696,-2.1696,-2.1696,-2.1696,-2.1696,-2.1696,-2.1696,-2.1696,-2.1824,-2.1879,-1.0166,-1.0939,-1.1907,-1.3193,0.0,0.0,-1.813,-1.9322,-2.0608,-2.278,-2.3825,-2.3865,-2.2205,-2.2574,-2.2951,-2.2568,-2.2818,-2.3091,-2.3091,-2.3091,-2.3091,-2.3091,-2.3091,-2.3091,-2.3091,-2.3091,-2.3091,-2.3091,-2.3091,-2.3091,-2.3091,-2.3091,-2.3091,-2.3091,-2.3091,-2.3091,-2.3091,-2.3091,-2.3091,-2.3091,-2.3091,-2.3539,-2.4404,-2.4404,-2.4404,-2.4385,-2.3965,-2.3779,-2.375,-2.3276,-2.3091,-2.314,-2.3613,-2.3516,-2.3091,-2.3091,-2.3091,-2.3091,-2.3091,-2.3091,-2.3091,-2.3091,-2.3091,-2.3091,-2.3091,-2.2969,-2.2794,-2.2794,-2.2618,-2.2353,-2.2141,-2.2097,-2.2097,-2.2097,-2.1874,-2.1696,-2.1696,-2.1696,-2.1696,-2.1696,-2.1696,-2.1696,-2.1696,-2.1696,-2.1696,-2.1696,-2.1696,-2.1696,-2.1696,-2.1696,-2.1696,-2.1696,-2.1696,-2.1696,-2.1696,-2.1696,-2.1696,-2.1696,-2.1696,-2.1696,-2.1696,-2.1696,-2.1696,-2.1696,-2.1696,-2.1696,-2.1696,-2.1696,-2.1696,-2.1705,-2.2099,-2.2327,-1.0166,-1.1389,-1.2817,-1.4109,0.0,0.0,0.0,-1.9976,0.0,0.0,-2.3102,-2.2934,-2.2408,-2.2525,-2.2648,-2.2533,-2.2818,-2.3091,-2.3091,-2.3091,-2.3091,-2.3091,-2.3091,-2.3091,-2.3091,-2.3091,-2.3091,-2.3091,-2.3091,-2.3091,-2.3091,-2.3091,-2.3091,-2.3091,-2.3091,-2.3091,-2.3091,-2.3091,-2.3091,-2.3091,-2.3091,-2.3227,-2.3471,-2.3471,-2.3471,-2.3471,-2.3344,-2.3286,-2.3276,-2.3149,-2.3091,-2.311,-2.3237,-2.3208,-2.3091,-2.3091,-2.3091,-2.3091,-2.3091,-2.3091,-2.3091,-2.3091,-2.3013,-2.2882,-2.2882,-2.2627,-2.2318,-2.2318,-2.2097,-2.1909,-2.183,-2.183,-2.183,-2.183,-2.1785,-2.1696,-2.1696,-2.1696,-2.1696,-2.1696,-2.1696,-2.1696,-2.1696,-2.1696,-2.1696,-2.1696,-2.1696,-2.1696,-2.1696,-2.1696,-2.1696,-2.1696,-2.1696,-2.1696,-2.1696,-2.1696,-2.1696,-2.1696,-2.1696,-2.1696,-2.1696,-2.1696,-2.1696,-2.1696,-2.1696,-2.1696,-2.1696,-2.197,-2.2099,-2.2117,-2.2529,-2.2721,-1.1076,-1.2324,-1.3769,-1.541,-1.7236,-1.9007,-2.0596,-2.1152,-2.168,-2.2847,-2.276,-2.2568,-2.2734,-2.2627,-2.2568,-2.2691,-2.2925,-2.3091,-2.3091,-2.3091,-2.3091,-2.3091,-2.3091,-2.3091,-2.3091,-2.3091,-2.3091,-2.3091,-2.3091,-2.3091,-2.3091,-2.3091,-2.3091,-2.3091,-2.3091,-2.3091,-2.3091,-2.3091,-2.3091,-2.3091,-2.3091,-2.3091,-2.3091,-2.3091,-2.3091,-2.3091,-2.3091,-2.3091,-2.3091,-2.3091,-2.3091,-2.3091,-2.3091,-2.3091,-2.3091,-2.3091,-2.3091,-2.3091,-2.3091,-2.3047,-2.2969,-2.2969,-2.2838,-2.2618,-2.2618,-2.2407,-2.2097,-2.2097,-2.1919,-2.1696,-2.1696,-2.1696,-2.1696,-2.1696,-2.1806,-2.1925,-2.1925,-2.2053,-2.2172,-2.2172,-2.2172,-2.2172,-2.2172,-2.2034,-2.1925,-2.1925,-2.1797,-2.1696,-2.1696,-2.1833,-2.1925,-2.1925,-2.2071,-2.2172,-2.2172,-2.2172,-2.2172,-2.2172,-2.2172,-2.2172,-2.2172,-2.2016,-2.2007,-2.2172,-2.2172,-2.2172,-2.2172,-2.241,-2.2529,-2.2538,-2.295,-2.3142,-1.2373,-1.3496,-1.4689,-1.6894,-1.8193,-1.9524,-2.1963,-2.2539,-2.2676,-2.3013,-2.2789,-2.2685,-2.3023,-2.2779,-2.2652,-2.3033,-2.3091,-2.3091,-2.3091,-2.3091,-2.3091,-2.3091,-2.3091,-2.3091,-2.3091,-2.3091,-2.3091,-2.3091,-2.3091,-2.3091,-2.3091,-2.3091,-2.3091,-2.3091,-2.3091,-2.3091,-2.3091,-2.3091,-2.3091,-2.3091,-2.3091,-2.3091,-2.3091,-2.3091,-2.3091,-2.3091,-2.3091,-2.3091,-2.3091,-2.3091,-2.3091,-2.3091,-2.3091,-2.3091,-2.3091,-2.3091,-2.3091,-2.3091,-2.3091,-2.2969,-2.2803,-2.275,-2.2574,-2.2353,-2.2353,-2.222,-2.2052,-2.2052,-2.1874,-2.1696,-2.1696,-2.1723,-2.1742,-2.1742,-2.2016,-2.2291,-2.2327,-2.2638,-2.2904,-2.2904,-2.2904,-2.2904,-2.2904,-2.2593,-2.2336,-2.2336,-2.2034,-2.1806,-2.1806,-2.2117,-2.2336,-2.2336,-2.2675,-2.2904,-2.2904,-2.2904,-2.2904,-2.2904,-2.2904,-2.2922,-2.2959,-2.2556,-2.2519,-2.2904,-2.2904,-2.2904,-2.2904,-2.295,-2.2959,-2.2968,-2.337,-2.3544,-1.2057,-1.3486,0.0,-1.7334,-1.9541,-2.1416,-2.2314,-2.2721,-2.2984,-2.3081,-2.3023,-2.2984,-2.3081,-2.3023,-2.2994,-2.3081,-2.3091,-2.3091,-2.3091,-2.3091,-2.3091,-2.3091,-2.3091,-2.3091,-2.3091,-2.3091,-2.3091,-2.3091,-2.3091,-2.3091,-2.3091,-2.3091,-2.3091,-2.3091,-2.3091,-2.3091,-2.3091,-2.3091,-2.3091,-2.3091,-2.3091,-2.3091,-2.3091,-2.3091,-2.3091,-2.3091,-2.3091,-2.3091,-2.3091,-2.3091,-2.3091,-2.3091,-2.3091,-2.3091,-2.3091,-2.3091,-2.3091,-2.3101,-2.2925,-2.2847,-2.2759,-2.2574,-2.2353,-2.2141,-2.2141,-2.2008,-2.1785,-2.1785,-2.1741,-2.1696,-2.1696,-2.1925,-2.2153,-2.2153,-2.2263,-2.2373,-2.2702,-2.2849,-2.2904,-2.2904,-2.2904,-2.2904,-2.2904,-2.2831,-2.2776,-2.2776,-2.2702,-2.2648,-2.2648,-2.2721,-2.2776,-2.2776,-2.2858,-2.2904,-2.2904,-2.2904,-2.2904,-2.2904,-2.2904,-2.305,-2.3352,-2.2986,-2.2812,-2.2904,-2.2904,-2.2904,-2.2904,-2.3215,-2.337,-2.338,-2.3831,-2.4073,-1.2408,-1.3936,0.0,-1.8281,0.0,-2.1738,-2.2373,-2.2643,-2.2847,-2.3052,-2.3091,-2.3091,-2.3091,-2.3091,-2.3091,-2.3091,-2.3091,-2.3091,-2.3091,-2.3091,-2.3091,-2.3091,-2.3091,-2.3091,-2.3091,-2.3091,-2.3091,-2.3091,-2.3091,-2.3091,-2.3091,-2.3091,-2.3091,-2.3091,-2.3091,-2.3091,-2.3091,-2.3091,-2.3091,-2.3091,-2.3091,-2.3047,-2.2969,-2.3057,-2.3091,-2.3091,-2.3091,-2.3091,-2.3091,-2.3091,-2.3091,-2.3091,-2.3091,-2.3091,-2.3101,-2.3013,-2.2969,-2.2925,-2.2706,-2.2539,-2.2451,-2.2309,-2.2097,-2.1919,-2.1919,-2.183,-2.1733,-2.1925,-2.197,-2.2025,-2.2217,-2.2428,-2.2629,-2.2821,-2.2858,-2.2922,-2.3142,-2.3343,-2.3529,-2.3529,-2.3529,-2.3529,-2.3529,-2.3316,-2.3123,-2.2931,-2.2904,-2.2904,-2.2904,-2.3068,-2.3187,-2.3187,-2.3409,-2.3529,-2.3529,-2.3529,-2.3529,-2.3529,-2.3529,-2.362,-2.3831,-2.3639,-2.3529,-2.3529,-2.3529,-2.3529,-2.3529,-2.373,-2.384,-2.384,-2.4101,-2.4202,-1.2515,-1.4241,-1.6211,-1.9092,-2.0469,0.0,-2.2109,-2.2402,-2.2607,-2.2916,-2.3042,-2.3091,-2.3091,-2.3091,-2.3091,-2.3091,-2.3091,-2.3091,-2.3091,-2.3091,-2.3091,-2.3091,-2.3091,-2.3091,-2.3091,-2.3091,-2.3091,-2.3091,-2.3091,-2.3091,-2.3091,-2.3091,-2.3091,-2.3091,-2.3091,-2.3091,-2.3091,-2.3057,-2.3047,-2.3047,-2.3013,-2.2882,-2.2759,-2.2882,-2.296,-2.296,-2.296,-2.296,-2.296,-2.296,-2.296,-2.296,-2.296,-2.296,-2.296,-2.2794,-2.2706,-2.2706,-2.2441,-2.223,-2.2097,-2.2052,-2.1874,-2.1696,-2.1696,-2.1696,-2.1769,-2.2172,-2.2282,-2.2373,-2.2794,-2.2959,-2.3087,-2.3416,-2.3544,-2.3599,-2.3599,-2.3914,-2.4202,-2.4202,-2.4202,-2.4202,-2.4202,-2.3868,-2.3489,-2.316,-2.3114,-2.3114,-2.3114,-2.3398,-2.3599,-2.3599,-2.395,-2.4202,-2.4202,-2.4202,-2.4202,-2.4202,-2.4202,-2.4202,-2.4202,-2.4202,-2.4202,-2.4202,-2.4202,-2.4202,-2.4202,-2.4202,-2.4202,-2.4202,-2.4202,-2.4202,-1.0882,0.0,-1.6555,0.0,-2.0057,-2.0781,-2.1249,-2.1982,-2.2529,-2.2588,-2.2847,-2.3091,-2.3091,-2.3091,-2.3091,-2.3091,-2.3091,-2.3091,-2.3091,-2.3091,-2.3091,-2.3091,-2.3091,-2.3091,-2.3091,-2.3091,-2.3091,-2.3091,-2.3091,-2.3091,-2.3091,-2.3091,-2.3091,-2.3091,-2.3091,-2.3091,-2.3091,-2.2925,-2.2838,-2.2838,-2.2618,-2.2485,-2.2441,-2.2476,-2.2485,-2.2485,-2.2485,-2.2485,-2.2485,-2.2485,-2.2485,-2.2485,-2.2485,-2.2485,-2.2485,-2.2441,-2.2441,-2.2441,-2.223,-2.2097,-2.2052,-2.183,-2.1741,-2.1696,-2.1696,-2.1696,-2.1769,-2.2172,-2.2282,-2.2373,-2.2794,-2.316,-2.3425,-2.348,-2.3813,-2.4119,-2.4119,-2.4165,-2.4202,-2.4202,-2.4202,-2.4202,-2.4202,-2.4156,-2.4101,-2.4045,-2.4045,-2.4045,-2.4045,-2.4082,-2.4119,-2.4119,-2.4165,-2.4202,-2.4202,-2.4202,-2.4202,-2.4202,-2.4202,-2.4202,-2.4202,-2.4202,-2.4202,-2.4202,-2.4202,-2.4202,-2.4202,-2.4202,-2.4202,-2.4202,-2.4202,-2.4202,-1.1624,-1.3951,-1.6162,0.0,-1.9219,-2.0067,-2.0703,-2.1348,-2.1865,-2.2109,-2.249,-2.2818,-2.3052,-2.3091,-2.3091,-2.3091,-2.3091,-2.3091,-2.3091,-2.3091,-2.3091,-2.3091,-2.3091,-2.3091,-2.3091,-2.3091,-2.3091,-2.3091,-2.3091,-2.3091,-2.3091,-2.3091,-2.3047,-2.2925,-2.2925,-2.2882,-2.2696,-2.2618,-2.2574,-2.2574,-2.2353,-2.222,-2.222,-2.2087,-2.2132,-2.2397,-2.2397,-2.2397,-2.2397,-2.2397,-2.2397,-2.2397,-2.2397,-2.2397,-2.2397,-2.2264,-2.222,-2.2185,-2.1963,-2.1874,-2.1874,-2.1741,-2.1696,-2.1696,-2.1696,-2.1696,-2.1824,-2.2455,-2.2629,-2.2776,-2.3464,-2.3758,-2.3886,-2.3886,-2.4073,-2.4202,-2.4202,-2.4202,-2.4202,-2.4202,-2.4202,-2.4202,-2.4202,-2.4202,-2.4202,-2.4202,-2.4202,-2.4202,-2.4202,-2.4202,-2.4202,-2.4202,-2.4202,-2.4202,-2.4202,-2.4202,-2.4202,-2.4202,-2.4202,-2.4202,-2.4202,-2.4202,-2.4202,-2.4202,-2.4202,-2.4202,-2.4202,-2.4202,-2.4202,-2.4202,-2.4202,-2.4202,0.0,0.0,-1.4884,-1.6833,-1.8086,-1.9053,-2.0057,-2.0674,-2.1191,-2.1631,-2.206,-2.2451,-2.2721,-2.2955,-2.3091,-2.3091,-2.3091,-2.3091,-2.3091,-2.3091,-2.3091,-2.3091,-2.3091,-2.3091,-2.3091,-2.3091,-2.3091,-2.3091,-2.3091,-2.3091,-2.3091,-2.3047,-2.2969,-2.2803,-2.2706,-2.2618,-2.2397,-2.2353,-2.2309,-2.222,-2.2087,-2.2008,-2.2008,-2.1776,-2.1909,-2.222,-2.222,-2.222,-2.222,-2.222,-2.222,-2.222,-2.222,-2.222,-2.222,-2.2043,-2.2008,-2.1963,-2.1785,-2.1696,-2.1696,-2.1696,-2.1696,-2.1696,-2.1696,-2.1696,-2.1861,-2.2675,-2.2904,-2.3096,-2.399,-2.4202,-2.4202,-2.4202,-2.4202,-2.4202,-2.4202,-2.4202,-2.4202,-2.4202,-2.4202,-2.4202,-2.4202,-2.4202,-2.4202,-2.4202,-2.4202,-2.4202,-2.4202,-2.4202,-2.4202,-2.4202,-2.4202,-2.4202,-2.4202,-2.4202,-2.4202,-2.4202,-2.4202,-2.4202,-2.4202,-2.4202,-2.4202,-2.4202,-2.4202,-2.4202,-2.4202,-2.4202,-2.4202,-2.4202,-2.4202,-2.4202,0.0,-1.1265,0.0,-1.4819,-1.6471,-1.7846,-1.9072,-2.0038,-2.0772,-2.1132,-2.1611,-2.1924,-2.1953,-2.2607,-2.3091,-2.3091,-2.3091,-2.3091,-2.3091,-2.3091,-2.3091,-2.3091,-2.3091,-2.3091,-2.3091,-2.3091,-2.3091,-2.3091,-2.3091,-2.3091,-2.3091,-2.2925,-2.2794,-2.2803,-2.2574,-2.2388,-2.2397,-2.223,-2.2008,-2.1741,-2.1741,-2.1741,-2.1741,-2.1696,-2.1687,-2.1741,-2.1741,-2.1741,-2.1741,-2.1741,-2.1741,-2.1741,-2.1741,-2.1741,-2.1741,-2.1741,-2.1741,-2.1741,-2.1696,-2.1696,-2.1696,-2.1696,-2.1696,-2.1696,-2.1696,-2.1696,-2.1861,-2.2675,-2.2904,-2.3096,-2.399,-2.4202,-2.4202,-2.4202,-2.4202,-2.4202,-2.4202,-2.4202,-2.4202,-2.4202,-2.4202,-2.4202,-2.4202,-2.4202,-2.4202,-2.4202,-2.4202,-2.4202,-2.4202,-2.4202,-2.4202,-2.4202,-2.4202,-2.4202,-2.4202,-2.4202,-2.4202,-2.4202,-2.4202,-2.4202,-2.4202,-2.4202,-2.4202,-2.4202,-2.4202,-2.4202,-2.4202,-2.4202,-2.4202,-2.4202,-2.4202,-2.4202,-0.9082,0.0,0.0,-1.3639,-1.5061,-1.6334,-1.7379,-1.8516,-1.9453,-1.9893,-2.0547,-2.1123,-2.1416,-2.2116,-2.2691,-2.2691,-2.2916,-2.3091,-2.3091,-2.3091,-2.3047,-2.2925,-2.3013,-2.3047,-2.2925,-2.3013,-2.3091,-2.3091,-2.2969,-2.2925,-2.2925,-2.2662,-2.2485,-2.2362,-2.2274,-2.2132,-2.1954,-2.1865,-2.1785,-2.1696,-2.1696,-2.1696,-2.1696,-2.1696,-2.1696,-2.1696,-2.1696,-2.1696,-2.1696,-2.1696,-2.1696,-2.1696,-2.1696,-2.1696,-2.1696,-2.1696,-2.1696,-2.1696,-2.1696,-2.1696,-2.1696,-2.1696,-2.1696,-2.1696,-2.1696,-2.1696,-2.1861,-2.2675,-2.2904,-2.3096,-2.399,-2.4202,-2.4202,-2.4202,-2.4202,-2.4202,-2.4202,-2.4202,-2.4202,-2.4202,-2.4202,-2.4202,-2.4202,-2.4202,-2.4202,-2.4202,-2.4202,-2.4202,-2.4202,-2.4202,-2.4202,-2.4202,-2.4202,-2.4202,-2.4202,-2.4202,-2.4202,-2.4202,-2.4202,-2.4202,-2.4202,-2.4202,-2.4202,-2.4202,-2.4202,-2.4202,-2.4202,-2.4202,-2.4202,-2.4202,-2.4202,-2.4202,-0.8285,0.0,0.0,0.0,-1.3539,-1.4654,-1.6274,-1.7317,-1.8169,-1.8926,-1.9746,-2.0439,-2.0693,-2.1504,-2.2129,-2.2275,-2.2539,-2.2721,-2.2867,-2.2843,-2.2814,-2.2784,-2.2838,-2.2794,-2.2662,-2.2794,-2.2872,-2.2872,-2.275,-2.2671,-2.2671,-2.2441,-2.2185,-2.1963,-2.1963,-2.1874,-2.1696,-2.1696,-2.1696,-2.1696,-2.1696,-2.1696,-2.1696,-2.1696,-2.1696,-2.1696,-2.1696,-2.1696,-2.1696,-2.1696,-2.1696,-2.1696,-2.1696,-2.1696,-2.1696,-2.1696,-2.1696,-2.1696,-2.1696,-2.1696,-2.1696,-2.1696,-2.1696,-2.1696,-2.1696,-2.1696,-2.1861,-2.2675,-2.2904,-2.3096,-2.399,-2.4202,-2.4202,-2.4202,-2.4202,-2.4202,-2.4202,-2.4202,-2.4202,-2.4202,-2.4202,-2.4202,-2.4202,-2.4202,-2.4202,-2.4202,-2.4202,-2.4202,-2.4202,-2.4202,-2.4202,-2.4202,-2.4202,-2.4202,-2.4202,-2.4202,-2.4202,-2.4202,-2.4202,-2.4202,-2.4202,-2.4202,-2.4202,-2.4202,-2.4202,-2.4202,-2.4202,-2.4202,-2.4202,-2.4202,-2.4202,-2.4202,0.0,0.0,0.0,-1.126,-1.1868,-1.2836,-1.5726,-1.6495,-1.697,-1.8276,-1.9202,-1.9796,-1.9845,-2.0557,-2.1278,-2.1758,-2.1865,-2.2031,-2.2441,-2.233,-2.2313,-2.2717,-2.2545,-2.2378,-2.2378,-2.2388,-2.2397,-2.2397,-2.2388,-2.2397,-2.2397,-2.2185,-2.1963,-2.1696,-2.1696,-2.1696,-2.1696,-2.1696,-2.1696,-2.1696,-2.1696,-2.1696,-2.1696,-2.1696,-2.1696,-2.1696,-2.1696,-2.1696,-2.1696,-2.1696,-2.1696,-2.1696,-2.1696,-2.1696,-2.1696,-2.1696,-2.1696,-2.1696,-2.1696,-2.1696,-2.1696,-2.1696,-2.1696,-2.1696,-2.1696,-2.1696,-2.1861,-2.2675,-2.2904,-2.3096,-2.399,-2.4202,-2.4202,-2.4202,-2.4202,-2.4202,-2.4202,-2.4202,-2.4202,-2.4202,-2.4202,-2.4202,-2.4202,-2.4202,-2.4202,-2.4202,-2.4202,-2.4202,-2.4202,-2.4202,-2.4202,-2.4202,-2.4202,-2.4202,-2.4202,-2.4202,-2.4202,-2.4202,-2.4202,-2.4202,-2.4202,-2.4202,-2.4202,-2.4202,-2.4202,-2.4202,-2.4202,-2.4202,-2.4202,-2.4202,-2.4202,-2.4202,-0.7595,0.0,0.0,0.0,0.0,0.0,-1.3268,-1.3911,-1.4696,-1.6494,-1.7101,-1.7638,-1.8818,-1.936,-1.9753,-2.0227,-2.1189,-2.1924,-2.2041,-2.2019,-2.189,-2.1692,-2.2031,-2.2126,-2.1761,-2.213,-2.2397,-2.2397,-2.2264,-2.2176,-2.2176,-2.1963,-2.1785,-2.1696,-2.1696,-2.1696,-2.1696,-2.1696,-2.1696,-2.1696,-2.1696,-2.1696,-2.1696,-2.1696,-2.1696,-2.1696,-2.1696,-2.1696,-2.1696,-2.1696,-2.1696,-2.1696,-2.1696,-2.1696,-2.1696,-2.1696,-2.1696,-2.1696,-2.1696,-2.1696,-2.1696,-2.1696,-2.1696,-2.1696,-2.1696,-2.1696,-2.1861,-2.2675,-2.2904,-2.3096,-2.399,-2.4202,-2.4202,-2.4202,-2.4202,-2.4202,-2.4202,-2.4202,-2.4202,-2.4202,-2.4202,-2.4202,-2.4202,-2.4202,-2.4202,-2.4202,-2.4202,-2.4202,-2.4202,-2.4202,-2.4202,-2.4202,-2.4202,-2.4202,-2.4202,-2.4202,-2.4202,-2.4202,-2.4202,-2.4202,-2.4202,-2.4202,-2.4202,-2.4202,-2.4202,-2.4202,-2.4202,-2.4202,-2.4202,-2.4202,-2.4202,-2.4202,-0.8537,0.0,0.0,0.0,0.0,0.0,-1.2551,-1.2916,-1.3385,-1.5085,-1.5761,-1.6402,-1.7476,-1.7942,-1.8328,-1.8941,-1.988,-2.0827,-2.1492,-2.1448,-2.1332,-2.1205,-2.1367,-2.1391,-2.1126,-2.1531,-2.187,-2.187,-2.1906,-2.1919,-2.1919,-2.1785,-2.1696,-2.1696,-2.1696,-2.1696,-2.1696,-2.1696,-2.1696,-2.1696,-2.1696,-2.1696,-2.1696,-2.1696,-2.1696,-2.1696,-2.1696,-2.1696,-2.1696,-2.1696,-2.1696,-2.1696,-2.1696,-2.1696,-2.1696,-2.1696,-2.1696,-2.1696,-2.1696,-2.1696,-2.1696,-2.1696,-2.1696,-2.1696,-2.1696,-2.1696,-2.1861,-2.2675,-2.3151,-2.3565,-2.4082,-2.4202,-2.4202,-2.4202,-2.4202,-2.4202,-2.4202,-2.4202,-2.4202,-2.4202,-2.4202,-2.4202,-2.4202,-2.4202,-2.4202,-2.4202,-2.4202,-2.4202,-2.4202,-2.4202,-2.4202,-2.4202,-2.4202,-2.4202,-2.4202,-2.4202,-2.4202,-2.4202,-2.4202,-2.4202,-2.4202,-2.4202,-2.4202,-2.4202,-2.4202,-2.4202,-2.4202,-2.4202,-2.4202,-2.4202,-2.4202,-2.4202,-1.0125,0.0,0.0,0.0,-1.0803,0.0,-1.2742,-1.2779,-1.2711,-1.3909,-1.4715,-1.5389,-1.593,-1.6338,-1.685,-1.766,-1.818,-1.9087,-2.074,-2.0723,-2.0642,-2.0961,-2.0671,-2.0448,-2.0457,-2.0805,-2.1062,-2.1099,-2.1458,-2.1696,-2.1696,-2.1696,-2.1696,-2.1696,-2.1696,-2.1696,-2.1696,-2.1696,-2.1696,-2.1696,-2.1696,-2.1696,-2.1696,-2.1696,-2.1696,-2.1696,-2.1696,-2.1696,-2.1696,-2.1696,-2.1696,-2.1696,-2.1696,-2.1696,-2.1696,-2.1696,-2.1696,-2.1696,-2.1696,-2.1696,-2.1696,-2.1696,-2.1696,-2.1696,-2.1696,-2.1696,-2.1861,-2.2675,-2.3529,-2.4202,-2.4202,-2.4202,-2.4202,-2.4202,-2.4202,-2.4202,-2.4202,-2.4202,-2.4202,-2.4202,-2.4202,-2.4202,-2.4202,-2.4202,-2.4202,-2.4202,-2.4202,-2.4202,-2.4202,-2.4202,-2.4202,-2.4202,-2.4202,-2.4202,-2.4202,-2.4202,-2.4202,-2.4202,-2.4202,-2.4202,-2.4202,-2.4202,-2.4202,-2.4202,-2.4202,-2.4202,-2.4202,-2.4202,-2.4202,-2.4202,-2.4202,-2.4152,-1.1467,-1.1678,-1.211,-1.1632,-1.1807,0.0,-1.1514,-1.1574,-1.1861,-1.2441,-1.2431,-1.2737,-1.4126,-1.4577,-1.4993,-1.5811,-1.6661,-1.7815,-1.9431,-1.9866,-2.0023,-1.9909,-2.0127,-2.0199,-2.0044,-2.036,-2.0769,-2.1089,-2.1458,-2.1696,-2.1696,-2.1696,-2.1696,-2.1696,-2.1696,-2.1696,-2.1696,-2.1696,-2.1696,-2.1696,-2.1696,-2.1696,-2.1696,-2.1696,-2.1696,-2.1696,-2.1696,-2.1696,-2.1696,-2.1696,-2.1696,-2.1696,-2.1696,-2.1696,-2.1696,-2.1696,-2.1696,-2.1696,-2.1696,-2.1696,-2.1696,-2.1696,-2.1696,-2.1696,-2.1696,-2.1696,-2.1861,-2.2675,-2.3529,-2.4202,-2.4202,-2.4202,-2.4202,-2.4202,-2.4202,-2.4202,-2.4202,-2.4202,-2.4202,-2.4202,-2.4202,-2.4202,-2.4202,-2.4202,-2.4202,-2.4202,-2.4202,-2.4202,-2.4202,-2.4202,-2.4202,-2.4202,-2.4202,-2.4202,-2.4202,-2.4202,-2.4202,-2.4202,-2.4202,-2.4202,-2.4202,-2.4202,-2.4202,-2.4202,-2.4202,-2.4202,-2.4202,-2.4202,-2.4202,-2.4202,-2.4202,-2.3696,-1.2663,-1.2681,-1.2955,-1.2762,-1.2551,0.0,0.0,-1.1798,-1.1678,-1.2275,-1.1926,-1.188,-1.3084,-1.3229,-1.3422,-1.4229,-1.5284,-1.6276,-1.7073,-1.8321,-1.9097,-1.9021,-1.9092,-1.9178,-1.9301,-1.9677,-2.0163,-2.0769,-2.1147,-2.142,-2.142,-2.1577,-2.1696,-2.1696,-2.1696,-2.1696,-2.1696,-2.1696,-2.1696,-2.1696,-2.1696,-2.1696,-2.1696,-2.1696,-2.1696,-2.1696,-2.1696,-2.1696,-2.1696,-2.1696,-2.1696,-2.1696,-2.1696,-2.1696,-2.1696,-2.1696,-2.1696,-2.1696,-2.1696,-2.1696,-2.1696,-2.1696,-2.1696,-2.1696,-2.1696,-2.198,-2.2382,-2.2794,-2.3529,-2.4202,-2.4202,-2.4202,-2.4202,-2.4202,-2.4202,-2.4202,-2.4202,-2.4202,-2.4202,-2.4202,-2.4202,-2.4202,-2.4202,-2.4202,-2.4202,-2.4202,-2.4202,-2.4202,-2.4202,-2.4202,-2.4202,-2.4202,-2.4202,-2.4202,-2.4202,-2.4202,-2.4202,-2.4202,-2.4202,-2.4202,-2.4202,-2.4202,-2.4202,-2.4202,-2.4202,-2.3895,-2.3338,-2.3338,-2.3338,-2.3338,-2.282,-2.2266,-1.3956,-1.3818,-1.3882,-1.3911,-1.335,-1.2827,0.0,0.0,0.0,-1.2257,-1.1834,-1.1614,-1.233,-1.2138,-1.211,-1.2828,-1.3892,-1.4634,-1.4634,-1.6298,-1.7634,-1.7867,-1.7861,-1.8018,-1.8339,-1.865,-1.9246,-2.0209,-2.0438,-2.0704,-2.1089,-2.1385,-2.1604,-2.1696,-2.1696,-2.1696,-2.1696,-2.1696,-2.1696,-2.1696,-2.1696,-2.1696,-2.1696,-2.1696,-2.1696,-2.1696,-2.1696,-2.1696,-2.1696,-2.1696,-2.1696,-2.1696,-2.1696,-2.1696,-2.1696,-2.1696,-2.1696,-2.1696,-2.1696,-2.1696,-2.1696,-2.1696,-2.1696,-2.1696,-2.1696,-2.2263,-2.2904,-2.2904,-2.3529,-2.4202,-2.4202,-2.4202,-2.4202,-2.4202,-2.4202,-2.4202,-2.4202,-2.4202,-2.4202,-2.4202,-2.4202,-2.4202,-2.4202,-2.4202,-2.4202,-2.4202,-2.4202,-2.4202,-2.4202,-2.4202,-2.4202,-2.4202,-2.4202,-2.4202,-2.4202,-2.4202,-2.4202,-2.4202,-2.4202,-2.4202,-2.4202,-2.4003,-2.4003,-2.4202,-2.3795,-2.3238,-2.2476,-2.2064,-2.1962,-2.2165,-2.1293,-2.0783,-1.5542,-1.5689,-1.5643,-1.4231,-1.4618,-1.4643,-1.2241,0.0,-1.23,-1.1315,0.0,-1.1122,-1.1559,0.0,0.0,-1.1641,-1.2422,-1.2964,-1.2964,-1.3791,-1.4823,-1.5868,-1.6606,-1.7064,-1.711,-1.7156,-1.7807,-1.9329,-1.8834,-1.9237,-2.1007,-2.1154,-2.1346,-2.1678,-2.1696,-2.1696,-2.1696,-2.1696,-2.1696,-2.1696,-2.1696,-2.1696,-2.1696,-2.1696,-2.1696,-2.1696,-2.1696,-2.1696,-2.1696,-2.1696,-2.1696,-2.1696,-2.1696,-2.1696,-2.1696,-2.1696,-2.1696,-2.1696,-2.1696,-2.1696,-2.1696,-2.1696,-2.1696,-2.1696,-2.1696,-2.2263,-2.2904,-2.2904,-2.3529,-2.4202,-2.4202,-2.4202,-2.4202,-2.4202,-2.4202,-2.4202,-2.4202,-2.4202,-2.4202,-2.4202,-2.4202,-2.4202,-2.4202,-2.4202,-2.4202,-2.4202,-2.4202,-2.4202,-2.4202,-2.4202,-2.4202,-2.4202,-2.4202,-2.4202,-2.4202,-2.4202,-2.4202,-2.4202,-2.4202,-2.4202,-2.4202,-2.3238,-2.3188,-2.4202,-2.2266,-2.17,-2.2476,-2.0518,-2.0107,-2.1089,-2.0936,-2.0364,-1.5808,-1.6001,-1.6037,-1.4882,-1.4799,-1.457,-1.291,-1.245,-1.2266,-1.1991,0.0,0.0,0.0,0.0,0.0,0.0,-1.1632,-1.1844,-1.1366,-1.2202,-1.3378,-1.4836,-1.5093,-1.5423,-1.6138,-1.6422,-1.6936,-1.7844,-1.7605,-1.8091,-1.9632,-2.0383,-2.0952,-2.1355,-2.1568,-2.1696,-2.1696,-2.1696,-2.1696,-2.1696,-2.1696,-2.1696,-2.1696,-2.1696,-2.1696,-2.1696,-2.1696,-2.1696,-2.1696,-2.1696,-2.1696,-2.1696,-2.1696,-2.1696,-2.1696,-2.1696,-2.1696,-2.1696,-2.1696,-2.1696,-2.1696,-2.1696,-2.1696,-2.1696,-2.1696,-2.2263,-2.2904,-2.2904,-2.3529,-2.4202,-2.4202,-2.4202,-2.4202,-2.4202,-2.4202,-2.4202,-2.4202,-2.4202,-2.4202,-2.4202,-2.4202,-2.4202,-2.4202,-2.4202,-2.4202,-2.4202,-2.4202,-2.4202,-2.4202,-2.4202,-2.4202,-2.4202,-2.4202,-2.4202,-2.4202,-2.4202,-2.4202,-2.4202,-2.4202,-2.3895,-2.3238,-2.2728,-2.2417,-2.2316,-2.1395,-2.0783,-2.0562,-1.9642,-1.9226,-1.9211,-1.9069,-1.8821,-1.6166,-1.6413,-1.6471,-1.5258,-1.4808,-1.4368,-1.3222,-1.279,-1.2588,-1.2542,-1.233,0.0,0.0,0.0,-1.1039,-1.0929,0.0,-1.1127,-1.056,-1.1118,-1.2082,-1.336,-1.3635,-1.4112,-1.5102,-1.5166,-1.5551,-1.6505,-1.6166,-1.6734,-1.8614,-1.9549,-2.0356,-2.1089,-2.1357,-2.1577,-2.1696,-2.1696,-2.1696,-2.1696,-2.1696,-2.1696,-2.1696,-2.1696,-2.1696,-2.1696,-2.1696,-2.1696,-2.1696,-2.1696,-2.1696,-2.1696,-2.1696,-2.1696,-2.1696,-2.1696,-2.1696,-2.1696,-2.1696,-2.1696,-2.1696,-2.1696,-2.1696,-2.1714,-2.1824,-2.2346,-2.2931,-2.3032,-2.362,-2.4202,-2.4202,-2.4202,-2.4202,-2.4202,-2.4202,-2.4202,-2.4202,-2.4202,-2.4202,-2.4202,-2.4202,-2.4202,-2.4202,-2.4202,-2.4202,-2.4202,-2.4202,-2.4202,-2.4202,-2.4202,-2.4202,-2.4202,-2.4202,-2.4202,-2.4202,-2.4202,-2.4202,-2.4202,-2.3895,-2.3338,-2.2526,-2.1912,-2.1395,-2.0885,-2.0313,-1.9746,-1.9176,-1.8957,-1.8554,-1.7989,-1.7816,-1.7876,-1.7092,-1.7449,-1.7459,-1.512,-1.4808,-1.4561,-1.2597,-1.3029,-1.3525,-1.2358,-1.3038,-1.3479,-1.2312,-1.177,-1.1357,-1.0975,-1.091,0.0,0.0,-1.0588,-1.0511,-1.0965,-1.2386,-1.3479,-1.3929,-1.2919,-1.3222,-1.5551,-1.4286,-1.4964,-1.8522,-1.8751,-1.9494,-2.1062,-2.1117,-2.1319,-2.1687,-2.1696,-2.1696,-2.1696,-2.1696,-2.1696,-2.1696,-2.1696,-2.1696,-2.1696,-2.1696,-2.1696,-2.1696,-2.1696,-2.1696,-2.1696,-2.1696,-2.1696,-2.1696,-2.1696,-2.1696,-2.1696,-2.1696,-2.1696,-2.1696,-2.1696,-2.1696,-2.176,-2.2144,-2.2565,-2.2986,-2.337,-2.3831,-2.4202,-2.4202,-2.4202,-2.4202,-2.4202,-2.4202,-2.4202,-2.4202,-2.4202,-2.4202,-2.4202,-2.4202,-2.4202,-2.4202,-2.4202,-2.4202,-2.4202,-2.4202,-2.4202,-2.4202,-2.4202,-2.4202,-2.4202,-2.4202,-2.4202,-2.4202,-2.4202,-2.4202,-2.4202,-2.3138,-2.2526,-2.2476,-2.0459,-1.9797,-2.0885,-1.8819,-1.8199,-1.9176,-1.8404,-1.8036,-1.7995,-1.7982,-1.819,-1.7789,-1.8109,-1.8064,-1.6175,-1.5597,-1.5038,-1.3277,-1.3433,-1.3562,-1.2349,-1.3066,-1.3534,-1.2321,-1.1779,-1.1467,-1.132,-1.0842,-1.0422,0.0,-0.9988,-1.0144,-1.0827,-1.2082,-1.2753,-1.2358,-1.2422,-1.2946,-1.402,-1.3846,-1.4689,-1.7009,-1.8137,-1.917,-2.025,-2.0833,-2.131,-2.1687,-2.1696,-2.1696,-2.1696,-2.1696,-2.1696,-2.1696,-2.1696,-2.1696,-2.1696,-2.1696,-2.1696,-2.1696,-2.1696,-2.1696,-2.1696,-2.1696,-2.1696,-2.1696,-2.1696,-2.1696,-2.1696,-2.1696,-2.1696,-2.1733,-2.1998,-2.208,-2.2153,-2.2574,-2.2977,-2.3325,-2.3453,-2.384,-2.4202,-2.4202,-2.4202,-2.4202,-2.4202,-2.4202,-2.4202,-2.4202,-2.4202,-2.4202,-2.4202,-2.4202,-2.4202,-2.4202,-2.4202,-2.4202,-2.4202,-2.4202,-2.4202,-2.4202,-2.4202,-2.4202,-2.4202,-2.4202,-2.4202,-2.4202,-2.3497,-2.3088,-2.3088,-2.2064,-2.1081,-2.0357,-1.9591,-1.9072,-1.8715,-1.7996,-1.7894,-1.8411,-1.8151,-1.8195,-1.8568,-1.8394,-1.8447,-1.8164,-1.8374,-1.8366,-1.689,-1.6321,-1.5661,-1.3901,-1.4038,-1.4214,-1.2992,-1.3369,-1.3764,-1.3268,-1.2376,-1.1724,-1.1724,-1.1035,-1.0309,0.0,-0.9942,-1.0208,-1.0459,-1.1402,-1.1963,-1.1742,-1.166,-1.2036,-1.302,-1.3203,-1.4075,-1.5991,-1.7486,-1.8788,-1.9857,-2.0558,-2.1172,-2.1687,-2.1696,-2.1696,-2.1696,-2.1696,-2.1696,-2.1696,-2.1696,-2.1696,-2.1696,-2.1696,-2.1696,-2.1696,-2.1696,-2.1696,-2.1696,-2.1696,-2.1696,-2.1696,-2.1696,-2.1696,-2.1696,-2.1696,-2.1696,-2.176,-2.2153,-2.2282,-2.2382,-2.295,-2.3288,-2.3526,-2.3721,-2.395,-2.4202,-2.4202,-2.4202,-2.4202,-2.4202,-2.4202,-2.4202,-2.4202,-2.4202,-2.4202,-2.4202,-2.4202,-2.4053,-2.3696,-2.3596,-2.3746,-2.4152,-2.4202,-2.4202,-2.4202,-2.4202,-2.4202,-2.4202,-2.4202,-2.4053,-2.3646,-2.2568,-2.1912,-2.1912,-2.0877,-1.9952,-1.9228,-1.8819,-1.8304,-1.7635,-1.7689,-1.7849,-1.7995,-1.8202,-1.8439,-1.8748,-1.8612,-1.8607]},{"header":{"parameterUnit":"m.s-1","parameterCategory":1,"la1":30.6,"la2":29.2853,"lo1":-89.7004,"lo2":-87.6739,"dy":0.0162,"dx":0.0183,"nx":112,"ny":82,"refTime":"2024-09-19T12:00:00:Z","depth":0,"parameterNumber":3,"parameterNumberName":"V-component_of_WINDS"},"data":[0.0,0.0,0.0,0.0,0.0,0.0,0.0,0.0,0.0,0.0,0.0,0.0,0.0,0.0,0.0,0.0,0.0,0.0,0.0,0.0,0.0,0.0,0.0,0.0,0.0,0.0,0.0,0.0,0.0,0.0,0.0,0.0,0.0,0.0,0.0,0.0,0.0,0.0,0.0,0.0,0.0,0.0,0.0,0.0,0.0,0.0,0.0,0.0,0.0,0.0,0.0,0.0,0.0,0.0,0.0,0.0,0.0,0.0,0.0,0.0,0.0,0.0,0.0,0.0,0.0,0.0,0.0,0.0,0.0,0.0,0.0,0.0,0.0,0.0,0.0,0.0,0.0,0.0,0.0,0.0,0.0,0.0,0.0,0.0,0.0,0.0,0.0,0.0,0.0,0.0,1.4096,1.5887,1.8764,2.0544,2.0544,1.9827,1.7952,1.462,0.0,0.0,0.0,0.0,0.0,0.0,0.0,0.0,0.0,0.0,0.0,0.0,0.0,0.0,0.0,0.0,0.0,0.0,0.0,0.0,0.0,0.0,0.0,0.0,0.0,0.0,0.0,0.0,0.0,0.0,0.0,0.0,0.0,0.0,0.0,0.0,0.0,0.0,0.0,0.0,0.0,0.0,0.0,0.0,0.0,0.0,0.0,0.0,0.0,0.0,0.0,0.0,0.0,0.0,0.0,0.0,0.0,0.0,0.0,0.0,0.0,0.0,0.0,0.0,0.0,0.0,0.0,0.0,0.0,0.0,0.0,0.0,0.0,0.0,0.0,0.0,0.0,0.0,0.0,0.0,0.0,0.0,0.0,0.0,0.0,0.0,0.0,0.0,0.0,0.0,0.0,0.0,0.0,0.0,0.0,0.0,0.0,0.0,0.0,0.0,0.0,0.0,0.0,0.0,1.4948,1.8742,2.0114,2.0761,2.0761,1.9578,1.7578,1.4676,0.0,0.0,0.0,0.0,0.0,0.0,0.0,0.0,0.0,0.0,0.0,0.0,0.0,0.0,0.0,0.0,0.0,0.0,0.0,0.0,0.0,0.0,0.0,0.0,0.0,0.0,0.0,0.0,0.0,0.0,0.0,0.0,0.0,0.0,0.0,0.0,0.0,0.0,0.0,0.0,0.0,0.0,0.0,0.0,0.0,0.0,0.0,0.0,0.0,0.0,0.0,0.0,0.0,0.0,0.0,0.0,0.0,0.0,0.0,0.0,0.0,0.0,0.0,0.0,0.0,0.0,0.0,0.0,0.0,0.0,0.0,0.0,0.0,0.0,0.0,0.0,0.0,0.0,0.0,0.0,0.0,0.0,0.0,0.0,0.0,0.0,0.0,0.0,0.0,0.0,0.0,0.0,0.0,0.0,0.0,0.0,0.0,0.0,0.0,0.0,0.0,0.0,0.0,1.4451,1.6104,1.9925,2.062,2.0794,2.0794,1.9514,1.7509,1.4723,1.3519,0.0,0.0,0.0,0.0,0.0,0.0,0.0,0.0,0.0,0.0,0.0,0.0,0.0,0.0,0.0,0.0,0.0,0.0,0.0,0.0,0.0,0.0,0.0,0.0,0.0,0.0,0.0,0.0,0.0,0.0,0.0,0.0,0.0,0.0,0.0,0.0,0.0,0.0,0.0,0.0,0.0,0.0,0.0,0.0,0.0,0.0,0.0,0.0,0.0,0.0,0.0,0.0,0.0,0.0,0.0,0.0,0.0,0.0,0.0,0.0,0.0,0.0,0.0,0.0,0.0,0.0,0.0,0.0,0.0,0.0,0.0,0.0,0.0,0.0,0.0,0.0,0.0,0.0,0.0,0.0,0.0,0.0,0.0,0.0,0.0,0.0,0.0,0.0,0.0,0.0,0.0,0.0,0.0,0.0,0.0,0.0,0.0,0.0,0.0,0.0,0.0,0.0,1.6244,1.749,2.0478,2.0794,2.0794,2.0794,1.9214,1.7162,1.4742,1.2973,0.0,0.0,0.0,0.0,0.0,0.0,0.0,0.0,0.0,0.0,0.0,0.0,0.0,0.0,0.0,0.0,0.0,0.0,0.0,0.0,0.0,0.0,0.0,0.0,0.0,0.0,0.0,0.0,0.0,0.0,0.0,0.0,0.0,0.0,0.0,0.0,0.0,0.0,0.0,0.0,0.0,0.0,0.0,0.0,0.0,0.0,0.0,0.0,0.0,0.0,0.0,0.0,0.0,0.0,0.0,0.0,0.0,0.0,0.0,0.0,0.0,0.0,0.0,0.0,0.0,0.0,0.0,0.0,0.0,0.0,0.0,0.0,0.0,0.0,0.0,0.0,0.0,0.0,0.0,0.0,0.0,0.0,0.0,0.0,0.0,0.0,0.0,0.0,0.0,0.0,0.0,0.0,0.0,0.0,0.0,0.0,0.0,0.0,0.0,0.0,0.0,0.0,1.6939,1.9088,2.062,2.0794,2.0794,2.0794,1.8299,1.6136,1.4695,1.2047,0.0,0.0,0.0,0.0,0.0,0.0,0.0,0.0,0.0,0.0,0.0,0.0,0.0,0.0,0.0,0.0,0.0,0.0,0.0,0.0,0.0,0.0,0.0,0.0,0.0,0.0,0.0,0.0,0.0,0.0,0.0,0.0,0.0,0.0,0.0,0.0,0.0,0.0,0.0,0.0,0.0,0.0,0.0,0.0,0.0,0.0,0.0,0.0,0.0,0.0,0.0,0.0,0.0,0.0,0.0,0.0,0.0,0.0,0.0,0.0,0.0,0.0,0.0,0.0,0.0,0.0,0.0,0.0,0.0,0.0,0.0,0.0,0.0,0.0,0.0,0.0,0.0,0.0,0.0,0.0,0.0,0.0,0.0,0.0,0.0,0.0,0.0,0.0,0.0,0.0,0.0,0.0,0.0,0.0,0.0,0.0,0.0,0.0,0.0,0.0,0.0,0.0,1.6231,1.8267,2.0557,2.0794,2.0794,2.0794,1.9024,1.6957,1.4742,0.0,0.0,0.0,0.0,0.0,0.0,0.0,0.0,0.0,0.0,0.0,0.0,0.0,0.0,0.0,0.0,0.0,0.0,0.0,0.0,0.0,0.0,0.0,0.0,0.0,0.0,0.0,0.0,0.0,0.0,0.0,0.0,0.0,0.0,0.0,0.0,0.0,0.0,0.0,0.0,0.0,0.0,0.0,0.0,0.0,0.0,0.0,0.0,0.0,0.0,0.0,0.0,0.0,0.0,0.0,0.0,0.0,0.0,0.0,0.0,0.0,0.0,0.0,0.0,0.0,0.0,0.0,0.0,0.0,0.0,0.0,0.0,0.0,0.0,0.0,0.0,0.0,0.0,0.0,0.0,0.0,0.0,0.0,0.0,0.0,0.0,0.0,0.0,0.0,0.0,0.0,0.0,0.0,0.0,0.0,0.0,0.0,0.0,0.0,0.0,0.0,0.0,1.43,1.6152,1.8157,2.0541,2.0794,2.0794,2.0794,1.9104,1.7049,1.4742,0.0,0.0,0.0,0.0,0.0,0.0,0.0,0.0,0.0,0.0,0.0,0.0,0.0,0.0,0.0,0.0,0.0,0.0,0.0,0.0,0.0,0.0,0.0,0.0,0.0,0.0,0.0,0.0,0.0,0.0,0.0,0.0,0.0,0.0,0.0,0.0,0.0,0.0,0.0,0.0,0.0,0.0,0.0,0.0,0.0,0.0,0.0,0.0,0.0,0.0,0.0,0.0,0.0,0.0,0.0,0.0,0.0,0.0,0.0,0.0,0.0,0.0,0.0,0.0,0.0,0.0,0.0,0.0,0.0,0.0,0.0,0.0,0.0,0.0,0.0,0.0,0.0,0.0,0.0,0.0,0.0,0.0,0.0,0.0,0.0,0.0,0.0,0.0,0.0,0.0,0.0,0.0,0.0,0.0,0.0,0.0,0.0,0.0,0.0,0.0,0.0,0.0,1.4411,1.7002,1.9246,2.0636,2.0794,2.0794,2.0794,1.8234,1.6041,0.0,0.0,0.0,0.0,0.0,0.0,0.0,0.0,0.0,0.0,0.0,0.0,0.0,0.0,0.0,0.0,0.0,0.0,0.0,0.0,0.0,0.0,0.0,0.0,0.0,0.0,0.0,0.0,0.0,0.0,0.0,0.0,0.0,0.0,0.0,0.0,0.0,0.0,0.0,0.0,0.0,0.0,0.0,0.0,0.0,0.0,0.0,0.0,0.0,0.0,0.0,0.0,0.0,0.0,0.0,0.0,0.0,0.0,0.0,0.0,0.0,0.0,0.0,0.0,0.0,0.0,0.0,0.0,0.0,0.0,0.0,0.0,0.0,0.0,0.0,0.0,0.0,0.0,0.0,0.0,0.0,0.0,0.0,0.0,0.0,0.0,0.0,0.0,0.0,0.0,0.0,0.0,0.0,0.0,0.0,0.0,0.0,0.0,0.0,0.0,0.0,0.0,0.0,1.4411,1.7002,1.9246,2.0636,2.0794,2.0794,2.0794,1.9226,1.7189,1.4754,0.0,0.0,0.0,0.0,0.0,0.0,0.0,0.0,0.0,0.0,0.0,0.0,0.0,0.0,0.0,0.0,0.0,0.0,0.0,0.0,0.0,0.0,0.0,0.0,0.0,0.0,0.0,0.0,0.0,0.0,0.0,0.0,0.0,0.0,0.0,0.0,0.0,0.0,0.0,0.0,0.0,0.0,0.0,0.0,0.0,0.0,0.0,0.0,0.0,0.0,0.0,0.0,0.0,0.0,0.0,0.0,0.0,0.0,0.0,0.0,0.0,0.0,0.0,0.0,0.0,0.0,0.0,0.0,0.0,0.0,0.0,0.0,0.0,0.0,0.0,0.0,0.0,0.0,0.0,0.0,0.0,0.0,0.0,0.0,0.0,0.0,0.0,0.0,0.0,0.0,0.0,0.0,0.0,0.0,0.0,0.0,0.0,0.0,0.0,0.0,0.0,0.0,1.4687,1.7218,1.9295,2.0403,2.0579,2.0663,2.0712,1.9606,1.7828,1.5315,0.0,0.0,0.0,0.0,0.0,0.0,0.0,0.0,0.0,0.0,0.0,0.0,0.0,0.0,0.0,0.0,0.0,0.0,0.0,0.0,0.0,0.0,0.0,0.0,0.0,0.0,0.0,0.0,0.0,0.0,0.0,0.0,0.0,0.0,0.0,0.0,0.0,0.0,0.0,0.0,0.0,0.0,0.0,0.0,0.0,0.0,0.0,0.0,0.0,0.0,0.0,0.0,0.0,0.0,0.0,0.0,0.0,0.0,0.0,0.0,0.0,0.0,0.0,0.0,0.0,0.0,0.0,0.0,0.0,0.0,0.0,0.0,0.0,0.0,0.0,0.0,0.0,0.0,0.0,0.0,0.0,0.0,0.0,0.0,0.0,0.0,0.0,0.0,0.0,0.0,0.0,0.0,0.0,0.0,0.0,0.0,0.0,0.0,0.0,0.0,0.0,0.0,1.5095,1.7531,1.9383,2.0091,2.0291,2.0478,2.0647,1.9638,1.8168,1.6216,0.0,0.0,0.0,0.0,0.0,0.0,0.0,0.0,0.0,0.0,0.0,0.0,0.0,0.0,0.0,0.0,0.0,0.0,0.0,0.0,0.0,0.0,0.0,0.0,0.0,0.0,0.0,0.0,0.0,0.0,0.0,0.0,0.0,0.0,0.0,0.0,0.0,0.0,0.0,0.0,0.0,0.0,0.0,0.0,0.0,0.0,0.0,0.0,0.0,0.0,0.0,0.0,0.0,0.0,0.0,0.0,0.0,0.0,0.0,0.0,1.4095,1.344,0.0,0.0,0.0,0.0,0.0,0.0,0.0,0.0,0.0,0.0,0.0,0.0,0.0,0.0,0.0,0.0,0.0,0.0,0.0,0.0,0.0,0.0,0.0,0.0,0.0,0.0,0.0,0.0,0.0,0.0,0.0,0.0,0.0,0.0,0.0,0.0,0.0,0.0,0.0,0.0,1.5034,1.7546,1.955,2.055,2.0443,2.0544,2.1087,2.0254,1.8888,1.6974,1.5495,0.0,0.0,0.0,0.0,0.0,0.0,0.0,0.0,0.0,0.0,0.0,0.0,0.0,0.0,0.0,0.0,0.0,0.0,0.0,0.0,0.0,0.0,0.0,0.0,0.0,0.0,0.0,0.0,0.0,0.0,0.0,0.0,0.0,0.0,0.0,0.0,0.0,0.0,0.0,0.0,0.0,0.0,0.0,0.0,0.0,0.0,0.0,0.0,0.0,0.0,0.0,0.0,0.0,0.0,0.0,0.0,0.0,0.0,0.0,1.6384,1.5636,0.0,0.0,0.0,0.0,0.0,0.0,0.0,0.0,0.0,0.0,0.0,0.0,0.0,0.0,0.0,0.0,0.0,0.0,0.0,0.0,0.0,0.0,0.0,0.0,0.0,0.0,0.0,0.0,0.0,0.0,0.0,0.0,0.0,0.0,0.0,0.0,0.0,0.0,0.0,0.0,1.5794,1.7986,1.9611,2.0172,2.0133,2.0308,2.0909,2.0304,1.943,1.8362,1.6703,0.0,0.0,0.0,0.0,0.0,0.0,0.0,0.0,0.0,0.0,0.0,0.0,0.0,0.0,0.0,0.0,0.0,0.0,0.0,0.0,0.0,0.0,0.0,0.0,0.0,0.0,0.0,0.0,0.0,0.0,0.0,0.0,0.0,0.0,0.0,0.0,0.0,0.0,0.0,0.0,0.0,0.0,0.0,0.0,0.0,0.0,0.0,0.0,0.0,0.0,0.0,0.0,0.0,1.8899,1.9205,1.9267,1.9823,2.0618,2.1416,1.8929,1.8394,1.9118,1.7072,0.0,0.0,0.0,0.0,0.0,0.0,0.0,0.0,0.0,0.0,0.0,0.0,0.0,0.0,0.0,0.0,0.0,0.0,0.0,0.0,0.0,0.0,2.021,1.9598,2.039,2.0453,1.7465,0.0,0.0,0.0,0.0,0.0,0.0,0.0,0.0,0.0,0.0,0.0,1.6789,1.8553,1.9647,1.9687,1.9747,2.0017,2.058,2.0289,1.9959,1.9707,1.798,1.6624,0.0,0.0,0.0,0.0,0.0,0.0,0.0,0.0,0.0,0.0,0.0,0.0,0.0,0.0,0.0,0.0,0.0,0.0,0.0,0.0,0.0,0.0,0.0,0.0,0.0,0.0,0.0,0.0,0.0,0.0,0.0,0.0,1.1734,1.2609,0.0,0.0,0.0,0.0,0.0,0.0,0.0,0.0,0.0,0.0,0.0,0.0,0.0,1.835,1.9155,2.1259,2.2336,2.2428,2.3363,2.3826,2.3826,2.392,2.4053,2.4175,2.3777,0.0,2.2195,2.0635,0.0,0.0,0.0,0.0,0.0,0.0,0.0,0.0,0.0,0.0,0.0,0.0,0.0,0.0,0.0,0.0,0.0,0.0,0.0,0.0,0.0,0.0,2.3404,2.3305,2.3421,2.3437,2.2957,1.9376,1.6204,1.6005,1.4739,1.3556,0.0,0.0,0.0,0.0,0.0,0.0,1.7431,1.8822,1.98,2.0102,1.9889,1.9995,2.0712,2.0716,2.0528,2.0143,1.9517,1.8853,1.8108,1.6011,0.0,0.0,0.0,0.0,0.0,0.0,0.0,0.0,0.0,0.0,0.0,0.0,0.0,0.0,0.0,0.0,0.0,0.0,0.0,0.0,0.0,0.0,0.0,0.0,0.0,0.0,0.0,0.0,0.0,1.1067,1.2648,1.3036,1.353,1.3368,0.0,0.0,0.0,0.0,0.0,0.0,0.0,0.0,0.0,1.8812,2.0207,2.1542,2.2788,2.3585,2.4178,2.4556,2.5004,2.5207,2.5207,2.5207,2.5323,2.5546,2.5546,2.5387,2.5005,2.3106,2.1404,1.9893,0.0,0.0,0.0,0.0,1.9012,1.9608,2.0853,2.1019,2.0669,2.0569,0.0,0.0,0.0,0.0,0.0,0.0,0.0,2.0936,2.1352,2.2865,2.4274,2.4274,2.4083,2.396,2.4222,2.2197,1.998,1.877,1.7383,1.5893,1.4229,1.349,0.0,0.0,0.0,1.6772,1.8087,1.9091,1.9747,1.9892,1.9782,1.9907,2.0412,2.0462,2.0471,2.0528,2.0159,1.9796,1.9472,1.7938,1.6563,0.0,0.0,0.0,0.0,0.0,0.0,0.0,0.0,0.0,0.0,0.0,0.0,0.0,0.0,0.0,0.0,0.0,0.0,0.0,0.0,0.0,0.0,0.0,0.0,0.0,0.0,0.0,0.0,1.2524,1.3765,1.4295,1.5059,1.509,0.0,0.0,0.0,0.0,0.0,0.0,1.7552,1.9723,2.1306,2.2045,2.3299,2.4543,2.5803,2.586,2.6114,2.6617,2.6617,2.6617,2.6617,2.6617,2.6796,2.7061,2.7061,2.7264,2.7395,2.5118,2.3491,2.2456,2.2177,2.1422,2.0686,2.2212,2.2845,2.3156,2.4812,2.5027,2.4497,2.4133,2.3171,2.1897,2.0789,0.0,0.0,0.0,0.0,2.3337,2.3884,2.4756,2.5509,2.5509,2.4997,2.4611,2.4961,2.4301,2.3101,2.1359,2.0099,1.8639,1.6435,1.57,0.0,1.635,1.7178,1.8162,1.9331,1.975,1.9944,1.9944,1.9813,1.98,2.005,2.0139,2.0378,2.0778,2.0606,2.053,2.062,1.9608,1.8485,1.7238,0.0,0.0,0.0,0.0,0.0,0.0,0.0,0.0,0.0,0.0,0.0,0.0,0.0,0.0,0.0,0.0,0.0,0.0,0.0,0.0,0.0,0.0,0.0,0.0,0.0,0.0,0.0,0.0,0.0,1.7821,1.8084,0.0,0.0,0.0,0.0,1.8313,1.969,2.1006,2.2283,2.3625,2.438,2.4433,2.6327,2.7375,2.7475,2.8723,2.9382,2.9412,2.9412,2.9412,2.9412,2.9412,2.9412,2.9439,2.9439,2.9424,2.9275,2.6738,2.5461,2.5083,2.4822,2.4669,2.468,2.5201,2.5635,2.5987,2.6103,2.6119,2.6203,2.6868,2.6553,2.5904,2.5838,2.5308,0.0,0.0,2.5889,2.7017,2.7066,2.7647,2.8207,2.8207,2.7303,2.6474,2.6494,2.5318,2.404,2.3383,2.2617,2.1836,2.0992,0.0,1.9917,2.0355,2.0449,2.0748,2.1455,2.1021,2.0643,2.0643,2.0079,1.9708,1.9711,2.0015,2.0378,2.0778,2.1087,2.14,2.1702,2.0986,2.0224,1.9452,1.6674,0.0,0.0,0.0,0.0,0.0,0.0,0.0,0.0,0.0,0.0,0.0,0.0,0.0,0.0,0.0,0.0,0.0,0.0,0.0,0.0,0.0,0.0,0.0,0.0,0.0,0.0,0.0,0.0,1.8488,1.9884,0.0,1.9378,2.0045,2.0752,2.125,2.2488,2.3603,2.4522,2.5809,2.6722,2.7171,2.8304,2.8888,2.8888,2.9367,2.9606,2.9606,2.9606,2.9606,2.9606,2.9606,2.9606,2.9606,2.9606,2.9606,2.9544,2.8627,2.7919,2.7436,2.7603,2.7396,2.706,2.7401,2.792,2.8429,2.8306,2.8254,2.8241,2.8061,2.7829,2.7611,2.7611,2.7429,2.7214,2.7214,2.7597,2.8011,2.8011,2.7984,2.7951,2.7951,2.7192,2.654,2.6798,2.615,2.5346,2.4744,2.3713,2.2499,2.1129,2.1225,2.1323,2.0794,2.1081,2.1425,2.1665,2.1485,2.1186,2.0748,2.0498,2.0168,1.9738,1.98,1.9942,2.0083,2.0412,2.0648,2.0764,2.0971,2.0518,1.93,1.8058,1.5994,0.0,0.0,0.0,0.0,0.0,0.0,0.0,0.0,0.0,0.0,0.0,0.0,0.0,0.0,0.0,0.0,0.0,0.0,0.0,0.0,0.0,0.0,0.0,0.0,0.0,1.8066,1.9764,2.0058,2.1614,2.2405,2.1744,2.2697,2.361,2.429,2.5136,2.6004,2.6901,2.7794,2.8483,2.8921,2.9564,2.9894,2.9894,3.0118,3.0238,3.0238,3.0238,3.0238,3.0238,3.0238,3.0238,3.0238,3.0238,3.0238,3.0238,3.0238,2.9983,2.9562,2.9565,2.9421,2.9228,2.9569,3.0139,3.0685,3.057,3.051,3.0444,3.0,2.9851,2.9801,2.9549,2.9483,2.9397,2.8992,2.8865,2.8865,2.8865,2.8629,2.8406,2.8406,2.7677,2.6994,2.7074,2.6509,2.5872,2.5468,2.4627,2.3493,2.1939,2.2284,2.2484,2.1794,2.2054,2.2338,2.2338,2.2158,2.1879,2.1425,2.1171,2.0767,2.0094,2.0034,1.9984,1.9887,2.012,2.0361,2.0548,2.0751,2.0438,1.9656,1.8728,1.6948,1.4272,0.0,0.0,0.0,0.0,0.0,0.0,0.0,0.0,0.0,0.0,0.0,0.0,0.0,0.0,0.0,0.0,0.0,0.0,0.0,0.0,0.0,0.0,0.0,1.9537,2.0605,2.1776,2.2742,2.3356,2.3699,2.3714,2.4321,2.5531,2.751,2.766,2.8244,2.9577,2.9636,2.9651,2.9666,3.0238,3.0567,3.0567,3.1227,3.157,3.157,3.157,3.157,3.157,3.157,3.157,3.157,3.157,3.1555,3.1525,3.1525,3.1525,3.1433,3.0659,3.068,3.12,3.175,3.2266,3.2702,3.2702,3.2702,3.2702,3.2702,3.268,3.2525,3.1824,3.1588,3.1352,3.0201,2.9836,2.9836,2.9842,2.9804,2.9804,2.981,2.8948,2.7973,2.7458,2.648,2.5659,2.5644,2.547,2.4976,2.3831,2.3646,2.3646,2.361,2.3595,0.0,2.3595,2.3092,2.2718,2.2703,2.2134,2.1455,2.0763,2.0707,2.0575,2.022,2.0326,2.0679,2.1262,2.0429,2.0195,2.0702,1.8656,1.7271,1.6622,0.0,0.0,0.0,0.0,0.0,0.0,0.0,0.0,0.0,0.0,0.0,0.0,0.0,0.0,0.0,0.0,0.0,0.0,0.0,0.0,0.0,2.0686,2.1673,2.108,2.2807,2.4131,2.4104,2.5093,2.5959,2.6447,2.7111,2.7934,2.8978,2.9052,2.9412,3.0208,3.0253,3.0477,3.0957,3.1629,3.1958,3.1958,3.2632,3.2961,3.2961,3.2961,3.2961,3.2961,3.2961,3.2961,3.2961,3.2961,3.2677,3.2213,3.2213,3.1929,3.1523,3.1751,3.1909,3.21,3.2535,3.2691,3.2702,3.2702,3.2702,3.2702,3.2702,3.2455,3.2085,3.1883,3.1506,3.1174,3.1281,3.1005,3.0664,3.0626,3.0266,2.9915,2.9819,2.9294,2.879,2.8652,2.8054,2.7302,2.648,2.6288,2.5815,2.4552,2.4608,2.4557,2.3713,2.3595,2.3595,2.3595,2.3445,2.3176,2.2748,2.2538,2.1949,2.0793,2.0906,2.0821,2.0237,2.0512,2.0778,2.1007,2.1005,2.0968,2.091,1.8538,1.7235,0.0,0.0,0.0,0.0,0.0,0.0,0.0,0.0,0.0,0.0,0.0,0.0,0.0,0.0,0.0,0.0,0.0,0.0,0.0,0.0,0.0,0.0,2.3169,2.4217,2.4625,2.5468,2.6061,2.6114,2.6904,2.7694,2.8378,2.8798,2.928,2.9924,2.9968,3.0253,3.0883,3.1195,3.1524,3.1899,3.2557,3.2931,3.2931,3.3305,3.3499,3.3499,3.3499,3.3499,3.3499,3.3499,3.3499,3.3499,3.3499,3.3275,3.2931,3.2931,3.2706,3.2332,0.0,0.0,0.0,0.0,3.3014,3.2909,3.2909,3.3085,3.3283,3.3283,3.3236,3.3099,3.2789,3.2296,3.1845,3.1933,3.151,3.1082,3.1313,3.0973,3.0498,3.0131,2.9702,2.9226,2.8732,2.8383,2.796,2.7229,2.7105,0.0,2.563,2.544,2.5122,2.4155,2.4007,2.3924,2.364,2.3595,2.346,2.3122,2.3092,2.2658,2.1664,2.15,0.0,0.0,0.0,2.0404,2.0156,2.0716,0.0,0.0,0.0,0.0,0.0,1.9016,0.0,0.0,1.7935,1.7489,0.0,0.0,0.0,0.0,0.0,0.0,0.0,0.0,0.0,0.0,0.0,0.0,0.0,0.0,0.0,0.0,2.5474,2.7034,2.8881,2.8169,2.769,2.8293,2.858,2.8966,2.9651,2.9711,2.9939,3.0567,3.0687,3.1001,3.1585,3.2243,0.0,0.0,0.0,3.3604,3.3604,3.3679,3.3724,3.3724,3.3724,3.3724,3.3724,3.3724,3.3724,3.3724,3.3724,3.3679,3.3604,3.3604,3.3559,3.3365,3.2182,3.2072,3.2655,3.3044,3.3182,3.3182,3.3182,0.0,0.0,3.4101,3.4423,3.4695,3.4034,3.349,3.2951,3.2416,3.1798,3.1408,3.1934,3.1726,3.1211,3.0577,3.0123,2.953,2.8421,2.8185,2.8105,2.7855,2.779,2.757,2.6861,2.6153,2.5495,2.4814,2.4709,2.447,2.3826,2.3736,2.3706,2.3653,2.3653,0.0,2.2883,2.2299,2.1758,2.12,2.0773,2.0227,1.9592,2.0366,2.0701,2.0471,2.1652,2.2452,2.28,2.3457,2.3618,2.3205,1.9057,1.8452,0.0,0.0,0.0,0.0,0.0,0.0,0.0,0.0,0.0,0.0,0.0,0.0,0.0,0.0,0.0,2.7247,2.7885,2.8508,2.9857,2.9514,2.9173,2.9294,2.939,2.9639,3.0268,3.0328,3.0612,3.1256,3.1795,3.2183,3.2288,3.2946,3.3305,3.3305,3.3948,3.4324,3.4324,3.4831,3.5115,3.5115,3.5115,0.0,3.5115,3.5115,3.5115,3.5115,3.5115,3.4801,3.4324,3.4324,3.3978,3.3471,3.3162,3.3367,3.3814,3.335,3.3182,3.3182,3.3182,3.3594,3.4101,3.4101,3.4193,3.4317,3.417,3.3809,0.0,3.386,3.3239,3.2468,3.2485,3.1777,3.1001,3.0713,3.0567,3.0304,2.9521,2.9381,2.9055,2.8006,2.779,2.7745,2.76,2.6915,2.6183,2.5501,2.5397,2.5204,2.4634,2.4581,2.4393,2.3964,2.3903,2.3667,2.3021,2.3084,2.291,2.2254,2.2749,2.2877,2.2423,2.2697,2.2782,2.2682,2.2689,2.2729,2.2802,2.2947,2.3096,2.327,2.2099,2.1843,0.0,0.0,0.0,0.0,0.0,0.0,0.0,0.0,0.0,0.0,0.0,2.3496,2.4642,0.0,2.7822,2.9128,2.969,3.0148,3.072,3.0624,3.0398,3.0098,3.0043,3.0298,3.0928,3.0987,3.1271,3.1944,3.2303,3.2662,3.2991,3.3634,3.3978,3.3978,3.4637,3.4996,3.4996,3.5325,3.5504,3.5504,3.5504,3.5504,3.5504,3.5504,3.5504,3.5504,3.5504,3.531,3.4996,3.4996,3.4801,3.4459,3.4106,3.392,3.3802,3.3477,3.3339,3.3293,3.2954,3.3236,3.3677,3.3356,3.3449,3.3716,3.3783,3.3407,3.3161,3.385,3.3413,3.2779,3.3087,3.2802,3.2254,3.1549,3.1387,3.1199,3.0266,3.0051,2.9749,2.8687,2.8515,2.8444,2.8275,2.771,2.7043,2.6309,2.626,2.6042,2.5379,2.5349,2.516,2.4544,2.4505,2.4268,2.3661,2.365,2.3406,2.2737,2.3103,2.3259,2.3064,2.3081,2.3081,2.3048,2.3399,2.3674,2.3812,2.4181,2.4518,2.481,2.4658,2.4398,0.0,0.0,0.0,0.0,0.0,0.0,0.0,0.0,2.1795,2.3108,2.5544,2.7435,2.7332,2.9031,3.0425,3.0377,3.0954,3.1429,3.1486,3.1474,3.1284,3.091,3.0758,3.0898,3.1451,3.1615,3.1914,3.2452,3.2751,3.3125,3.3664,3.4322,3.4698,3.4698,3.522,3.5504,3.5504,3.5504,3.5504,3.5504,3.5504,3.5504,3.5504,3.5504,3.5504,3.5504,3.5504,3.5504,3.5504,3.5504,3.5504,3.5444,3.4923,3.4352,3.3858,3.3589,3.3499,3.3425,3.2886,3.3164,3.3717,3.3147,3.3448,3.4024,3.3963,3.3499,3.3137,3.3726,3.3298,3.283,3.3429,3.3678,3.3508,3.2499,3.2392,3.2269,3.1134,3.0907,3.0664,2.9865,2.9533,2.9255,2.8982,2.8442,2.7847,2.7261,2.717,2.6927,2.6174,2.6168,2.5978,2.5331,2.5255,2.5018,2.4453,2.4278,2.3891,2.3217,2.3243,2.3246,2.3169,2.3404,2.3502,2.3427,2.4412,2.5032,2.5264,2.5738,2.6106,2.6311,2.6503,2.6211,1.686,1.6888,1.7457,1.9734,2.0089,2.1088,0.0,0.0,2.6834,2.8057,2.9463,3.0368,2.9975,3.0632,3.1284,3.1311,3.1388,3.1604,3.2194,3.1817,3.1662,3.2136,3.1704,3.1421,3.1496,3.2034,3.2407,3.2482,3.3589,3.4324,3.4399,3.5011,3.5385,3.5385,3.5459,3.5504,3.5504,3.5504,3.5504,3.5504,3.5504,3.5504,3.5504,3.5504,3.5504,3.5504,3.5504,3.5504,3.5504,3.5504,3.5504,3.5489,3.5429,3.534,3.513,3.3933,3.3499,3.3484,3.341,3.4217,3.5225,3.5051,3.5888,3.6879,3.6108,3.5539,3.5083,3.4685,3.3799,3.2986,3.3198,3.3277,3.3235,3.3103,3.3451,3.3587,3.2869,3.2708,3.2474,3.1662,3.064,2.9893,2.9847,2.8905,2.8238,2.845,2.8146,2.768,2.7115,2.707,2.6818,2.622,2.6143,2.5889,2.5213,2.5155,2.4858,2.4199,2.4464,2.4524,2.4153,2.5445,2.6017,2.5654,2.6397,2.6809,2.6846,2.6505,2.6348,2.6395,2.7011,2.6919,2.0194,2.0782,2.1424,2.2824,2.3898,2.5216,2.7513,2.8719,2.9455,2.9833,3.1198,3.206,3.1152,3.1931,3.2408,3.1631,3.2362,3.2772,3.2005,3.2244,3.2185,3.1405,3.1428,3.1645,3.2034,3.2333,3.2826,3.3604,3.4158,3.4683,3.5055,3.5355,3.5504,3.5504,3.5504,3.5504,3.5504,3.5504,3.5504,3.5504,3.5504,3.5504,3.5504,3.5504,3.5504,3.5504,3.5504,3.5504,3.5504,3.5504,3.5504,3.5504,3.5504,3.5504,3.5429,3.4876,3.4666,3.4607,3.4203,3.4486,3.4966,3.4566,3.5143,3.5916,3.5658,3.5625,3.5594,3.5107,3.4549,3.4048,3.3736,3.3894,3.4053,3.3742,3.407,3.4227,3.3306,3.3131,3.2806,3.1769,3.117,3.0766,3.0658,2.967,2.9039,2.9437,2.8781,2.8119,2.7828,2.7846,2.7656,2.7003,2.6595,2.6241,2.5964,2.6159,2.6186,2.5889,2.6026,2.6047,2.5873,2.623,2.6365,2.6246,2.6542,2.6869,2.7275,2.7079,2.718,2.7565,2.7857,2.8042,2.2303,2.323,2.4078,2.5107,2.6645,2.8067,2.8654,3.0067,3.1171,3.0925,3.2093,3.2846,3.1831,3.2444,3.2788,3.1754,3.2851,3.3329,3.1953,3.2508,3.2574,3.1187,3.1311,3.1765,3.2422,3.2677,3.3185,3.4159,3.4578,3.4981,3.5474,3.5504,3.5504,3.5504,3.5504,3.5504,3.5504,3.5504,3.5504,3.5504,3.5504,3.5504,3.5504,3.5504,3.5504,3.5504,3.5504,3.5537,3.5554,3.5554,3.5668,3.5893,3.5893,3.6005,3.6148,3.6148,3.5973,3.5689,3.5381,3.5523,3.5719,3.5241,3.5624,3.6265,3.6105,3.6189,3.6217,3.558,3.5068,3.4542,3.3994,3.409,3.4268,3.3869,3.4194,3.4382,3.3588,3.3433,3.3144,3.228,3.1835,3.1581,3.1423,3.057,3.0008,3.0353,2.9694,2.8958,2.833,2.8348,2.8211,2.7734,2.7226,2.6872,2.6672,2.6934,2.7039,2.6851,2.6835,2.6835,2.6835,2.6816,2.6814,2.6867,2.7053,2.7395,2.7868,2.7743,2.7934,2.8411,2.8596,2.895,2.2186,2.2944,2.4116,2.6299,2.7647,2.8788,2.9986,3.1334,3.2242,3.1853,3.2308,3.2637,3.2092,3.1896,3.1841,3.1799,3.2385,3.274,3.2407,3.2629,3.2681,3.2388,3.1838,3.1765,3.2422,3.3095,3.3484,3.3529,3.4741,3.5489,3.5504,3.5504,3.5504,3.5504,3.5504,3.5504,3.5504,3.5504,3.5504,3.5504,3.5504,3.5504,3.5504,3.5504,3.5504,3.5504,3.5504,3.5572,3.5688,3.5688,3.6134,3.6875,3.6875,3.7221,3.7735,3.7735,3.7145,3.6461,3.707,3.7889,3.8531,3.8409,3.8989,3.958,3.8748,3.8105,3.7419,3.6298,3.5079,3.4011,3.3537,3.3341,3.3235,3.3251,3.364,3.4011,3.3969,3.3986,3.3969,3.3928,3.2978,3.2161,3.2171,3.1602,3.1153,3.1153,3.1137,3.0467,2.8638,2.8411,2.8396,2.8381,2.835,2.8088,2.7411,2.7388,2.7111,2.6449,2.6425,2.6425,2.6425,2.7462,2.8037,2.8037,2.8702,2.9027,2.9058,2.859,2.8381,2.8427,2.9073,2.9371,2.3856,2.493,2.6092,2.816,2.9562,3.0612,3.1277,3.2278,3.2756,3.1634,3.1366,3.1062,3.0164,2.9902,2.9999,3.0534,3.1781,3.2507,3.2055,3.3038,3.313,3.1354,3.1745,3.1884,3.1255,3.2183,3.32,3.4114,3.4562,3.5026,3.5489,3.5504,3.5504,3.5504,3.5504,3.5504,3.5504,3.5504,3.5504,3.5504,3.5504,3.5504,3.5504,3.5504,3.5701,3.6116,3.6116,3.643,3.6935,3.6538,3.6799,3.7472,3.7071,3.7265,3.7835,3.8246,3.7933,3.7354,3.7589,3.7905,3.823,3.8173,3.8458,3.8789,3.8504,3.827,3.7915,3.7025,3.6506,3.6009,3.5366,3.51,3.4993,3.4993,3.5012,3.4975,3.4601,3.4529,3.4431,3.4061,3.3666,3.3405,3.3405,3.2851,3.2127,3.1337,3.1086,3.0529,2.9218,2.8933,2.8748,2.842,2.8411,2.8319,2.8088,2.8057,2.7965,2.7734,2.7734,2.7734,2.7734,2.81,2.8303,2.8303,2.852,2.8645,2.8645,2.8916,2.9048,2.9089,2.974,3.0294,2.5246,2.6559,2.776,2.9502,3.0691,3.149,3.1749,3.2158,3.2124,3.0926,3.0149,2.9459,2.8718,2.8329,2.849,2.9679,3.125,3.2308,3.2187,3.3498,3.3771,3.1909,3.2377,3.2527,3.1659,3.2362,3.3215,3.4099,3.4608,3.504,3.5489,3.5504,3.5504,3.5504,3.5504,3.5522,3.5572,3.5572,3.5733,3.6005,3.6005,3.6116,3.6321,3.6321,3.6523,3.689,3.6662,3.689,3.7354,3.6784,3.6966,3.7605,3.7237,3.7458,3.8051,3.8652,3.8486,3.7994,3.8124,3.8108,3.8035,3.8035,3.8165,3.8334,3.8574,3.8629,3.8531,3.8063,3.7736,3.7389,3.6702,3.6307,3.604,3.604,3.5762,3.5423,3.5037,3.4609,3.4251,3.4059,3.3843,3.3767,3.396,3.3795,3.3364,3.2595,3.2318,3.1602,2.9958,2.9623,2.942,2.9057,2.9002,2.8965,2.8905,2.8748,2.8668,2.8668,2.8493,2.8468,2.8629,2.8493,2.8576,2.8986,2.8848,2.8889,2.9135,2.9541,2.9756,2.9771,3.0458,3.0982,2.6305,2.776,2.9072,3.0265,3.1017,3.1496,3.1466,3.1112,3.0558,2.9818,2.8702,2.7813,2.7599,2.7164,2.7397,2.9195,3.0888,3.215,3.2732,3.397,3.4559,0.0,0.0,3.356,3.353,3.356,3.3575,3.3575,3.4726,3.5474,3.5504,3.5504,3.5504,3.5537,3.5537,3.5572,3.572,3.5752,3.6165,3.6951,3.692,3.7191,3.7764,3.7764,3.7764,3.7719,3.7175,3.7011,3.7086,3.6492,3.6738,3.7506,3.7476,3.7825,3.8446,3.9028,3.8849,3.8407,3.8706,3.8539,3.8157,3.8157,3.8254,3.8446,3.9028,3.9179,3.9152,3.9152,3.8709,3.8058,3.7454,3.6864,3.6381,3.6301,3.5883,3.5473,3.5331,3.4397,3.3685,3.4062,3.3707,3.3469,3.3995,3.448,3.4793,3.4793,3.4599,3.3501,3.0871,3.0505,3.0456,3.0219,3.0188,3.0107,2.9905,2.9482,2.9231,2.9208,2.8833,2.8786,2.9231,2.8833,2.9097,3.0188,2.975,2.9832,3.0438,3.0484,3.0474,3.0463,3.1136,3.1455,2.7715,2.9052,3.0235,3.1032,3.1376,3.1405,3.1065,3.0585,2.9728,2.8061,2.6746,2.5567,2.4496,2.5026,2.6138,2.7703,3.0675,0.0,3.2921,3.4894,0.0,3.3985,0.0,3.444,3.391,3.4303,3.4636,3.4636,3.4704,3.5015,3.5623,3.5638,3.5718,3.5861,3.5861,3.5893,3.5926,3.6368,3.6905,3.756,3.7131,3.6981,3.7131,3.7131,3.7131,3.7161,3.7442,3.7663,3.7812,3.7193,3.765,3.8701,3.8238,3.8712,3.9653,3.9799,3.9497,3.8974,3.9071,3.9017,3.892,3.892,3.8947,3.9001,3.9152,3.8892,3.8546,3.8546,3.8416,3.8131,3.7524,3.7501,3.7406,3.6526,3.6792,3.7128,3.6653,3.6224,3.5949,3.6064,3.5475,3.5045,3.5178,3.4975,3.4793,3.4793,3.408,3.3237,3.2423,3.2215,3.195,3.1562,3.1523,3.134,3.0879,3.1101,3.1101,3.0687,3.0935,3.1148,3.1264,3.1148,3.1228,3.1499,3.1397,3.1214,3.1017,3.1495,3.154,3.1151,3.1828,3.2136,2.9097,3.0178,3.1017,3.1406,3.1271,3.0836,3.0003,2.9173,2.792,2.5637,2.4465,2.3392,2.1957,2.3152,2.4888,0.0,0.0,0.0,3.3417,3.5232,3.6091,0.0,3.5184,0.0,3.4926,3.523,3.5443,3.5443,3.5255,3.5358,3.5816,3.6086,3.6274,3.6383,3.6631,3.6829,3.6874,3.7294,3.7677,3.8023,3.7677,3.7501,3.7501,3.7501,3.7501,3.7531,3.7879,3.8096,3.8169,3.7825,3.8141,3.8767,3.8418,3.8695,3.9322,3.9322,3.9109,3.881,3.881,3.8974,3.9152,3.8892,3.881,3.8849,3.9125,3.8974,3.8739,3.9011,3.9092,3.9011,3.8684,3.8768,3.8828,3.8133,3.8226,3.8363,3.7953,3.7428,3.702,3.6939,3.6767,3.6495,3.618,3.5883,3.5562,3.5205,3.4633,3.4219,3.4152,3.3441,3.2859,3.2754,3.2744,3.2606,3.2203,3.2263,3.2177,3.1875,3.1962,3.2101,3.2308,3.2101,3.2131,3.2392,3.2176,3.196,3.1717,3.2107,3.2135,3.1844,3.2213,3.2398,3.034,3.1076,3.1511,3.1568,3.0984,3.0043,2.8809,2.7375,2.5612,2.3083,0.0,2.1344,2.0064,2.1568,2.3682,2.572,0.0,3.1827,3.3917,3.5263,3.6088,3.6196,3.6116,3.61,3.6195,3.6195,3.6211,3.629,3.629,3.6274,3.6148,3.6723,3.7011,3.6966,3.7472,3.7806,3.7917,3.8177,3.8306,3.8306,3.8238,3.8181,3.8165,3.825,3.8266,3.821,3.8351,3.8362,3.8306,3.8306,3.8351,3.8435,3.8435,3.8474,3.853,3.853,3.853,3.853,3.853,3.8876,3.9232,3.8629,3.8474,3.8657,3.9162,3.9312,3.9418,3.9944,4.0096,4.007,3.9995,4.0045,4.0045,3.9901,3.9575,3.9278,3.9059,3.8231,3.7462,3.7252,3.7582,3.7702,3.7066,3.6863,3.6575,3.5853,3.5622,3.5515,3.56,3.4374,3.3636,3.3938,3.3964,3.3851,3.3616,3.3294,3.304,3.2973,3.2656,3.2656,3.3079,3.2702,3.2718,3.325,3.2867,3.2665,3.2722,3.2722,3.2668,3.2629,3.2629,3.2676,3.1336,3.1536,3.1568,3.1855,3.0822,2.948,2.8364,2.6181,0.0,0.0,2.0546,1.9699,1.9451,2.0639,2.2655,2.576,2.8615,3.134,3.3838,3.5433,3.6297,0.0,3.632,3.66,3.7118,3.7148,3.7356,3.7851,3.7908,3.7618,3.6951,3.7469,3.7661,3.7312,3.7401,3.749,3.7504,3.8039,3.8306,3.8278,3.7796,3.7549,3.7578,3.8067,3.8039,3.7608,3.8618,3.8767,3.8306,3.8306,3.8601,3.9028,3.9028,3.9365,3.9799,3.9799,3.9799,3.9799,3.9799,3.985,3.9825,3.9242,3.9391,3.9799,3.9901,3.9927,3.9969,4.007,4.0096,3.9995,3.9487,3.9722,3.985,3.8849,3.9295,3.9791,3.9294,3.8923,3.853,3.7896,3.7834,3.7872,3.7736,3.7195,3.6761,3.6626,3.5649,3.5091,3.5554,3.5356,3.522,3.5262,3.5284,3.5081,3.4609,3.4885,3.4907,3.4475,3.477,3.5015,3.5082,3.5015,3.502,3.5132,3.5063,3.4795,3.4366,3.4366,3.4144,3.3716,3.3716,3.4079,3.1673,3.1769,3.1712,3.194,3.0613,2.8882,2.7312,0.0,0.0,0.0,1.911,1.8623,1.8269,1.9902,0.0,2.3902,2.6492,2.9308,3.2312,3.364,3.4827,3.6199,3.6445,3.66,3.6892,3.6922,3.7058,3.7326,3.765,3.765,3.7266,3.7546,3.7735,3.7854,3.7883,3.7883,3.7883,3.8463,3.8601,3.8306,3.8322,3.8153,3.7883,3.8181,3.8153,3.7911,3.881,3.9028,3.8794,3.9109,3.9418,3.967,3.967,3.9867,4.0045,3.9747,3.9825,4.0045,3.9747,3.9825,4.0045,3.9747,3.985,4.0096,4.0096,4.0096,4.0096,4.0096,4.0096,4.002,3.9747,3.9876,3.9952,3.9375,3.9679,4.002,3.9722,3.9623,3.9462,3.9106,3.9039,3.892,3.8531,3.8176,3.7804,3.7432,3.6814,3.6357,3.6242,3.6214,3.6062,3.5633,3.56,3.5509,3.5247,3.5447,3.5492,3.5224,3.5447,3.56,3.56,3.56,3.547,3.5201,3.5178,3.4927,3.4366,3.4783,3.4688,3.4106,3.4856,3.5069,3.1617,3.1834,3.187,3.2053,3.0426,2.8293,2.6504,2.384,0.0,0.0,1.8022,1.7775,1.7543,0.0,2.1039,0.0,2.4461,2.7211,3.0856,3.1956,3.3465,0.0,3.6569,0.0,3.6861,3.6769,3.6754,3.6892,3.7208,3.7476,3.7578,3.746,3.7637,3.8096,3.8222,3.8238,3.8124,3.8838,3.8892,3.8322,3.8767,3.8767,3.8306,3.8418,3.849,3.8546,3.9135,3.9391,3.9418,3.9901,4.0096,4.0096,4.0096,4.0096,4.0045,3.9566,3.9696,4.002,3.9549,3.9696,4.0096,4.0096,4.0096,4.0096,4.0096,4.0096,4.0096,4.0096,4.0096,4.0096,4.0096,4.0096,4.0096,4.0096,4.0096,4.0096,4.0096,4.0096,4.0096,4.0096,4.0096,3.9926,3.9351,3.9089,3.8802,3.8227,3.8007,3.7702,3.7094,3.7049,3.6789,3.6157,3.5802,3.56,3.56,3.56,3.56,3.56,3.56,3.5667,3.5859,3.5853,3.5744,3.5481,3.5345,3.5127,3.4832,3.5201,3.5253,3.5027,3.6003,3.6039,3.1219,3.1637,3.2038,3.2287,3.0219,2.7795,2.6635,0.0,2.0244,1.8842,1.7583,1.7107,1.8259,1.847,1.953,0.0,0.0,2.6063,3.0588,3.1887,3.3571,3.6749,0.0,0.0,3.8039,3.7621,3.7549,3.808,3.7679,3.7637,3.821,3.7679,3.7447,3.749,3.801,3.8039,3.749,3.8618,3.8892,3.8306,3.8379,3.8334,3.8306,3.8865,3.9125,3.9152,3.9747,4.002,4.002,4.0087,4.0096,4.0096,4.0096,4.0096,4.0096,4.0045,4.0045,4.0096,4.0045,4.0045,4.0096,4.0096,4.0096,4.0096,4.0096,4.0096,4.0096,4.0096,4.0096,4.0096,4.0096,4.0096,4.0096,4.0096,4.0096,4.0096,4.0096,4.0096,4.0096,4.0096,4.0096,4.0079,4.0011,3.9453,3.8971,3.8903,3.8328,3.7889,3.7821,3.7804,3.777,3.7702,3.6428,3.56,3.56,3.56,3.56,3.56,3.56,3.5943,3.666,3.6694,3.6969,3.7597,3.7078,3.7053,3.7542,3.653,3.6563,3.7554,3.7145,3.7256,3.0968,3.1714,3.2071,3.1835,2.9997,2.7791,2.6127,0.0,2.0188,1.8672,1.7418,1.6968,1.8144,1.8269,1.8994,0.0,0.0,0.0,2.6855,2.8326,3.0481,3.4372,3.512,3.5929,3.76,3.7208,3.7118,3.7709,3.7549,3.765,3.8266,3.7738,3.7578,3.794,3.8165,3.8165,3.7953,3.8783,3.9082,3.8865,3.9216,3.9375,3.9401,3.9627,3.9747,3.9747,3.9995,4.0096,4.0096,4.0096,4.0096,4.0096,4.0096,4.0096,4.0096,4.0096,4.0096,4.0096,4.0096,4.0096,4.0096,4.0096,4.0096,4.0096,4.0096,4.0096,4.0096,4.0096,4.0096,4.0096,4.0096,4.0096,4.0096,4.0096,4.0096,4.0096,4.0096,4.0096,4.0096,4.0096,4.0096,4.0096,4.0096,3.9859,3.9673,3.9673,3.9419,3.9056,3.8616,3.8565,3.8396,3.7956,3.7364,3.6969,3.6969,3.6969,3.6969,3.6969,3.6969,3.7127,3.7449,3.7449,3.7601,3.7905,3.7655,3.7672,3.7905,3.7853,3.7902,3.802,3.8581,3.8633,2.9812,3.0918,3.1569,3.1201,2.9427,2.7326,0.0,2.282,2.0099,1.8625,1.746,1.7074,1.8263,1.8315,1.8796,2.0655,2.1018,2.2092,2.4937,2.6377,2.8702,3.2946,3.3889,3.4905,3.6848,3.6853,3.7013,3.7621,3.7666,3.794,3.8546,3.8153,3.8055,3.8278,3.8474,3.8574,3.8574,3.9162,3.9487,3.947,3.9893,4.0096,4.0096,4.0096,4.0096,4.0096,4.0096,4.0096,4.0096,4.0096,4.0096,4.0096,4.0096,4.0096,4.0096,4.0096,4.0096,4.0096,4.0096,4.0096,4.0096,4.0096,4.0096,4.0096,4.0096,4.0096,4.0096,4.0096,4.0096,4.0096,4.0096,4.0096,4.0096,4.0096,4.0096,4.0096,4.0096,4.0096,4.0096,4.0096,4.0096,4.0096,4.0096,4.0096,4.0096,4.0096,4.0096,3.991,3.9402,3.9326,3.9123,3.8616,3.8548,3.8379,3.7939,3.7905,3.7905,3.7905,3.7905,3.8007,3.8227,3.8227,3.8328,3.8548,3.8377,3.836,3.8548,3.8698,3.8755,3.8703,3.947,3.9391,2.7442,2.8904,3.0417,3.0402,2.8356,2.6142,2.545,2.2606,1.9823,1.8805,1.7736,1.7426,1.8834,1.8603,1.889,2.0956,2.1565,0.0,2.6128,2.7339,2.9355,0.0,3.3562,3.4114,3.5937,3.6896,3.7621,3.8266,3.8278,3.8546,3.9152,3.9162,3.892,3.8306,3.8892,3.9206,3.9206,3.9799,4.0096,4.0096,4.0096,4.0096,4.0096,4.0096,4.0096,4.0096,4.0096,4.0096,4.0096,4.0096,4.0096,4.0096,4.0096,4.0096,4.0096,4.0096,4.0096,4.0096,4.0096,4.0096,4.0096,4.0096,4.0096,4.0096,4.0096,4.0096,4.0096,4.0096,4.0096,4.0096,4.0096,4.0096,4.0096,4.0096,4.0096,4.0096,4.0096,4.0096,4.0096,4.0096,4.0096,4.0096,4.0096,4.0096,4.0096,4.0096,4.0096,4.0096,4.0096,4.0096,4.0096,4.0079,4.0079,3.9503,3.8024,3.7905,3.7905,3.7905,3.7905,3.8227,3.8954,3.8988,3.9326,4.0062,3.948,3.948,4.0079,3.8887,3.8914,4.007,3.947,3.9206,2.5025,2.6419,2.7388,2.645,2.5753,2.4807,2.2975,2.1447,1.9899,1.803,1.7309,1.7233,1.7932,1.8141,1.928,2.2605,2.316,2.4084,0.0,0.0,0.0,3.2373,3.468,3.6355,3.6924,3.7236,3.7825,3.8838,3.892,3.9189,3.9773,3.9825,3.9722,3.9549,3.9722,4.0051,4.0572,4.0771,4.1102,4.1593,4.1593,4.1593,4.1593,4.1593,4.1322,4.0849,4.0849,4.0561,4.0096,4.0096,4.0096,4.0096,4.0096,4.0096,4.0096,4.0096,4.0096,4.0096,4.0096,4.0096,4.0096,4.0096,4.0096,4.0096,4.0096,4.0096,4.0096,4.0096,4.0096,4.0096,4.0096,4.0096,4.0096,4.0096,4.0096,4.0096,4.0096,4.0096,4.0096,4.0096,4.0096,4.0096,4.0096,4.0096,4.0096,4.0096,4.0096,4.0096,4.0096,4.0096,4.0096,4.0096,4.0096,3.991,3.9453,3.9394,3.9394,3.9394,3.9394,3.952,3.974,3.9757,3.9859,4.0096,3.9901,3.9918,4.0096,3.9722,3.9747,4.0113,3.9901,3.9825,2.2308,2.3948,2.5001,2.4296,2.3791,2.317,2.1909,2.059,1.92,1.7654,1.7245,1.7322,1.7912,1.8305,1.9557,2.2664,2.3203,2.4156,2.6844,0.0,3.0836,3.2966,3.5401,3.7109,3.7665,3.7923,3.8479,3.947,3.9523,3.9696,4.007,4.0096,4.0096,4.0096,4.0096,4.0333,4.0781,4.1068,4.1441,4.188,4.2168,4.2286,4.2286,4.2286,4.2049,4.1627,4.1627,4.1187,0.0,4.0536,4.0367,4.0096,4.0096,4.0096,4.0096,4.0096,4.0096,4.0096,4.0096,4.0096,4.0096,4.0096,4.0096,4.0096,4.0096,4.0096,4.0096,4.0096,4.0096,4.0096,4.0096,4.0096,4.0096,4.0096,4.0096,4.0096,4.0096,4.0096,4.0096,4.0096,4.0096,4.0096,4.0096,4.0096,4.0096,4.0096,4.0096,4.0096,4.0096,4.0096,4.0096,4.0096,4.0096,4.0096,4.0096,4.0096,4.0096,4.0096,4.0096,4.0096,4.0096,4.0096,4.0096,4.0096,4.0096,4.0096,4.0096,4.0096,4.0096,4.0096,4.0096,4.0096,0.0,2.1411,2.2995,2.3277,2.2243,2.1253,2.1774,1.9892,0.0,1.7601,1.7458,1.767,1.8602,1.894,1.9774,2.1835,2.2426,2.376,2.7007,2.8514,3.0829,3.4931,3.5914,3.6765,3.8077,3.8808,3.9444,4.0045,4.0096,4.0096,4.0096,4.0096,4.0096,4.0096,4.0096,4.0146,4.0265,4.0933,4.1339,4.1457,4.2134,4.2455,4.2455,4.2455,4.2422,4.2371,4.2371,4.1965,4.1271,4.1221,4.0798,4.018,4.013,4.0096,4.0096,4.0096,4.0096,4.0096,4.0096,4.0096,4.0096,4.0096,4.0096,4.0096,4.0096,4.0096,4.0096,4.0096,4.0096,4.0096,4.0096,4.0096,4.0096,4.0096,4.0096,4.0096,4.0096,4.0096,4.0096,4.0096,4.0096,4.0096,4.0096,4.0096,4.0096,4.0096,4.0096,4.0096,4.0096,4.0096,4.0096,4.0096,4.0096,4.0096,4.0096,4.0096,4.0096,4.0096,4.0096,4.0096,4.0096,4.0096,4.0096,4.0096,4.0096,4.0096,4.0096,4.0096,4.0096,4.0096,4.0113,4.0096,1.633,0.0,1.9349,1.9108,1.9201,1.9246,0.0,1.8662,1.8091,1.7051,0.0,1.7822,1.921,1.9263,2.0572,2.5106,2.5828,2.7042,3.0576,3.2907,3.507,3.7308,3.7679,3.7913,3.8241,3.8848,3.9444,4.0045,4.0096,4.0096,4.0096,4.0096,4.0096,4.0096,4.0096,4.0654,4.1762,4.1948,4.2625,4.3819,4.3988,4.4073,4.4073,4.4073,4.3707,4.3122,4.3122,4.2726,4.1999,4.1441,4.1102,4.0882,4.0333,4.0096,4.0096,4.0096,4.0096,4.0096,4.0096,4.0096,4.0096,4.0096,4.0096,4.0096,4.0096,4.0096,4.0096,4.0096,4.0096,4.0096,4.0096,4.0096,4.0096,4.0096,4.0096,4.0096,4.0096,4.0096,4.0096,4.0096,4.0096,4.0096,4.0096,4.0096,4.0096,4.0096,4.0096,4.0096,4.0096,4.0096,4.0096,4.0096,4.0096,4.0096,4.0096,4.0096,4.0096,4.0096,4.0096,4.0096,4.0096,4.0096,4.0096,4.0096,4.0096,4.0096,4.0096,4.0096,4.0096,4.0096,4.0213,4.0238,1.5534,1.7308,1.9118,1.8943,1.9148,1.9443,1.946,0.0,0.0,0.0,0.0,1.8369,1.9257,2.0324,2.2119,2.5304,2.6808,2.8988,3.2981,3.5265,3.7163,3.8927,3.864,3.8502,3.9065,3.9401,3.9747,4.0087,4.0096,4.0096,4.0096,4.0096,4.0096,4.0096,4.0434,4.0984,4.1779,4.2117,4.2878,4.4045,4.4429,4.4615,4.4615,4.4615,4.435,4.3944,4.3944,4.3521,4.2777,4.2388,4.2016,4.1627,4.0882,4.0595,4.0544,4.0231,4.0096,4.0096,4.0096,4.0096,4.0096,4.0096,4.0096,4.0096,4.0096,4.0096,4.0096,4.0096,4.0096,4.0096,4.0096,4.0096,4.0096,4.0096,4.0096,4.0096,4.0096,4.0096,4.0096,4.0096,4.0096,4.0096,4.0096,4.0096,4.0096,4.0096,4.0096,4.0138,4.0188,4.0188,4.0213,4.0288,4.0271,4.0271,4.0271,4.0271,4.0221,4.0113,4.0163,4.0188,4.0188,4.0246,4.0271,4.0271,4.0271,4.0271,4.0271,4.0271,4.0271,4.0288,4.0362,4.0387,1.591,1.8296,2.053,2.0185,2.021,2.0444,2.0918,0.0,0.0,0.0,0.0,0.0,1.9821,2.1845,0.0,2.519,2.7646,3.0788,3.4908,3.6563,3.799,3.9741,3.9146,3.893,3.9876,4.0045,4.0096,4.0096,4.0096,4.0096,4.0096,4.0096,4.0096,4.0096,4.0696,4.1136,4.1373,4.21,4.2844,4.3578,4.4265,4.4615,4.4615,4.4615,4.4615,4.4615,4.4615,4.4198,4.3561,4.3443,4.3047,4.2371,4.1542,4.1204,4.1119,4.0383,4.0096,4.0096,4.0096,4.0096,4.0096,4.0096,4.0096,4.0096,4.0096,4.0096,4.0096,4.0096,4.0096,4.0096,4.0096,4.0096,4.0096,4.0096,4.0096,4.0096,4.0096,4.0096,4.0096,4.0096,4.0096,4.0096,4.0096,4.0138,4.0121,4.0121,4.0163,4.0213,4.033,4.033,4.0362,4.0485,4.051,4.051,4.051,4.051,4.0395,4.0188,4.0263,4.033,4.033,4.0436,4.051,4.051,4.051,4.051,4.051,4.051,4.051,4.051,4.0534,4.0534,1.65,1.9409,2.1471,1.9336,1.9583,2.0355,2.0202,0.0,0.0,0.0,0.0,0.0,0.0,2.3653,2.5155,2.9749,3.2315,3.4653,3.7327,3.7845,3.8282,3.9229,3.9644,3.9696,3.9365,3.9799,4.0096,4.0096,4.0096,4.0096,4.0096,4.0096,4.0096,4.0096,4.0214,4.0874,4.2117,4.2861,4.3639,4.4429,4.4547,4.4615,4.4615,4.4615,4.4615,4.4615,4.4615,4.453,4.435,4.369,4.3325,4.3115,4.1745,4.1204,4.1119,4.0383,4.0096,4.0096,4.0096,4.0096,4.0096,4.0096,4.0096,4.0096,4.0096,4.0096,4.0096,4.0096,4.0096,4.0096,4.0096,4.0096,4.0096,4.0096,4.0096,4.0096,4.0096,4.0096,4.0096,4.0096,4.0096,4.0096,4.0096,4.0188,4.028,4.028,4.0362,4.0461,4.0461,4.0485,4.0485,4.051,4.051,4.051,4.051,4.051,4.0468,4.0444,4.0461,4.0485,4.0485,4.0485,4.051,4.051,4.051,4.051,4.051,4.051,4.051,4.051,4.0624,4.0673,1.5964,1.862,2.0985,2.0642,2.2201,2.3658,2.3148,2.2615,0.0,0.0,0.0,0.0,0.0,0.0,2.8607,3.3036,3.5347,3.7078,3.843,3.8668,3.893,3.9594,3.9644,3.9644,3.9696,3.9944,4.0096,4.0096,4.0096,4.0096,4.0096,4.0096,4.0096,4.0096,4.0476,4.1204,4.2286,4.3047,4.3809,4.4615,4.4615,4.4615,4.4615,4.4615,4.4615,4.4615,4.4615,4.4615,4.4581,4.4198,4.4045,4.3893,4.2371,4.1779,4.166,4.0519,4.0096,4.0096,4.0096,4.0096,4.0096,4.0096,4.0096,4.0096,4.0096,4.0096,4.0096,4.0096,4.0096,4.0096,4.0096,4.0096,4.0096,4.0096,4.0096,4.0096,4.0096,4.0163,4.0213,4.0213,4.0263,4.0337,4.0337,4.0362,4.0412,4.0412,4.0461,4.0534,4.0583,4.0624,4.0631,4.0704,4.0728,4.0728,4.0728,4.0728,4.068,4.0607,4.0624,4.0631,4.0704,4.0728,4.0728,4.0728,4.0728,4.0728,4.0728,4.0728,4.0728,4.0728,4.0793,4.0817,1.6035,1.8155,2.0407,2.2127,2.4209,2.5865,2.6066,2.5493,0.0,0.0,0.0,0.0,0.0,2.9353,3.2462,3.5458,3.7344,3.8628,3.9192,3.9224,3.9418,4.002,3.9696,3.9575,4.0045,4.0096,4.0096,4.0096,4.0096,4.0096,4.0096,4.0096,4.0096,4.0096,4.0646,4.1305,4.2033,4.2608,4.347,4.4615,4.4615,4.4615,4.4615,4.4615,4.4615,4.4598,4.4412,4.4316,4.4327,4.4141,4.4175,4.4164,4.2625,4.1931,4.1653,4.0519,4.0096,4.0096,4.0096,4.0096,4.0096,4.0096,4.0096,4.0096,4.0096,4.0096,4.0096,4.0096,4.0096,4.0096,4.0096,4.0138,4.0163,4.0163,4.0171,4.0196,4.0196,4.0263,4.0355,4.0355,4.0436,4.051,4.051,4.0534,4.0558,4.0558,4.0583,4.0631,4.0721,4.0745,4.0793,4.0888,4.0912,4.0912,4.0912,4.0912,4.0864,4.0745,4.0745,4.0793,4.0912,4.0912,4.0912,4.0912,4.0912,4.0912,4.0912,4.0912,4.0912,4.0912,4.0912,4.0912,1.7896,1.9321,2.0525,2.2767,2.3249,2.3962,2.6961,2.6821,0.0,2.8471,0.0,0.0,0.0,3.3168,3.5907,3.6854,3.8171,3.9351,3.9952,3.9558,3.9418,4.002,4.0045,4.0045,4.0113,4.0096,4.0096,4.0096,4.0096,4.0096,4.0096,4.0096,4.0096,4.0096,4.0146,4.0536,4.1271,4.1339,4.2439,4.4615,4.4615,4.4615,4.4615,4.4615,4.4615,4.4564,4.3809,4.3504,4.3426,4.2743,4.2861,4.3325,4.1863,4.0849,4.0248,4.0146,4.0096,4.0096,4.0096,4.0096,4.0096,4.0096,4.0096,4.0096,4.0096,4.0096,4.0096,4.0096,4.0096,4.0096,4.0096,4.0188,4.0305,4.0305,4.0387,4.0485,4.0485,4.0485,4.0485,4.0485,4.0493,4.051,4.051,4.0583,4.0697,4.0697,4.0793,4.0871,4.0871,4.0888,4.0888,4.0912,4.0912,4.0912,4.0912,4.0912,4.0912,4.0888,4.0888,4.0888,4.0912,4.0912,4.0912,4.0912,4.0912,4.0912,4.0912,4.0912,4.0912,4.0912,4.0912,4.0912,1.6857,1.8741,2.0542,2.2835,2.4174,0.0,0.0,2.9288,3.0471,3.2135,3.3039,0.0,3.3689,3.5245,3.675,3.7465,3.8807,3.9825,4.007,3.9918,3.9825,4.007,4.0096,4.0096,4.0096,4.0096,4.0096,4.0096,4.0096,4.0096,4.0096,4.0096,4.0096,4.0096,4.0096,4.0443,4.1204,4.1204,4.1863,4.3176,4.3176,4.3176,4.3176,4.3176,4.3176,4.3159,4.2844,4.2726,4.2692,4.2405,4.2455,4.2608,4.161,4.0747,4.0096,4.0096,4.0096,4.0096,4.0096,4.0096,4.0096,4.0096,4.0096,4.0096,4.0096,4.0163,4.0213,4.0213,4.0288,4.0337,4.0238,4.0263,4.033,4.0412,4.0461,4.051,4.051,4.0558,4.0607,4.0607,4.068,4.0752,4.0752,4.0776,4.0817,4.0817,4.0864,4.0912,4.0912,4.0912,4.0912,4.0912,4.0912,4.0912,4.0912,4.0912,4.0912,4.0912,4.0912,4.0912,4.0912,4.0912,4.0912,4.0912,4.0912,4.0912,4.0912,4.0912,4.0912,4.0912,4.0912,4.0912,1.657,1.8493,2.0542,2.2835,0.0,0.0,2.9479,3.13,3.3022,3.4908,3.5552,3.5904,3.6264,3.6656,3.7198,3.8101,3.9276,4.0096,4.0096,4.0096,4.0096,4.0096,4.0096,4.0096,4.0096,4.0096,4.0096,4.0096,4.0096,4.0096,4.0096,4.0096,4.0096,4.0096,4.0096,4.035,4.0849,4.0849,4.1102,4.1619,4.1619,4.1856,4.2286,4.2286,4.2286,4.2286,4.2049,4.1948,4.1931,4.1694,4.1619,4.1576,4.1305,4.0747,4.0096,4.0096,4.0096,4.0096,4.0096,4.0096,4.0096,4.0096,4.0096,4.0096,4.0096,4.0188,4.0305,4.0305,4.0387,4.0485,4.0453,4.0429,4.0453,4.0534,4.0607,4.0631,4.0631,4.068,4.0769,4.0769,4.084,4.0912,4.0912,4.0912,4.0912,4.0912,4.0912,4.0912,4.0912,4.0912,4.0912,4.0912,4.0912,4.0912,4.0912,4.0912,4.0912,4.0912,4.0912,4.0912,4.0912,4.0912,4.0912,4.0912,4.0912,4.0912,4.0912,4.0912,4.0912,4.0912,4.1153,4.1257,1.7608,1.8899,2.0572,2.2852,0.0,0.0,3.1481,3.2639,3.3712,3.6456,3.66,3.6574,3.7696,3.7476,3.7544,3.8796,3.9622,4.0096,4.0096,4.0096,4.0096,4.0096,4.0096,4.0096,4.0096,4.0096,4.0096,4.0096,4.0096,4.0096,4.0096,4.0096,4.0096,4.0096,4.0096,4.0096,4.0096,4.0096,4.0096,4.0096,4.0096,4.0874,4.2269,4.2269,4.2269,4.2236,4.1508,4.1187,4.1136,4.0417,4.0096,4.018,4.0899,4.073,4.0096,4.0096,4.0096,4.0096,4.0096,4.0096,4.0096,4.0096,4.0096,4.0096,4.0096,4.0188,4.0288,4.0288,4.0387,4.0534,4.0673,4.0697,4.0697,4.0697,4.0817,4.0912,4.0912,4.0912,4.0912,4.0912,4.0912,4.0912,4.0912,4.0912,4.0912,4.0912,4.0912,4.0912,4.0912,4.0912,4.0912,4.0912,4.0912,4.0912,4.0912,4.0912,4.0912,4.0912,4.0912,4.0912,4.0912,4.0912,4.0912,4.0912,4.0912,4.0912,4.0912,4.0912,4.0912,4.0929,4.1671,4.1992,1.7608,1.9676,2.2144,2.4375,0.0,0.0,0.0,3.4339,0.0,0.0,3.864,3.8263,3.8618,3.8527,3.8546,3.893,3.9622,4.0096,4.0096,4.0096,4.0096,4.0096,4.0096,4.0096,4.0096,4.0096,4.0096,4.0096,4.0096,4.0096,4.0096,4.0096,4.0096,4.0096,4.0096,4.0096,4.0096,4.0096,4.0096,4.0096,4.0096,4.0333,4.0756,4.0756,4.0756,4.0756,4.0536,4.0434,4.0417,4.0197,4.0096,4.013,4.035,4.0299,4.0096,4.0096,4.0096,4.0096,4.0096,4.0096,4.0096,4.0096,4.0163,4.0238,4.0238,4.0404,4.0576,4.0576,4.0697,4.0776,4.084,4.084,4.084,4.084,4.0864,4.0912,4.0912,4.0912,4.0912,4.0912,4.0912,4.0912,4.0912,4.0912,4.0912,4.0912,4.0912,4.0912,4.0912,4.0912,4.0912,4.0912,4.0912,4.0912,4.0912,4.0912,4.0912,4.0912,4.0912,4.0912,4.0912,4.0912,4.0912,4.0912,4.0912,4.0912,4.0912,4.1429,4.1671,4.1705,4.2482,4.2844,1.9135,2.1346,2.3849,2.6691,2.9854,3.3004,3.5673,3.6637,3.755,3.9673,3.952,3.9089,3.9377,3.9191,3.9089,3.9402,3.9808,4.0096,4.0096,4.0096,4.0096,4.0096,4.0096,4.0096,4.0096,4.0096,4.0096,4.0096,4.0096,4.0096,4.0096,4.0096,4.0096,4.0096,4.0096,4.0096,4.0096,4.0096,4.0096,4.0096,4.0096,4.0096,4.0096,4.0096,4.0096,4.0096,4.0096,4.0096,4.0096,4.0096,4.0096,4.0096,4.0096,4.0096,4.0096,4.0096,4.0096,4.0096,4.0096,4.0121,4.0188,4.0188,4.0263,4.0387,4.0387,4.0527,4.0697,4.0697,4.0793,4.0912,4.0912,4.0912,4.0912,4.0912,4.1119,4.1343,4.1343,4.1585,4.1809,4.1809,4.1809,4.1809,4.1809,4.155,4.1343,4.1343,4.1101,4.0912,4.0912,4.117,4.1343,4.1343,4.1619,4.1809,4.1809,4.1809,4.1809,4.1809,4.1809,4.1809,4.1809,4.1516,4.1498,4.1809,4.1809,4.1809,4.1809,4.2258,4.2482,4.2499,4.3276,4.3638,2.1431,2.3376,2.5506,2.9262,3.1512,3.3901,3.8041,3.9039,3.9276,3.996,3.9571,3.9292,3.9977,3.9554,3.9334,3.9994,4.0096,4.0096,4.0096,4.0096,4.0096,4.0096,4.0096,4.0096,4.0096,4.0096,4.0096,4.0096,4.0096,4.0096,4.0096,4.0096,4.0096,4.0096,4.0096,4.0096,4.0096,4.0096,4.0096,4.0096,4.0096,4.0096,4.0096,4.0096,4.0096,4.0096,4.0096,4.0096,4.0096,4.0096,4.0096,4.0096,4.0096,4.0096,4.0096,4.0096,4.0096,4.0096,4.0096,4.0188,4.0305,4.0313,4.0412,4.0534,4.0534,4.0607,4.0721,4.0721,4.0817,4.0912,4.0912,4.0963,4.0998,4.0998,4.1516,4.2033,4.2102,4.2689,4.3189,4.3189,4.3189,4.3189,4.3189,4.2603,4.212,4.212,4.155,4.1119,4.1119,4.1705,4.212,4.212,4.2758,4.3189,4.3189,4.3189,4.3189,4.3189,4.3189,4.3224,4.3293,4.2534,4.2465,4.3189,4.3189,4.3189,4.3189,4.3276,4.3293,4.331,4.4069,4.4397,2.0936,2.3359,0.0,3.0023,3.3846,3.7094,3.865,3.9453,3.991,4.0079,3.9977,3.991,4.0079,3.9977,3.9926,4.0079,4.0096,4.0096,4.0096,4.0096,4.0096,4.0096,4.0096,4.0096,4.0096,4.0096,4.0096,4.0096,4.0096,4.0096,4.0096,4.0096,4.0096,4.0096,4.0096,4.0096,4.0096,4.0096,4.0096,4.0096,4.0096,4.0096,4.0096,4.0096,4.0096,4.0096,4.0096,4.0096,4.0096,4.0096,4.0096,4.0096,4.0096,4.0096,4.0096,4.0096,4.0096,4.0113,4.0213,4.028,4.033,4.0412,4.0534,4.0673,4.0673,4.0745,4.0864,4.0864,4.0888,4.0912,4.0912,4.1343,4.1774,4.1774,4.1871,4.2189,4.281,4.3086,4.3189,4.3189,4.3189,4.3189,4.3189,4.3051,4.2948,4.2948,4.281,4.2706,4.2706,4.2844,4.2948,4.2948,4.3103,4.3189,4.3189,4.3189,4.3189,4.3189,4.3189,4.3465,4.4035,4.3345,4.3017,4.3189,4.3189,4.3189,4.3189,4.3776,4.4069,4.4087,4.482,4.5156,2.1546,2.4137,0.0,3.1664,0.0,3.7652,3.8751,3.9317,3.9673,4.0028,4.0096,4.0096,4.0096,4.0096,4.0096,4.0096,4.0096,4.0096,4.0096,4.0096,4.0096,4.0096,4.0096,4.0096,4.0096,4.0096,4.0096,4.0096,4.0096,4.0096,4.0096,4.0096,4.0096,4.0096,4.0096,4.0096,4.0096,4.0096,4.0096,4.0096,4.0096,4.0121,4.0188,4.0138,4.0096,4.0096,4.0096,4.0096,4.0096,4.0096,4.0096,4.0096,4.0096,4.0096,4.0113,4.0163,4.0188,4.0213,4.0337,4.0453,4.0502,4.0558,4.0697,4.0793,4.0793,4.084,4.0981,4.1343,4.1429,4.1533,4.1895,4.2292,4.2672,4.3034,4.3103,4.3224,4.3638,4.4018,4.4251,4.4251,4.4251,4.4251,4.4251,4.3966,4.3603,4.3241,4.3189,4.3189,4.3189,4.35,4.3724,4.3724,4.4027,4.4251,4.4251,4.4251,4.4251,4.4251,4.4251,4.4423,4.482,4.4458,4.4251,4.4251,4.4251,4.4251,4.4251,4.463,4.4837,4.4837,4.5207,4.5397,2.1732,2.4728,2.8078,3.3068,3.5453,0.0,3.8294,3.8802,3.9157,3.9791,4.0011,4.0096,4.0096,4.0096,4.0096,4.0096,4.0096,4.0096,4.0096,4.0096,4.0096,4.0096,4.0096,4.0096,4.0096,4.0096,4.0096,4.0096,4.0096,4.0096,4.0096,4.0096,4.0096,4.0096,4.0096,4.0096,4.0096,4.0138,4.0121,4.0121,4.0163,4.0238,4.033,4.0238,4.0171,4.0171,4.0171,4.0171,4.0171,4.0171,4.0171,4.0171,4.0171,4.0171,4.0171,4.0288,4.0337,4.0337,4.0485,4.0624,4.0697,4.0721,4.0817,4.0912,4.0912,4.0912,4.105,4.1809,4.2016,4.2189,4.2982,4.3293,4.3534,4.4156,4.4397,4.4501,4.4501,4.4975,4.5397,4.5397,4.5397,4.5397,4.5397,4.4889,4.4294,4.3672,4.3586,4.3586,4.3586,4.4121,4.4501,4.4501,4.5044,4.5397,4.5397,4.5397,4.5397,4.5397,4.5397,4.5397,4.5397,4.5397,4.5397,4.5397,4.5397,4.5397,4.5397,4.5397,4.5397,4.5397,4.5397,4.5397,1.9088,0.0,2.8601,0.0,3.4653,3.5994,3.6897,3.8075,3.9022,3.9123,3.9673,4.0096,4.0096,4.0096,4.0096,4.0096,4.0096,4.0096,4.0096,4.0096,4.0096,4.0096,4.0096,4.0096,4.0096,4.0096,4.0096,4.0096,4.0096,4.0096,4.0096,4.0096,4.0096,4.0096,4.0096,4.0096,4.0096,4.0213,4.0263,4.0263,4.0387,4.0461,4.0485,4.0444,4.0461,4.0461,4.0461,4.0461,4.0461,4.0461,4.0461,4.0461,4.0461,4.0461,4.0461,4.0485,4.0485,4.0485,4.0624,4.0697,4.0721,4.084,4.0888,4.0912,4.0912,4.0912,4.105,4.1809,4.2016,4.2189,4.2982,4.3672,4.4173,4.4276,4.4785,4.5242,4.5242,4.5328,4.5397,4.5397,4.5397,4.5397,4.5397,4.5311,4.5207,4.5104,4.5104,4.5104,4.5104,4.5173,4.5242,4.5242,4.5328,4.5397,4.5397,4.5397,4.5397,4.5397,4.5397,4.5397,4.5397,4.5397,4.5397,4.5397,4.5397,4.5397,4.5397,4.5397,4.5397,4.5397,4.5397,4.5397,2.0442,2.4286,2.7994,0.0,3.3288,3.467,3.5859,3.6975,3.7872,3.8294,3.8954,3.9622,4.0028,4.0096,4.0096,4.0096,4.0096,4.0096,4.0096,4.0096,4.0096,4.0096,4.0096,4.0096,4.0096,4.0096,4.0096,4.0096,4.0096,4.0096,4.0096,4.0096,4.0121,4.0213,4.0213,4.0238,4.032,4.0387,4.0412,4.0412,4.0534,4.0607,4.0607,4.068,4.0655,4.051,4.051,4.051,4.051,4.051,4.051,4.051,4.051,4.051,4.051,4.0583,4.0607,4.0648,4.0769,4.0817,4.0817,4.0888,4.0912,4.0912,4.0912,4.0912,4.1153,4.2344,4.2672,4.2948,4.413,4.4682,4.4923,4.4923,4.5156,4.5397,4.5397,4.5397,4.5397,4.5397,4.5397,4.5397,4.5397,4.5397,4.5397,4.5397,4.5397,4.5397,4.5397,4.5397,4.5397,4.5397,4.5397,4.5397,4.5397,4.5397,4.5397,4.5397,4.5397,4.5397,4.5397,4.5397,4.5397,4.5397,4.5397,4.5397,4.5397,4.5397,4.5397,4.5397,4.5397,4.5397,0.0,0.0,2.5845,2.923,3.1326,3.3,3.4653,3.5808,3.6705,3.7466,3.821,3.8886,3.9453,3.9859,4.0096,4.0096,4.0096,4.0096,4.0096,4.0096,4.0096,4.0096,4.0096,4.0096,4.0096,4.0096,4.0096,4.0096,4.0096,4.0096,4.0096,4.0121,4.0188,4.0305,4.0337,4.0387,4.051,4.0534,4.0558,4.0607,4.068,4.0745,4.0745,4.0847,4.0776,4.0607,4.0607,4.0607,4.0607,4.0607,4.0607,4.0607,4.0607,4.0607,4.0607,4.0704,4.0745,4.0769,4.0864,4.0912,4.0912,4.0912,4.0912,4.0912,4.0912,4.0912,4.1222,4.2758,4.3189,4.3552,4.5001,4.5397,4.5397,4.5397,4.5397,4.5397,4.5397,4.5397,4.5397,4.5397,4.5397,4.5397,4.5397,4.5397,4.5397,4.5397,4.5397,4.5397,4.5397,4.5397,4.5397,4.5397,4.5397,4.5397,4.5397,4.5397,4.5397,4.5397,4.5397,4.5397,4.5397,4.5397,4.5397,4.5397,4.5397,4.5397,4.5397,4.5397,4.5397,4.5397,4.5397,4.5397,0.0,1.986,0.0,2.5927,2.8672,3.0833,3.3034,3.4619,3.5887,3.6694,3.7432,3.7973,3.8024,3.9157,4.0096,4.0096,4.0096,4.0096,4.0096,4.0096,4.0096,4.0096,4.0096,4.0096,4.0096,4.0096,4.0096,4.0096,4.0096,4.0096,4.0096,4.0213,4.0288,4.0305,4.0412,4.0493,4.051,4.0624,4.0745,4.0888,4.0888,4.0888,4.0888,4.0912,4.0894,4.0888,4.0888,4.0888,4.0888,4.0888,4.0888,4.0888,4.0888,4.0888,4.0888,4.0888,4.0888,4.0888,4.0912,4.0912,4.0912,4.0912,4.0912,4.0912,4.0912,4.0912,4.1222,4.2758,4.3189,4.3552,4.5001,4.5397,4.5397,4.5397,4.5397,4.5397,4.5397,4.5397,4.5397,4.5397,4.5397,4.5397,4.5397,4.5397,4.5397,4.5397,4.5397,4.5397,4.5397,4.5397,4.5397,4.5397,4.5397,4.5397,4.5397,4.5397,4.5397,4.5397,4.5397,4.5397,4.5397,4.5397,4.5397,4.5397,4.5397,4.5397,4.5397,4.5397,4.5397,4.5397,4.5397,4.5397,1.6426,0.0,0.0,2.3924,2.6351,2.8435,3.0178,3.207,3.3694,3.4455,3.5588,3.6586,3.7094,3.8403,3.9402,3.9402,3.9791,4.0096,4.0096,4.0096,4.0121,4.0213,4.0163,4.0121,4.0213,4.0163,4.0096,4.0096,4.0188,4.0213,4.0213,4.0362,4.0461,4.0551,4.06,4.0655,4.0752,4.0799,4.0864,4.0912,4.0912,4.0912,4.0912,4.0912,4.0912,4.0912,4.0912,4.0912,4.0912,4.0912,4.0912,4.0912,4.0912,4.0912,4.0912,4.0912,4.0912,4.0912,4.0912,4.0912,4.0912,4.0912,4.0912,4.0912,4.0912,4.0912,4.1222,4.2758,4.3189,4.3552,4.5001,4.5397,4.5397,4.5397,4.5397,4.5397,4.5397,4.5397,4.5397,4.5397,4.5397,4.5397,4.5397,4.5397,4.5397,4.5397,4.5397,4.5397,4.5397,4.5397,4.5397,4.5397,4.5397,4.5397,4.5397,4.5397,4.5397,4.5397,4.5397,4.5397,4.5397,4.5397,4.5397,4.5397,4.5397,4.5397,4.5397,4.5397,4.5397,4.5397,4.5397,4.5397,1.5259,0.0,0.0,0.0,2.3869,2.5639,2.8402,3.0146,3.1549,3.278,3.4201,3.5402,3.5932,3.7246,3.8328,3.8582,3.9039,3.9453,3.9706,3.9765,3.9917,4.0271,4.0263,4.0288,4.0362,4.0288,4.0221,4.0221,4.0313,4.0379,4.0379,4.0485,4.0648,4.0769,4.0769,4.0817,4.0912,4.0912,4.0912,4.0912,4.0912,4.0912,4.0912,4.0912,4.0912,4.0912,4.0912,4.0912,4.0912,4.0912,4.0912,4.0912,4.0912,4.0912,4.0912,4.0912,4.0912,4.0912,4.0912,4.0912,4.0912,4.0912,4.0912,4.0912,4.0912,4.0912,4.1222,4.2758,4.3189,4.3552,4.5001,4.5397,4.5397,4.5397,4.5397,4.5397,4.5397,4.5397,4.5397,4.5397,4.5397,4.5397,4.5397,4.5397,4.5397,4.5397,4.5397,4.5397,4.5397,4.5397,4.5397,4.5397,4.5397,4.5397,4.5397,4.5397,4.5397,4.5397,4.5397,4.5397,4.5397,4.5397,4.5397,4.5397,4.5397,4.5397,4.5397,4.5397,4.5397,4.5397,4.5397,4.5397,0.0,0.0,0.0,2.0578,2.1246,2.2516,2.7725,2.8861,2.9467,3.1735,3.3343,3.4375,3.446,3.5695,3.6948,3.7686,3.7872,3.8159,3.887,3.9069,3.9438,4.0152,4.036,4.0476,4.0476,4.0493,4.051,4.051,4.0493,4.051,4.051,4.0648,4.0769,4.0912,4.0912,4.0912,4.0912,4.0912,4.0912,4.0912,4.0912,4.0912,4.0912,4.0912,4.0912,4.0912,4.0912,4.0912,4.0912,4.0912,4.0912,4.0912,4.0912,4.0912,4.0912,4.0912,4.0912,4.0912,4.0912,4.0912,4.0912,4.0912,4.0912,4.0912,4.0912,4.0912,4.1222,4.2758,4.3189,4.3552,4.5001,4.5397,4.5397,4.5397,4.5397,4.5397,4.5397,4.5397,4.5397,4.5397,4.5397,4.5397,4.5397,4.5397,4.5397,4.5397,4.5397,4.5397,4.5397,4.5397,4.5397,4.5397,4.5397,4.5397,4.5397,4.5397,4.5397,4.5397,4.5397,4.5397,4.5397,4.5397,4.5397,4.5397,4.5397,4.5397,4.5397,4.5397,4.5397,4.5397,4.5397,4.5397,1.4322,0.0,0.0,0.0,0.0,0.0,2.3752,2.4713,2.6042,2.9378,3.0381,3.1334,3.3516,3.4219,3.4737,3.5479,3.6886,3.7973,3.8176,3.8234,3.8398,3.8734,3.9238,3.961,3.9767,4.0233,4.051,4.051,4.0583,4.0631,4.0631,4.0769,4.0864,4.0912,4.0912,4.0912,4.0912,4.0912,4.0912,4.0912,4.0912,4.0912,4.0912,4.0912,4.0912,4.0912,4.0912,4.0912,4.0912,4.0912,4.0912,4.0912,4.0912,4.0912,4.0912,4.0912,4.0912,4.0912,4.0912,4.0912,4.0912,4.0912,4.0912,4.0912,4.0912,4.0912,4.1222,4.2758,4.3189,4.3552,4.5001,4.5397,4.5397,4.5397,4.5397,4.5397,4.5397,4.5397,4.5397,4.5397,4.5397,4.5397,4.5397,4.5397,4.5397,4.5397,4.5397,4.5397,4.5397,4.5397,4.5397,4.5397,4.5397,4.5397,4.5397,4.5397,4.5397,4.5397,4.5397,4.5397,4.5397,4.5397,4.5397,4.5397,4.5397,4.5397,4.5397,4.5397,4.5397,4.5397,4.5397,4.5397,1.6055,0.0,0.0,0.0,0.0,0.0,2.2877,2.33,2.4023,2.7145,2.8288,2.9362,3.1447,3.2037,3.2559,3.3649,3.5137,3.6441,3.732,3.7526,3.7704,3.8156,3.8647,3.899,3.9112,3.9759,4.0175,4.0175,4.0556,4.0793,4.0793,4.0864,4.0912,4.0912,4.0912,4.0912,4.0912,4.0912,4.0912,4.0912,4.0912,4.0912,4.0912,4.0912,4.0912,4.0912,4.0912,4.0912,4.0912,4.0912,4.0912,4.0912,4.0912,4.0912,4.0912,4.0912,4.0912,4.0912,4.0912,4.0912,4.0912,4.0912,4.0912,4.0912,4.0912,4.0912,4.1222,4.2758,4.3655,4.432,4.5173,4.5397,4.5397,4.5397,4.5397,4.5397,4.5397,4.5397,4.5397,4.5397,4.5397,4.5397,4.5397,4.5397,4.5397,4.5397,4.5397,4.5397,4.5397,4.5397,4.5397,4.5397,4.5397,4.5397,4.5397,4.5397,4.5397,4.5397,4.5397,4.5397,4.5397,4.5397,4.5397,4.5397,4.5397,4.5397,4.5397,4.5397,4.5397,4.5397,4.5397,4.5397,1.8993,0.0,0.0,0.0,2.0159,0.0,2.3529,2.3353,2.299,2.5028,2.6479,2.7691,2.8664,2.9398,3.032,3.1859,3.2798,3.4082,3.6288,3.6814,3.724,3.7912,3.827,3.8456,3.8474,3.9129,3.9612,3.9681,4.0463,4.0912,4.0912,4.0912,4.0912,4.0912,4.0912,4.0912,4.0912,4.0912,4.0912,4.0912,4.0912,4.0912,4.0912,4.0912,4.0912,4.0912,4.0912,4.0912,4.0912,4.0912,4.0912,4.0912,4.0912,4.0912,4.0912,4.0912,4.0912,4.0912,4.0912,4.0912,4.0912,4.0912,4.0912,4.0912,4.0912,4.0912,4.1222,4.2758,4.4251,4.5397,4.5397,4.5397,4.5397,4.5397,4.5397,4.5397,4.5397,4.5397,4.5397,4.5397,4.5397,4.5397,4.5397,4.5397,4.5397,4.5397,4.5397,4.5397,4.5397,4.5397,4.5397,4.5397,4.5397,4.5397,4.5397,4.5397,4.5397,4.5397,4.5397,4.5397,4.5397,4.5397,4.5397,4.5397,4.5397,4.5397,4.5397,4.5397,4.5397,4.5397,4.5397,4.5423,2.1509,2.1906,2.2716,2.182,2.2147,0.0,2.1484,2.154,2.2074,2.3093,2.3075,2.3643,2.6222,2.6778,2.7329,2.8819,3.0134,3.1974,3.4874,3.5839,3.631,3.6573,3.7166,3.7593,3.7698,3.8392,3.906,3.9664,4.0463,4.0912,4.0912,4.0912,4.0912,4.0912,4.0912,4.0912,4.0912,4.0912,4.0912,4.0912,4.0912,4.0912,4.0912,4.0912,4.0912,4.0912,4.0912,4.0912,4.0912,4.0912,4.0912,4.0912,4.0912,4.0912,4.0912,4.0912,4.0912,4.0912,4.0912,4.0912,4.0912,4.0912,4.0912,4.0912,4.0912,4.0912,4.1222,4.2758,4.4251,4.5397,4.5397,4.5397,4.5397,4.5397,4.5397,4.5397,4.5397,4.5397,4.5397,4.5397,4.5397,4.5397,4.5397,4.5397,4.5397,4.5397,4.5397,4.5397,4.5397,4.5397,4.5397,4.5397,4.5397,4.5397,4.5397,4.5397,4.5397,4.5397,4.5397,4.5397,4.5397,4.5397,4.5397,4.5397,4.5397,4.5397,4.5397,4.5397,4.5397,4.5397,4.5397,4.5641,2.3815,2.385,2.4301,2.3939,2.3543,0.0,0.0,2.213,2.1906,2.3026,2.2371,2.2285,2.4543,2.462,2.4849,2.6344,2.815,2.99,3.1445,3.3568,3.4991,3.5032,3.5438,3.588,3.6301,3.7008,3.7922,3.906,3.9876,4.0284,4.0284,4.0687,4.0912,4.0912,4.0912,4.0912,4.0912,4.0912,4.0912,4.0912,4.0912,4.0912,4.0912,4.0912,4.0912,4.0912,4.0912,4.0912,4.0912,4.0912,4.0912,4.0912,4.0912,4.0912,4.0912,4.0912,4.0912,4.0912,4.0912,4.0912,4.0912,4.0912,4.0912,4.0912,4.0912,4.1447,4.2206,4.2982,4.4251,4.5397,4.5397,4.5397,4.5397,4.5397,4.5397,4.5397,4.5397,4.5397,4.5397,4.5397,4.5397,4.5397,4.5397,4.5397,4.5397,4.5397,4.5397,4.5397,4.5397,4.5397,4.5397,4.5397,4.5397,4.5397,4.5397,4.5397,4.5397,4.5397,4.5397,4.5397,4.5397,4.5397,4.5397,4.5397,4.5397,4.5537,4.5803,4.5803,4.5803,4.5803,4.602,4.6291,2.6247,2.5988,2.6109,2.6094,2.5042,2.406,0.0,0.0,0.0,2.2992,2.2199,2.1785,2.3129,2.2767,2.2716,2.4126,2.6126,2.7523,2.7523,3.0332,3.2563,3.2992,3.3416,3.3886,3.449,3.5076,3.6197,3.8008,3.8439,3.8939,3.9664,4.0325,4.0739,4.0912,4.0912,4.0912,4.0912,4.0912,4.0912,4.0912,4.0912,4.0912,4.0912,4.0912,4.0912,4.0912,4.0912,4.0912,4.0912,4.0912,4.0912,4.0912,4.0912,4.0912,4.0912,4.0912,4.0912,4.0912,4.0912,4.0912,4.0912,4.0912,4.0912,4.0912,4.0912,4.1981,4.3189,4.3189,4.4251,4.5397,4.5397,4.5397,4.5397,4.5397,4.5397,4.5397,4.5397,4.5397,4.5397,4.5397,4.5397,4.5397,4.5397,4.5397,4.5397,4.5397,4.5397,4.5397,4.5397,4.5397,4.5397,4.5397,4.5397,4.5397,4.5397,4.5397,4.5397,4.5397,4.5397,4.5397,4.5397,4.5502,4.5502,4.5397,4.5589,4.5854,4.6211,4.6387,4.6435,4.6339,4.6724,4.6954,2.923,2.9506,2.942,2.6764,2.7421,2.754,2.3022,0.0,2.3013,2.117,0.0,2.0808,2.1682,0.0,0.0,2.1837,2.3302,2.4319,2.4319,2.587,2.7732,2.9765,3.1231,3.2093,3.2179,3.2265,3.349,3.6353,3.5421,3.618,3.9508,3.9784,4.0146,4.0877,4.0912,4.0912,4.0912,4.0912,4.0912,4.0912,4.0912,4.0912,4.0912,4.0912,4.0912,4.0912,4.0912,4.0912,4.0912,4.0912,4.0912,4.0912,4.0912,4.0912,4.0912,4.0912,4.0912,4.0912,4.0912,4.0912,4.0912,4.0912,4.0912,4.0912,4.0912,4.1981,4.3189,4.3189,4.4251,4.5397,4.5397,4.5397,4.5397,4.5397,4.5397,4.5397,4.5397,4.5397,4.5397,4.5397,4.5397,4.5397,4.5397,4.5397,4.5397,4.5397,4.5397,4.5397,4.5397,4.5397,4.5397,4.5397,4.5397,4.5397,4.5397,4.5397,4.5397,4.5397,4.5397,4.5397,4.5397,4.5854,4.5879,4.5397,4.6291,4.6537,4.6211,4.7049,4.7226,4.6817,4.6886,4.7115,2.973,3.0093,3.0162,2.7989,2.7833,2.7402,2.4281,2.3353,2.3009,2.2492,0.0,0.0,0.0,0.0,0.0,0.0,2.182,2.2216,2.132,2.2888,2.516,2.7902,2.8385,2.9006,3.0351,3.0886,3.1852,3.3559,3.311,3.4024,3.6922,3.8336,3.9405,4.0164,4.067,4.0912,4.0912,4.0912,4.0912,4.0912,4.0912,4.0912,4.0912,4.0912,4.0912,4.0912,4.0912,4.0912,4.0912,4.0912,4.0912,4.0912,4.0912,4.0912,4.0912,4.0912,4.0912,4.0912,4.0912,4.0912,4.0912,4.0912,4.0912,4.0912,4.0912,4.1981,4.3189,4.3189,4.4251,4.5397,4.5397,4.5397,4.5397,4.5397,4.5397,4.5397,4.5397,4.5397,4.5397,4.5397,4.5397,4.5397,4.5397,4.5397,4.5397,4.5397,4.5397,4.5397,4.5397,4.5397,4.5397,4.5397,4.5397,4.5397,4.5397,4.5397,4.5397,4.5397,4.5397,4.5537,4.5854,4.6087,4.6217,4.6266,4.6678,4.6954,4.7008,4.7421,4.7886,4.846,4.7949,4.8088,3.0403,3.0869,3.1059,2.8696,2.7851,2.7023,2.4867,2.3991,2.3612,2.3526,2.3129,0.0,0.0,0.0,2.0653,2.0446,0.0,2.0872,1.9757,2.0854,2.2664,2.5126,2.5643,2.654,2.8403,2.8523,2.9248,3.1041,3.0403,3.1472,3.5007,3.6766,3.8284,3.9664,4.0273,4.0687,4.0912,4.0912,4.0912,4.0912,4.0912,4.0912,4.0912,4.0912,4.0912,4.0912,4.0912,4.0912,4.0912,4.0912,4.0912,4.0912,4.0912,4.0912,4.0912,4.0912,4.0912,4.0912,4.0912,4.0912,4.0912,4.0912,4.0912,4.0946,4.1153,4.2137,4.3241,4.3431,4.4423,4.5397,4.5397,4.5397,4.5397,4.5397,4.5397,4.5397,4.5397,4.5397,4.5397,4.5397,4.5397,4.5397,4.5397,4.5397,4.5397,4.5397,4.5397,4.5397,4.5397,4.5397,4.5397,4.5397,4.5397,4.5397,4.5397,4.5397,4.5397,4.5397,4.5537,4.5803,4.6186,4.6459,4.6678,4.6908,4.7138,4.7378,4.7611,4.7972,4.8652,4.9592,4.8948,4.9114,3.2145,3.2817,3.2923,2.8437,2.7851,2.7385,2.3629,2.4439,2.537,2.3181,2.4456,2.5284,2.3095,2.2078,2.1302,2.0532,2.0412,0.0,0.0,1.9809,1.9717,2.0515,2.3233,2.535,2.6128,2.4232,2.4801,2.9248,2.6868,2.8144,3.4835,3.5266,3.6663,3.9612,3.9715,4.0095,4.0894,4.0912,4.0912,4.0912,4.0912,4.0912,4.0912,4.0912,4.0912,4.0912,4.0912,4.0912,4.0912,4.0912,4.0912,4.0912,4.0912,4.0912,4.0912,4.0912,4.0912,4.0912,4.0912,4.0912,4.0912,4.0912,4.0912,4.1032,4.1757,4.2551,4.3345,4.4069,4.482,4.5397,4.5397,4.5397,4.5397,4.5397,4.5397,4.5397,4.5397,4.5397,4.5397,4.5397,4.5397,4.5397,4.5397,4.5397,4.5397,4.5397,4.5397,4.5397,4.5397,4.5397,4.5397,4.5397,4.5397,4.5397,4.5397,4.5397,4.5397,4.5397,4.5905,4.6186,4.6211,4.7053,4.7356,4.6908,4.7775,4.8035,4.7611,4.8897,4.9554,4.961,4.9574,4.9976,3.3455,3.4059,3.3973,3.042,2.9334,2.8282,2.4971,2.5198,2.5439,2.3164,2.4508,2.5387,2.3112,2.2095,2.1509,2.1234,2.0337,1.9499,0.0,1.8734,1.9027,2.0257,2.2664,2.3922,2.3181,2.3302,2.4284,2.6368,2.604,2.7627,3.199,3.4111,3.6149,3.8185,3.9181,4.0077,4.0894,4.0912,4.0912,4.0912,4.0912,4.0912,4.0912,4.0912,4.0912,4.0912,4.0912,4.0912,4.0912,4.0912,4.0912,4.0912,4.0912,4.0912,4.0912,4.0912,4.0912,4.0912,4.0912,4.0912,4.0981,4.1481,4.1636,4.1774,4.2568,4.3327,4.3983,4.4225,4.4837,4.5397,4.5397,4.5397,4.5397,4.5397,4.5397,4.5397,4.5397,4.5397,4.5397,4.5397,4.5397,4.5397,4.5397,4.5397,4.5397,4.5397,4.5397,4.5397,4.5397,4.5397,4.5397,4.5397,4.5397,4.5397,4.5397,4.5744,4.593,4.593,4.6387,4.6799,4.7097,4.7442,4.7653,4.7816,4.8132,4.8504,4.8916,4.9366,5.0161,5.1189,5.1231,5.1379,3.4251,3.4648,3.4542,3.1765,3.0696,2.9455,2.6143,2.6402,2.6663,2.437,2.5077,2.5818,2.4887,2.3216,2.1992,2.1992,2.0699,1.9338,0.0,1.8648,1.9148,1.9568,2.1389,2.244,2.2026,2.1871,2.2578,2.4422,2.4767,2.6471,3.0075,3.2886,3.5335,3.7443,3.8663,3.9819,4.0894,4.0912,4.0912,4.0912,4.0912,4.0912,4.0912,4.0912,4.0912,4.0912,4.0912,4.0912,4.0912,4.0912,4.0912,4.0912,4.0912,4.0912,4.0912,4.0912,4.0912,4.0912,4.0912,4.0912,4.1032,4.1774,4.2016,4.2206,4.3276,4.3914,4.4363,4.4613,4.5044,4.5397,4.5397,4.5397,4.5397,4.5397,4.5397,4.5397,4.5397,4.5397,4.5397,4.5397,4.5397,4.5476,4.5641,4.5693,4.5615,4.5423,4.5397,4.5397,4.5397,4.5397,4.5397,4.5397,4.5397,4.5476,4.5667,4.6144,4.6459,4.6459,4.689,4.7291,4.7591,4.7775,4.7995,4.8287,4.86,4.904,4.961,5.018,5.1008,5.2038,5.2377,5.2545]}]]